[[{"header":{"parameterUnit":"m.s-1","parameterCategory":1,"la1":31.0,"la2":29.5877,"lo1":-88.7671,"lo2":-86.6584,"dy":0.0162,"dx":0.0185,"nx":115,"ny":88,"refTime":"2023-10-16T00:00:00:Z","depth":0,"parameterNumber":2,"parameterNumberName":"U-component_of_WINDS"},"data":[0.0,0.0,0.0,0.0,0.0,0.0,0.0,0.0,0.0,0.0,0.0,0.0,0.0,0.0,0.0,0.0,0.0,0.0,0.0,0.0,0.0,0.0,0.0,0.0,0.0,0.0,0.0,0.0,0.0,0.0,0.0,0.0,0.0,0.0,0.0,0.0,0.0,0.0,0.0,0.0,0.0,0.0,0.0,0.0,0.0,0.0,0.0,0.0,0.0,0.0,0.0,0.0,0.0,0.0,0.0,0.0,0.0,0.0,0.0,0.0,0.0,0.0,0.0,0.0,0.0,0.0,0.0,0.0,0.0,0.0,0.0,0.0,0.0,0.0,0.0,0.0,0.0,0.0,0.0,0.0,0.0,0.0,0.0,0.0,0.0,0.0,0.0,0.0,0.0,0.0,0.0,0.0,0.0,0.0,0.0,0.0,0.0,0.0,0.0,0.0,0.0,0.0,0.0,0.0,0.0,0.0,0.0,0.0,0.0,0.0,0.0,0.0,0.0,0.0,0.0,0.0,0.0,0.0,0.0,0.0,0.0,0.0,0.0,0.0,0.0,0.0,0.0,0.0,0.0,0.0,0.0,0.0,0.0,0.0,0.0,0.0,0.0,0.0,0.0,0.0,0.0,0.0,0.0,0.0,0.0,0.0,0.0,0.0,0.0,0.0,0.0,0.0,0.0,0.0,0.0,0.0,0.0,0.0,0.0,0.0,0.0,0.0,0.0,0.0,0.0,0.0,0.0,0.0,0.0,0.0,0.0,0.0,0.0,0.0,0.0,0.0,0.0,0.0,0.0,0.0,0.0,0.0,0.0,0.0,0.0,0.0,0.0,0.0,0.0,0.0,0.0,0.0,0.0,0.0,0.0,0.0,0.0,0.0,0.0,0.0,0.0,0.0,0.0,0.0,0.0,0.0,0.0,0.0,0.0,0.0,0.0,0.0,0.0,0.0,0.0,0.0,0.0,0.0,0.0,0.0,0.0,0.0,0.0,0.0,0.0,0.0,0.0,0.0,0.0,0.0,0.0,0.0,0.0,0.0,0.0,0.0,0.0,0.0,0.0,0.0,0.0,0.0,0.0,0.0,0.0,0.0,0.0,0.0,0.0,0.0,0.0,0.0,0.0,0.0,0.0,0.0,0.0,0.0,0.0,0.0,0.0,0.0,0.0,0.0,0.0,0.0,0.0,0.0,0.0,0.0,0.0,0.0,0.0,0.0,0.0,0.0,0.0,0.0,0.0,0.0,0.0,0.0,0.0,0.0,0.0,0.0,0.0,0.0,0.0,0.0,0.0,0.0,0.0,0.0,0.0,0.0,0.0,0.0,0.0,0.0,0.0,0.0,0.0,0.0,0.0,0.0,0.0,0.0,0.0,0.0,0.0,0.0,0.0,0.0,0.0,0.0,0.0,0.0,0.0,0.0,0.0,0.0,0.0,0.0,0.0,0.0,0.0,0.0,0.0,0.0,0.0,0.0,0.0,0.0,0.0,0.0,0.0,0.0,0.0,0.0,0.0,0.0,0.0,0.0,0.0,0.0,0.0,0.0,0.0,0.0,0.0,0.0,0.0,0.0,0.0,0.0,0.0,0.0,0.0,0.0,0.0,0.0,0.0,0.0,0.0,0.0,0.0,0.0,0.0,0.0,0.0,0.0,0.0,0.0,0.0,0.0,0.0,0.0,0.0,0.0,0.0,0.0,0.0,0.0,0.0,0.0,0.0,0.0,0.0,0.0,0.0,0.0,0.0,0.0,0.0,0.0,0.0,0.0,0.0,0.0,0.0,0.0,0.0,0.0,0.0,0.0,0.0,0.0,0.0,0.0,0.0,0.0,0.0,0.0,0.0,0.0,0.0,0.0,0.0,0.0,0.0,0.0,0.0,0.0,0.0,0.0,0.0,0.0,0.0,0.0,0.0,0.0,0.0,0.0,0.0,0.0,0.0,0.0,0.0,0.0,0.0,0.0,0.0,0.0,0.0,0.0,0.0,0.0,0.0,0.0,0.0,0.0,0.0,0.0,0.0,0.0,0.0,0.0,0.0,0.0,0.0,0.0,0.0,0.0,0.0,0.0,0.0,0.0,0.0,0.0,0.0,0.0,0.0,0.0,0.0,0.0,0.0,0.0,0.0,0.0,0.0,0.0,0.0,0.0,0.0,0.0,0.0,0.0,0.0,0.0,0.0,0.0,0.0,0.0,0.0,0.0,0.0,0.0,0.0,0.0,0.0,0.0,0.0,0.0,0.0,0.0,0.0,0.0,0.0,0.0,0.0,0.0,0.0,0.0,0.0,0.0,0.0,0.0,0.0,0.0,0.0,0.0,0.0,0.0,0.0,0.0,0.0,0.0,0.0,0.0,0.0,0.0,0.0,0.0,0.0,0.0,0.0,0.0,0.0,0.0,0.0,0.0,0.0,0.0,0.0,0.0,0.0,0.0,0.0,0.0,0.0,0.0,0.0,0.0,0.0,0.0,0.0,0.0,0.0,0.0,0.0,0.0,0.0,0.0,0.0,0.0,0.0,0.0,0.0,0.0,0.0,0.0,0.0,0.0,0.0,0.0,0.0,0.0,0.0,0.0,0.0,0.0,0.0,0.0,0.0,0.0,0.0,0.0,0.0,0.0,0.0,0.0,0.0,0.0,0.0,0.0,0.0,0.0,0.0,0.0,0.0,0.0,0.0,0.0,0.0,0.0,0.0,0.0,0.0,0.0,0.0,0.0,0.0,0.0,0.0,0.0,0.0,0.0,0.0,0.0,0.0,0.0,0.0,0.0,0.0,0.0,0.0,0.0,0.0,0.0,0.0,0.0,0.0,0.0,0.0,0.0,0.0,0.0,0.0,0.0,0.0,0.0,0.0,0.0,0.0,0.0,0.0,0.0,0.0,0.0,0.0,0.0,0.0,0.0,0.0,0.0,0.0,0.0,0.0,0.0,0.0,0.0,0.0,0.0,0.0,0.0,0.0,0.0,0.0,0.0,0.0,0.0,0.0,0.0,0.0,0.0,0.0,0.0,0.0,0.0,0.0,0.0,0.0,0.0,0.0,0.0,0.0,0.0,0.0,0.0,0.0,0.0,0.0,0.0,0.0,0.0,0.0,0.0,0.0,0.0,0.0,0.0,0.0,0.0,0.0,0.0,0.0,0.0,0.0,0.0,0.0,0.0,0.0,0.0,0.0,0.0,0.0,0.0,0.0,0.0,0.0,0.0,0.0,0.0,0.0,0.0,0.0,0.0,0.0,0.0,0.0,0.0,0.0,0.0,0.0,0.0,0.0,0.0,0.0,0.0,0.0,0.0,0.0,0.0,0.0,0.0,0.0,0.0,0.0,0.0,0.0,0.0,0.0,0.0,0.0,0.0,0.0,0.0,0.0,0.0,0.0,0.0,0.0,0.0,0.0,0.0,0.0,0.0,0.0,0.0,0.0,0.0,0.0,0.0,0.0,0.0,0.0,0.0,0.0,0.0,0.0,0.0,0.0,0.0,0.0,0.0,0.0,0.0,0.0,0.0,0.0,0.0,0.0,0.0,0.0,0.0,0.0,0.0,0.0,0.0,0.0,0.0,0.0,0.0,0.0,0.0,0.0,0.0,0.0,0.0,0.0,0.0,0.0,0.0,0.0,0.0,0.0,0.0,0.0,0.0,0.0,0.0,0.0,0.0,0.0,0.0,0.0,0.0,0.0,0.0,0.0,0.0,0.0,0.0,0.0,0.0,0.0,0.0,0.0,0.0,0.0,0.0,0.0,0.0,0.0,0.0,0.0,0.0,0.0,0.0,0.0,0.0,0.0,0.0,0.0,0.0,0.0,0.0,0.0,0.0,0.0,0.0,0.0,0.0,0.0,0.0,0.0,0.0,0.0,0.0,0.0,0.0,0.0,0.0,0.0,0.0,0.0,0.0,0.0,0.0,0.0,0.0,0.0,0.0,0.0,0.0,0.0,0.0,0.0,0.0,0.0,0.0,0.0,0.0,0.0,0.0,0.0,0.0,0.0,0.0,0.0,0.0,0.0,0.0,0.0,0.0,0.0,0.0,0.0,0.0,0.0,0.0,0.0,0.0,0.0,0.0,0.0,0.0,0.0,0.0,0.0,0.0,0.0,0.0,0.0,0.0,0.0,0.0,0.0,0.0,0.0,0.0,0.0,0.0,0.0,0.0,0.0,0.0,0.0,0.0,0.0,0.0,0.0,0.0,0.0,0.0,0.0,0.0,0.0,0.0,0.0,0.0,0.0,0.0,0.0,0.0,0.0,0.0,0.0,0.0,0.0,0.0,0.0,0.0,0.0,0.0,2.361,0.0,0.0,0.0,0.0,0.0,0.0,0.0,0.0,0.0,0.0,0.0,0.0,0.0,0.0,0.0,0.0,0.0,0.0,0.0,0.0,0.0,0.0,0.0,0.0,0.0,0.0,0.0,0.0,0.0,0.0,0.0,0.0,0.0,0.0,0.0,0.0,0.0,0.0,0.0,0.0,0.0,0.0,0.0,0.0,0.0,0.0,0.0,0.0,0.0,0.0,0.0,0.0,0.0,0.0,0.0,0.0,0.0,0.0,0.0,0.0,0.0,0.0,0.0,0.0,0.0,0.0,0.0,0.0,0.0,0.0,0.0,0.0,0.0,0.0,0.0,0.0,0.0,0.0,0.0,0.0,0.0,0.0,0.0,0.0,0.0,0.0,0.0,0.0,0.0,0.0,0.0,0.0,0.0,0.0,0.0,0.0,0.0,0.0,0.0,0.0,0.0,0.0,0.0,0.0,0.0,0.0,0.0,0.0,0.0,0.0,2.3824,2.3824,2.3739,2.3696,2.3696,0.0,0.0,0.0,0.0,0.0,0.0,0.0,0.0,0.0,0.0,0.0,0.0,0.0,0.0,0.0,0.0,0.0,0.0,0.0,0.0,0.0,0.0,0.0,0.0,0.0,0.0,0.0,0.0,0.0,0.0,0.0,0.0,0.0,0.0,0.0,0.0,0.0,0.0,0.0,0.0,0.0,0.0,0.0,0.0,0.0,0.0,0.0,0.0,0.0,0.0,0.0,0.0,0.0,0.0,0.0,0.0,0.0,0.0,0.0,0.0,0.0,0.0,0.0,0.0,0.0,0.0,0.0,0.0,0.0,0.0,0.0,0.0,0.0,0.0,0.0,0.0,0.0,0.0,0.0,0.0,0.0,0.0,0.0,0.0,0.0,0.0,0.0,0.0,0.0,0.0,0.0,0.0,0.0,0.0,0.0,0.0,0.0,0.0,0.0,0.0,0.0,0.0,0.0,0.0,0.0,0.0,0.0,0.0,0.0,0.0,0.0,0.0,2.3897,2.3855,2.3782,0.0,0.0,0.0,0.0,0.0,0.0,0.0,0.0,0.0,0.0,0.0,0.0,0.0,0.0,0.0,0.0,0.0,0.0,0.0,0.0,0.0,0.0,0.0,0.0,0.0,0.0,0.0,0.0,0.0,0.0,0.0,0.0,0.0,0.0,0.0,0.0,0.0,0.0,0.0,0.0,0.0,0.0,0.0,0.0,0.0,0.0,0.0,0.0,0.0,0.0,0.0,0.0,0.0,0.0,0.0,0.0,0.0,0.0,0.0,0.0,0.0,0.0,0.0,0.0,0.0,0.0,0.0,0.0,0.0,0.0,0.0,0.0,0.0,0.0,0.0,0.0,0.0,0.0,0.0,0.0,0.0,0.0,0.0,0.0,0.0,0.0,0.0,0.0,0.0,0.0,0.0,0.0,0.0,0.0,0.0,0.0,0.0,0.0,0.0,0.0,0.0,0.0,0.0,0.0,0.0,0.0,0.0,0.0,0.0,0.0,2.3982,2.3982,2.3982,0.0,2.3782,0.0,0.0,0.0,0.0,0.0,0.0,0.0,0.0,0.0,0.0,0.0,0.0,0.0,0.0,0.0,0.0,0.0,0.0,0.0,0.0,0.0,0.0,0.0,0.0,0.0,0.0,0.0,0.0,0.0,0.0,0.0,0.0,0.0,0.0,0.0,0.0,0.0,0.0,0.0,0.0,0.0,0.0,0.0,0.0,0.0,0.0,0.0,0.0,0.0,0.0,0.0,0.0,0.0,0.0,0.0,0.0,0.0,0.0,0.0,0.0,0.0,0.0,0.0,0.0,0.0,0.0,0.0,0.0,0.0,0.0,0.0,0.0,0.0,0.0,0.0,0.0,0.0,0.0,0.0,0.0,0.0,0.0,0.0,0.0,0.0,0.0,0.0,0.0,0.0,0.0,0.0,0.0,0.0,0.0,0.0,0.0,0.0,0.0,0.0,0.0,0.0,0.0,0.0,0.0,0.0,0.0,0.0,0.0,0.0,0.0,2.4193,2.4193,2.4109,2.4024,0.0,0.0,0.0,0.0,0.0,0.0,0.0,0.0,0.0,0.0,0.0,0.0,0.0,0.0,0.0,0.0,0.0,0.0,0.0,0.0,0.0,0.0,0.0,0.0,0.0,0.0,0.0,0.0,0.0,0.0,0.0,0.0,0.0,0.0,0.0,0.0,0.0,0.0,0.0,0.0,0.0,0.0,0.0,0.0,0.0,0.0,0.0,0.0,0.0,0.0,0.0,0.0,0.0,0.0,0.0,0.0,0.0,0.0,0.0,0.0,0.0,0.0,0.0,0.0,0.0,0.0,0.0,0.0,0.0,0.0,0.0,0.0,0.0,0.0,0.0,0.0,0.0,0.0,0.0,0.0,0.0,0.0,0.0,0.0,0.0,0.0,0.0,0.0,0.0,0.0,0.0,0.0,0.0,0.0,0.0,0.0,0.0,0.0,0.0,0.0,0.0,0.0,0.0,0.0,0.0,0.0,0.0,0.0,0.0,0.0,2.4359,2.44,2.44,2.4317,2.4223,2.4109,0.0,0.0,0.0,0.0,0.0,0.0,0.0,0.0,0.0,0.0,0.0,0.0,0.0,0.0,0.0,0.0,0.0,0.0,0.0,0.0,0.0,0.0,0.0,0.0,0.0,0.0,0.0,0.0,0.0,0.0,0.0,0.0,0.0,0.0,0.0,0.0,0.0,0.0,0.0,0.0,0.0,0.0,0.0,0.0,0.0,0.0,0.0,0.0,0.0,0.0,0.0,0.0,0.0,0.0,0.0,0.0,0.0,0.0,0.0,0.0,0.0,0.0,0.0,0.0,0.0,0.0,0.0,0.0,0.0,0.0,0.0,0.0,0.0,0.0,0.0,0.0,0.0,0.0,0.0,0.0,0.0,0.0,0.0,0.0,0.0,0.0,0.0,0.0,0.0,0.0,0.0,0.0,0.0,0.0,0.0,0.0,0.0,0.0,0.0,0.0,0.0,0.0,0.0,0.0,0.0,0.0,0.0,0.0,2.4513,2.4595,2.4605,2.4636,2.4523,2.44,0.0,0.0,0.0,0.0,0.0,0.0,0.0,0.0,0.0,0.0,0.0,0.0,0.0,0.0,0.0,0.0,0.0,0.0,0.0,0.0,0.0,0.0,0.0,0.0,0.0,0.0,0.0,0.0,0.0,0.0,0.0,0.0,0.0,0.0,0.0,0.0,0.0,0.0,0.0,0.0,0.0,0.0,0.0,0.0,0.0,0.0,0.0,0.0,0.0,0.0,0.0,0.0,0.0,0.0,0.0,0.0,0.0,0.0,0.0,0.0,0.0,0.0,0.0,0.0,0.0,0.0,0.0,0.0,0.0,0.0,0.0,0.0,0.0,0.0,0.0,0.0,0.0,0.0,0.0,0.0,0.0,0.0,0.0,0.0,0.0,0.0,0.0,0.0,0.0,0.0,0.0,0.0,0.0,0.0,0.0,0.0,0.0,0.0,0.0,0.0,0.0,0.0,0.0,0.0,0.0,0.0,0.0,0.0,0.0,2.5913,2.5913,2.5956,2.5956,2.5477,2.5217,0.0,0.0,0.0,0.0,0.0,0.0,0.0,0.0,0.0,0.0,0.0,0.0,0.0,0.0,0.0,0.0,0.0,0.0,0.0,0.0,0.0,0.0,0.0,0.0,0.0,0.0,0.0,0.0,0.0,0.0,0.0,0.0,0.0,0.0,0.0,0.0,0.0,0.0,0.0,0.0,0.0,0.0,0.0,0.0,0.0,0.0,0.0,0.0,0.0,0.0,0.0,0.0,0.0,0.0,0.0,0.0,0.0,0.0,0.0,0.0,0.0,0.0,0.0,0.0,0.0,0.0,0.0,0.0,0.0,0.0,0.0,0.0,0.0,0.0,0.0,0.0,0.0,0.0,0.0,0.0,0.0,0.0,0.0,0.0,0.0,0.0,0.0,0.0,0.0,0.0,0.0,0.0,0.0,0.0,0.0,0.0,0.0,0.0,0.0,0.0,0.0,0.0,0.0,0.0,0.0,0.0,0.0,0.0,0.0,2.6848,0.0,2.6891,2.6848,2.6439,2.6103,0.0,0.0,0.0,0.0,0.0,0.0,0.0,0.0,0.0,0.0,0.0,0.0,0.0,0.0,0.0,0.0,0.0,0.0,0.0,0.0,0.0,0.0,0.0,0.0,0.0,0.0,0.0,0.0,0.0,0.0,0.0,0.0,0.0,0.0,0.0,0.0,0.0,0.0,0.0,0.0,0.0,0.0,0.0,0.0,0.0,0.0,0.0,0.0,0.0,0.0,0.0,0.0,0.0,0.0,0.0,0.0,0.0,0.0,0.0,0.0,0.0,0.0,0.0,0.0,0.0,0.0,0.0,0.0,0.0,0.0,0.0,0.0,0.0,0.0,0.0,0.0,0.0,0.0,0.0,0.0,0.0,0.0,0.0,0.0,0.0,0.0,0.0,0.0,0.0,0.0,0.0,0.0,0.0,0.0,0.0,0.0,0.0,0.0,0.0,0.0,0.0,0.0,0.0,0.0,0.0,0.0,0.0,0.0,2.691,2.7222,2.738,2.7444,2.7222,2.7169,2.7008,0.0,0.0,0.0,0.0,0.0,0.0,0.0,0.0,0.0,0.0,0.0,0.0,0.0,0.0,0.0,0.0,0.0,0.0,0.0,0.0,0.0,0.0,0.0,0.0,0.0,0.0,0.0,0.0,0.0,0.0,0.0,0.0,0.0,0.0,0.0,0.0,0.0,0.0,0.0,0.0,0.0,0.0,0.0,0.0,0.0,0.0,0.0,0.0,0.0,0.0,0.0,0.0,0.0,0.0,0.0,0.0,0.0,0.0,0.0,0.0,0.0,0.0,0.0,0.0,0.0,0.0,0.0,0.0,0.0,0.0,0.0,0.0,0.0,0.0,0.0,0.0,0.0,0.0,0.0,0.0,0.0,0.0,0.0,0.0,0.0,0.0,0.0,0.0,0.0,0.0,0.0,0.0,0.0,0.0,0.0,0.0,0.0,0.0,0.0,0.0,0.0,0.0,0.0,0.0,0.0,0.0,0.0,0.0,0.0,2.8774,2.8818,2.8818,2.8742,2.8208,2.7866,0.0,0.0,0.0,0.0,0.0,0.0,0.0,0.0,0.0,0.0,0.0,0.0,0.0,0.0,0.0,0.0,0.0,0.0,0.0,0.0,0.0,0.0,0.0,0.0,0.0,0.0,0.0,0.0,0.0,0.0,0.0,0.0,0.0,0.0,0.0,0.0,0.0,0.0,0.0,0.0,0.0,0.0,0.0,0.0,0.0,0.0,0.0,0.0,0.0,0.0,0.0,0.0,0.0,0.0,0.0,0.0,0.0,0.0,0.0,0.0,0.0,0.0,0.0,0.0,0.0,0.0,0.0,0.0,0.0,0.0,0.0,0.0,0.0,0.0,0.0,0.0,0.0,0.0,0.0,0.0,0.0,0.0,0.0,0.0,0.0,0.0,0.0,0.0,0.0,0.0,0.0,0.0,0.0,0.0,0.0,0.0,0.0,0.0,0.0,0.0,0.0,0.0,0.0,0.0,0.0,0.0,0.0,0.0,0.0,3.044,2.9926,2.9592,2.9579,2.9086,2.8729,2.8564,0.0,0.0,0.0,0.0,0.0,0.0,0.0,0.0,0.0,0.0,0.0,0.0,0.0,0.0,0.0,0.0,0.0,0.0,0.0,0.0,0.0,0.0,0.0,0.0,0.0,0.0,0.0,0.0,0.0,0.0,0.0,0.0,0.0,0.0,0.0,0.0,0.0,0.0,0.0,0.0,0.0,0.0,0.0,0.0,0.0,0.0,0.0,0.0,0.0,0.0,0.0,0.0,0.0,0.0,0.0,0.0,0.0,0.0,0.0,0.0,0.0,0.0,0.0,0.0,0.0,0.0,0.0,0.0,0.0,0.0,0.0,0.0,0.0,0.0,0.0,0.0,0.0,0.0,0.0,0.0,0.0,0.0,0.0,0.0,0.0,0.0,0.0,0.0,0.0,0.0,0.0,0.0,0.0,0.0,0.0,0.0,0.0,0.0,0.0,0.0,0.0,0.0,0.0,0.0,0.0,0.0,0.0,0.0,3.2028,3.0745,2.9976,2.9842,2.981,2.9688,0.0,0.0,0.0,0.0,0.0,0.0,0.0,0.0,0.0,0.0,0.0,0.0,0.0,0.0,0.0,0.0,0.0,0.0,0.0,0.0,0.0,0.0,0.0,0.0,0.0,0.0,0.0,0.0,0.0,0.0,0.0,0.0,0.0,0.0,0.0,0.0,0.0,0.0,0.0,0.0,0.0,0.0,0.0,0.0,0.0,0.0,0.0,0.0,0.0,0.0,0.0,0.0,0.0,0.0,0.0,0.0,0.0,0.0,0.0,0.0,0.0,0.0,0.0,0.0,0.0,0.0,0.0,0.0,0.0,0.0,0.0,0.0,0.0,0.0,0.0,0.0,0.0,0.0,0.0,0.0,0.0,0.0,0.0,0.0,0.0,0.0,0.0,0.0,0.0,0.0,0.0,0.0,0.0,0.0,0.0,0.0,0.0,0.0,0.0,0.0,0.0,0.0,0.0,0.0,0.0,0.0,0.0,0.0,0.0,3.2136,3.1778,3.1537,3.1399,3.1273,3.0969,0.0,0.0,0.0,0.0,0.0,0.0,0.0,0.0,0.0,0.0,0.0,0.0,0.0,0.0,0.0,0.0,0.0,0.0,0.0,0.0,0.0,0.0,0.0,0.0,0.0,0.0,0.0,0.0,0.0,0.0,0.0,0.0,0.0,0.0,0.0,0.0,0.0,0.0,0.0,0.0,0.0,0.0,0.0,0.0,0.0,0.0,0.0,0.0,0.0,0.0,0.0,0.0,0.0,0.0,0.0,0.0,0.0,0.0,0.0,0.0,0.0,0.0,0.0,0.0,0.0,0.0,0.0,0.0,0.0,0.0,0.0,0.0,0.0,0.0,0.0,0.0,0.0,0.0,0.0,0.0,0.0,0.0,0.0,0.0,0.0,0.0,0.0,0.0,0.0,0.0,0.0,0.0,0.0,0.0,0.0,0.0,0.0,0.0,0.0,0.0,0.0,0.0,0.0,0.0,0.0,0.0,0.0,0.0,3.287,3.3062,3.3142,3.3142,3.3095,3.2334,3.1722,0.0,0.0,0.0,0.0,0.0,0.0,0.0,0.0,0.0,0.0,0.0,0.0,0.0,0.0,0.0,0.0,0.0,0.0,0.0,0.0,0.0,0.0,0.0,0.0,0.0,0.0,0.0,0.0,0.0,0.0,0.0,0.0,0.0,0.0,0.0,0.0,0.0,0.0,0.0,0.0,0.0,0.0,0.0,0.0,0.0,0.0,0.0,0.0,0.0,0.0,0.0,0.0,0.0,0.0,0.0,0.0,0.0,0.0,0.0,0.0,0.0,0.0,0.0,0.0,0.0,0.0,0.0,0.0,0.0,0.0,0.0,0.0,0.0,0.0,0.0,0.0,0.0,0.0,0.0,0.0,0.0,0.0,0.0,0.0,0.0,0.0,0.0,0.0,0.0,0.0,0.0,0.0,0.0,0.0,0.0,0.0,0.0,0.0,0.0,0.0,0.0,0.0,0.0,0.0,0.0,0.0,0.0,0.0,3.4363,3.4528,3.4677,3.4775,3.4693,3.3255,3.2252,0.0,0.0,0.0,0.0,0.0,0.0,0.0,0.0,0.0,0.0,0.0,0.0,0.0,0.0,0.0,0.0,0.0,0.0,0.0,0.0,0.0,0.0,0.0,0.0,0.0,0.0,0.0,0.0,0.0,0.0,0.0,0.0,0.0,0.0,0.0,0.0,0.0,0.0,0.0,0.0,0.0,0.0,0.0,0.0,0.0,0.0,0.0,0.0,0.0,0.0,0.0,0.0,0.0,0.0,0.0,0.0,0.0,0.0,0.0,0.0,0.0,0.0,0.0,0.0,0.0,0.0,0.0,0.0,0.0,0.0,0.0,0.0,0.0,0.0,0.0,0.0,0.0,0.0,0.0,0.0,0.0,0.0,0.0,0.0,0.0,0.0,0.0,0.0,0.0,0.0,0.0,0.0,0.0,0.0,0.0,0.0,0.0,0.0,0.0,0.0,0.0,0.0,0.0,0.0,0.0,0.0,0.0,0.0,3.5491,3.6149,3.6335,3.6386,3.6353,3.4874,3.368,0.0,0.0,0.0,0.0,0.0,0.0,0.0,0.0,0.0,0.0,0.0,0.0,0.0,0.0,0.0,0.0,0.0,0.0,0.0,0.0,0.0,0.0,0.0,0.0,0.0,0.0,0.0,0.0,0.0,0.0,0.0,0.0,0.0,0.0,0.0,0.0,0.0,0.0,0.0,0.0,0.0,0.0,0.0,0.0,0.0,0.0,0.0,0.0,2.959,0.0,0.0,0.0,0.0,0.0,0.0,0.0,0.0,0.0,0.0,0.0,0.0,0.0,0.0,0.0,0.0,0.0,0.0,0.0,0.0,0.0,0.0,0.0,0.0,0.0,0.0,0.0,0.0,0.0,0.0,0.0,0.0,0.0,0.0,0.0,0.0,0.0,0.0,0.0,0.0,0.0,0.0,0.0,0.0,0.0,0.0,0.0,0.0,0.0,0.0,0.0,0.0,0.0,0.0,0.0,0.0,0.0,0.0,0.0,3.6247,3.6763,3.6949,3.7001,3.6967,3.6191,3.5284,0.0,0.0,0.0,0.0,0.0,0.0,0.0,0.0,0.0,0.0,0.0,0.0,0.0,0.0,0.0,0.0,0.0,0.0,0.0,0.0,0.0,0.0,0.0,0.0,0.0,0.0,0.0,0.0,0.0,0.0,0.0,0.0,0.0,0.0,0.0,0.0,0.0,0.0,0.0,0.0,0.0,0.0,0.0,0.0,0.0,0.0,0.0,0.0,0.0,0.0,0.0,0.0,0.0,0.0,0.0,0.0,0.0,0.0,0.0,0.0,0.0,0.0,0.0,0.0,0.0,0.0,0.0,0.0,0.0,0.0,0.0,0.0,0.0,0.0,0.0,0.0,0.0,0.0,0.0,0.0,0.0,0.0,0.0,0.0,0.0,0.0,0.0,0.0,0.0,0.0,0.0,0.0,0.0,0.0,0.0,0.0,0.0,0.0,0.0,0.0,0.0,0.0,0.0,0.0,0.0,0.0,0.0,3.6424,3.6992,3.7228,3.7382,3.7433,3.7433,3.7334,3.6868,3.604,0.0,0.0,0.0,0.0,0.0,0.0,0.0,0.0,0.0,0.0,0.0,0.0,0.0,0.0,0.0,0.0,0.0,0.0,0.0,0.0,0.0,0.0,0.0,0.0,0.0,0.0,0.0,0.0,0.0,0.0,0.0,0.0,0.0,0.0,0.0,0.0,0.0,0.0,2.9139,2.975,0.0,0.0,0.0,0.0,0.0,0.0,0.0,0.0,3.0928,0.0,0.0,0.0,0.0,0.0,0.0,0.0,0.0,0.0,0.0,0.0,0.0,0.0,0.0,0.0,0.0,0.0,0.0,0.0,0.0,0.0,0.0,0.0,0.0,0.0,0.0,0.0,0.0,0.0,0.0,0.0,0.0,0.0,0.0,0.0,0.0,0.0,0.0,0.0,0.0,0.0,0.0,0.0,0.0,0.0,0.0,0.0,0.0,0.0,0.0,0.0,0.0,0.0,0.0,0.0,0.0,3.7134,3.7564,3.8031,3.8644,3.8871,3.8924,3.8891,3.8328,3.7945,3.7694,0.0,0.0,0.0,0.0,0.0,0.0,0.0,0.0,0.0,0.0,0.0,0.0,0.0,0.0,0.0,0.0,0.0,0.0,0.0,0.0,0.0,0.0,0.0,0.0,0.0,0.0,0.0,0.0,0.0,0.0,0.0,0.0,0.0,0.0,0.0,0.0,0.0,0.0,0.0,3.0884,3.1213,0.0,0.0,0.0,0.0,0.0,0.0,0.0,0.0,3.2516,0.0,0.0,0.0,0.0,0.0,0.0,0.0,0.0,0.0,0.0,0.0,0.0,0.0,0.0,0.0,0.0,0.0,0.0,0.0,0.0,0.0,0.0,0.0,0.0,0.0,0.0,0.0,0.0,0.0,0.0,0.0,0.0,0.0,0.0,0.0,0.0,0.0,0.0,0.0,0.0,0.0,0.0,0.0,0.0,0.0,0.0,0.0,0.0,0.0,0.0,0.0,0.0,0.0,0.0,0.0,3.774,3.8656,3.9325,3.9709,4.0128,4.0216,3.9906,3.952,3.899,0.0,0.0,0.0,0.0,0.0,0.0,0.0,0.0,0.0,0.0,0.0,0.0,0.0,0.0,0.0,0.0,0.0,0.0,0.0,0.0,0.0,0.0,0.0,0.0,0.0,0.0,0.0,0.0,0.0,0.0,0.0,0.0,0.0,0.0,0.0,0.0,0.0,0.0,0.0,0.0,3.2173,3.2622,3.3017,0.0,0.0,0.0,0.0,0.0,0.0,3.4085,3.4109,0.0,0.0,0.0,0.0,0.0,0.0,0.0,0.0,0.0,0.0,0.0,0.0,0.0,0.0,0.0,0.0,0.0,0.0,0.0,0.0,0.0,0.0,0.0,0.0,0.0,0.0,0.0,0.0,0.0,0.0,0.0,0.0,0.0,0.0,0.0,0.0,0.0,0.0,0.0,0.0,0.0,0.0,0.0,0.0,0.0,0.0,0.0,0.0,0.0,0.0,0.0,0.0,0.0,0.0,0.0,3.8447,3.9567,4.0337,4.0613,4.1166,4.1233,4.0669,4.0558,3.9927,0.0,0.0,0.0,0.0,0.0,0.0,0.0,0.0,0.0,0.0,0.0,0.0,0.0,0.0,0.0,0.0,0.0,0.0,0.0,0.0,0.0,0.0,0.0,0.0,0.0,0.0,0.0,0.0,0.0,0.0,0.0,0.0,0.0,0.0,0.0,0.0,0.0,0.0,0.0,0.0,0.0,3.3929,3.3929,3.4509,0.0,0.0,0.0,0.0,3.525,3.5338,0.0,0.0,0.0,0.0,0.0,0.0,0.0,0.0,0.0,0.0,0.0,0.0,0.0,0.0,0.0,0.0,0.0,0.0,0.0,0.0,0.0,0.0,0.0,0.0,0.0,0.0,0.0,0.0,0.0,0.0,0.0,0.0,0.0,0.0,0.0,0.0,0.0,0.0,0.0,0.0,0.0,0.0,0.0,0.0,0.0,0.0,0.0,0.0,0.0,0.0,0.0,0.0,0.0,0.0,0.0,0.0,3.983,4.0172,4.068,4.1276,4.1488,4.1633,4.1533,4.1042,4.0662,0.0,0.0,0.0,0.0,0.0,0.0,0.0,0.0,0.0,0.0,0.0,0.0,0.0,0.0,0.0,0.0,0.0,0.0,0.0,0.0,0.0,0.0,0.0,0.0,0.0,0.0,0.0,0.0,0.0,0.0,0.0,0.0,0.0,0.0,0.0,0.0,0.0,0.0,0.0,0.0,0.0,3.4612,3.4727,3.4992,3.5225,0.0,0.0,3.5586,3.5719,3.5719,0.0,0.0,0.0,0.0,0.0,0.0,0.0,0.0,0.0,0.0,0.0,0.0,0.0,0.0,0.0,0.0,0.0,0.0,0.0,0.0,0.0,0.0,0.0,0.0,0.0,0.0,0.0,0.0,0.0,0.0,0.0,0.0,0.0,0.0,0.0,0.0,0.0,0.0,0.0,0.0,0.0,0.0,0.0,0.0,0.0,0.0,0.0,0.0,0.0,0.0,0.0,0.0,0.0,0.0,0.0,3.9665,4.0403,4.1288,4.191,4.2322,4.2812,4.2902,4.2468,4.2189,4.1653,0.0,0.0,0.0,0.0,0.0,0.0,0.0,0.0,0.0,0.0,0.0,0.0,0.0,0.0,0.0,0.0,0.0,0.0,0.0,0.0,0.0,0.0,0.0,0.0,0.0,0.0,0.0,0.0,0.0,0.0,0.0,0.0,0.0,0.0,0.0,0.0,0.0,0.0,0.0,0.0,0.0,0.0,3.5587,3.6164,0.0,0.0,0.0,3.6965,3.699,0.0,0.0,0.0,0.0,0.0,0.0,0.0,0.0,0.0,0.0,0.0,0.0,0.0,0.0,0.0,0.0,0.0,0.0,0.0,0.0,0.0,0.0,0.0,0.0,0.0,0.0,0.0,0.0,0.0,0.0,0.0,0.0,0.0,0.0,0.0,0.0,0.0,0.0,0.0,0.0,0.0,0.0,0.0,0.0,0.0,0.0,0.0,0.0,0.0,0.0,0.0,0.0,0.0,0.0,0.0,0.0,0.0,4.0976,4.2189,4.2979,4.326,4.3853,4.3887,4.335,4.3205,0.0,0.0,0.0,0.0,0.0,0.0,0.0,0.0,0.0,0.0,0.0,0.0,0.0,0.0,0.0,0.0,0.0,0.0,0.0,0.0,0.0,0.0,0.0,0.0,0.0,0.0,0.0,3.1693,0.0,0.0,0.0,0.0,0.0,0.0,0.0,0.0,0.0,0.0,0.0,0.0,0.0,0.0,3.6397,3.6542,3.7377,3.803,0.0,0.0,3.852,3.8579,3.8418,3.8322,0.0,0.0,0.0,0.0,0.0,0.0,0.0,0.0,0.0,0.0,0.0,0.0,0.0,0.0,0.0,0.0,0.0,0.0,0.0,0.0,0.0,0.0,0.0,0.0,0.0,0.0,0.0,0.0,0.0,0.0,0.0,0.0,0.0,0.0,0.0,0.0,0.0,0.0,0.0,0.0,0.0,0.0,0.0,0.0,0.0,0.0,0.0,0.0,0.0,0.0,0.0,0.0,0.0,0.0,4.1151,4.1854,4.259,4.3327,4.3997,4.4179,4.4293,4.4226,4.3664,4.3314,0.0,0.0,0.0,0.0,0.0,0.0,0.0,0.0,0.0,0.0,0.0,0.0,0.0,0.0,0.0,0.0,0.0,0.0,0.0,0.0,0.0,0.0,0.0,0.0,0.0,0.0,0.0,0.0,0.0,0.0,0.0,0.0,0.0,0.0,0.0,0.0,0.0,0.0,0.0,0.0,0.0,3.7354,3.7562,3.8344,3.8969,0.0,3.9693,4.0204,4.0291,3.98,3.9412,3.9412,0.0,0.0,0.0,0.0,0.0,0.0,0.0,0.0,0.0,0.0,0.0,0.0,0.0,0.0,0.0,0.0,0.0,0.0,0.0,0.0,0.0,0.0,0.0,0.0,0.0,0.0,0.0,0.0,0.0,0.0,0.0,0.0,0.0,0.0,0.0,0.0,0.0,0.0,0.0,0.0,0.0,0.0,0.0,0.0,0.0,0.0,0.0,0.0,0.0,0.0,0.0,0.0,0.0,4.1909,4.2723,4.3463,4.4001,4.4384,4.444,4.4497,4.4497,4.4282,4.391,0.0,0.0,0.0,0.0,0.0,0.0,0.0,0.0,0.0,0.0,0.0,0.0,0.0,0.0,0.0,0.0,0.0,0.0,0.0,0.0,0.0,0.0,0.0,0.0,0.0,0.0,0.0,0.0,3.4145,3.4298,3.4298,0.0,0.0,0.0,0.0,0.0,0.0,0.0,0.0,0.0,0.0,3.8141,3.8352,3.9198,0.0,0.0,4.0172,4.0453,4.0513,4.0286,4.0183,4.0274,4.0073,0.0,0.0,0.0,0.0,0.0,0.0,0.0,0.0,0.0,0.0,0.0,0.0,0.0,0.0,0.0,0.0,0.0,0.0,0.0,0.0,0.0,0.0,0.0,0.0,0.0,0.0,0.0,0.0,0.0,0.0,0.0,0.0,0.0,0.0,0.0,0.0,0.0,0.0,0.0,0.0,0.0,0.0,0.0,0.0,0.0,0.0,0.0,0.0,0.0,0.0,0.0,0.0,4.2623,4.3238,4.3979,4.4541,4.4891,4.4688,4.4688,4.4891,4.4688,4.4316,0.0,0.0,0.0,0.0,0.0,0.0,0.0,0.0,0.0,0.0,0.0,0.0,0.0,0.0,0.0,0.0,0.0,0.0,0.0,0.0,0.0,0.0,0.0,0.0,0.0,0.0,0.0,0.0,3.5056,3.5179,3.527,0.0,0.0,0.0,0.0,0.0,0.0,0.0,0.0,0.0,0.0,3.902,3.9205,4.0084,4.0688,4.0655,4.0938,4.1128,4.1188,4.1026,4.0956,4.1167,0.0,0.0,0.0,0.0,0.0,0.0,0.0,0.0,0.0,0.0,0.0,0.0,0.0,0.0,0.0,0.0,0.0,0.0,0.0,0.0,0.0,0.0,0.0,0.0,0.0,0.0,0.0,3.3823,0.0,0.0,3.4746,0.0,0.0,0.0,0.0,0.0,0.0,0.0,0.0,0.0,0.0,0.0,0.0,0.0,0.0,0.0,0.0,0.0,0.0,0.0,0.0,0.0,0.0,4.3348,4.3436,4.4248,4.4959,4.5635,4.4959,4.4959,4.5635,4.4993,4.4587,4.4553,0.0,0.0,0.0,0.0,0.0,0.0,0.0,0.0,0.0,0.0,0.0,0.0,0.0,0.0,0.0,0.0,0.0,0.0,0.0,0.0,0.0,0.0,0.0,0.0,0.0,0.0,3.597,3.635,3.6723,0.0,0.0,0.0,0.0,0.0,0.0,0.0,0.0,0.0,3.8428,3.9367,4.0059,4.0212,4.0974,4.1549,4.1549,4.2132,4.2648,4.2772,4.2281,4.1852,0.0,0.0,0.0,0.0,0.0,0.0,0.0,0.0,0.0,0.0,0.0,0.0,0.0,0.0,0.0,0.0,0.0,0.0,0.0,0.0,0.0,0.0,0.0,0.0,0.0,0.0,0.0,3.6947,3.686,0.0,0.0,0.0,0.0,0.0,0.0,0.0,0.0,0.0,0.0,0.0,4.117,4.117,0.0,0.0,0.0,0.0,0.0,0.0,0.0,0.0,0.0,0.0,0.0,0.0,4.391,4.4891,4.5196,4.5669,4.6413,4.6177,4.6177,4.6413,4.6177,4.5838,4.5331,0.0,0.0,0.0,0.0,0.0,0.0,0.0,0.0,0.0,0.0,0.0,0.0,0.0,0.0,0.0,0.0,0.0,0.0,0.0,0.0,0.0,0.0,0.0,0.0,0.0,3.6656,0.0,0.0,0.0,0.0,0.0,0.0,0.0,0.0,0.0,0.0,0.0,3.928,3.9527,4.0379,4.0951,4.1013,4.1717,4.2294,0.0,0.0,0.0,0.0,0.0,0.0,0.0,0.0,0.0,0.0,0.0,0.0,0.0,0.0,4.3338,4.1226,4.0808,4.0782,4.0664,0.0,0.0,0.0,0.0,0.0,0.0,0.0,0.0,0.0,0.0,0.0,0.0,0.0,0.0,3.9479,0.0,3.9353,0.0,0.0,0.0,0.0,0.0,0.0,0.0,0.0,4.1373,4.1847,4.2286,4.2286,4.2422,0.0,4.2692,4.2963,0.0,0.0,0.0,0.0,0.0,0.0,0.0,0.0,4.4722,4.5669,4.594,4.6447,4.7124,4.6921,4.6921,4.7158,4.6921,4.6549,4.6109,4.4891,4.4215,0.0,0.0,0.0,0.0,0.0,0.0,0.0,0.0,0.0,0.0,0.0,0.0,0.0,0.0,0.0,0.0,0.0,0.0,0.0,0.0,0.0,0.0,0.0,3.8025,0.0,0.0,0.0,0.0,0.0,0.0,0.0,0.0,0.0,3.8995,3.9596,4.0227,4.0475,4.1434,4.2171,4.2171,0.0,0.0,0.0,0.0,0.0,0.0,0.0,4.494,4.556,4.5689,4.5689,4.5781,4.5781,4.5814,4.5689,0.0,0.0,4.2879,4.249,4.249,4.2402,4.2402,4.2341,4.2187,4.2154,4.2154,0.0,0.0,0.0,0.0,0.0,0.0,0.0,0.0,4.1046,4.1267,0.0,4.1175,0.0,0.0,0.0,0.0,0.0,4.2325,0.0,0.0,4.2388,4.2388,4.2455,4.2489,4.2828,4.3504,4.3572,4.4316,4.5534,4.3538,0.0,0.0,0.0,0.0,0.0,0.0,4.5737,4.5805,4.6481,4.7192,4.7902,4.7259,4.7225,4.7902,4.7225,4.6819,4.6786,4.6109,4.5737,4.5737,4.4316,0.0,0.0,0.0,0.0,0.0,0.0,0.0,0.0,0.0,0.0,0.0,0.0,0.0,0.0,0.0,0.0,0.0,0.0,0.0,0.0,3.9646,0.0,0.0,0.0,0.0,0.0,0.0,0.0,0.0,0.0,0.0,3.9976,4.0641,4.1275,4.1496,0.0,0.0,0.0,0.0,4.5049,4.5049,4.5243,4.5372,4.5662,4.5662,4.5725,4.598,0.0,0.0,4.598,4.598,4.6013,4.5947,4.6079,4.5788,4.5567,4.5306,4.5208,4.5177,4.5111,4.5242,4.5242,4.498,4.5046,4.5351,0.0,0.0,0.0,0.0,4.2614,4.2614,4.2614,4.2823,4.2927,4.288,4.2784,0.0,0.0,0.0,0.0,0.0,0.0,4.2895,4.391,4.391,4.4485,4.55,4.55,4.5602,4.5805,4.5838,4.6041,4.6447,4.5805,4.5602,4.5805,0.0,0.0,0.0,0.0,4.6752,4.7259,4.7496,4.797,4.868,4.8477,4.8477,4.868,4.8003,4.7597,4.7597,4.6887,4.6481,4.6481,4.5568,0.0,0.0,0.0,0.0,0.0,0.0,0.0,0.0,0.0,0.0,0.0,0.0,0.0,0.0,0.0,0.0,0.0,0.0,0.0,3.9802,3.9994,4.0062,0.0,0.0,0.0,0.0,0.0,0.0,0.0,0.0,0.0,4.3135,4.2912,4.3073,0.0,0.0,4.4659,4.4691,4.4984,4.5243,4.5243,4.5372,0.0,4.6946,4.7242,4.7671,4.8763,4.8928,4.8961,4.8961,4.8961,4.8928,4.8928,4.8961,4.8895,4.8695,4.7043,4.5725,4.5563,4.5499,4.5436,4.5372,4.5275,4.5308,4.7877,4.5988,4.5623,4.5387,4.5242,4.5194,4.5194,4.518,4.5411,4.5501,4.5451,4.53,4.5249,4.5147,4.487,0.0,0.0,0.0,4.4553,4.5432,4.5466,4.594,4.6752,4.6786,4.6786,4.6786,4.6786,4.6955,4.7225,4.7225,4.753,4.8037,0.0,0.0,4.6819,4.709,4.7462,4.7936,4.8511,4.8984,4.9424,4.9729,4.9864,4.9864,4.9154,4.8781,4.8748,4.78,4.7225,4.7225,4.6549,4.594,0.0,0.0,0.0,0.0,0.0,0.0,0.0,0.0,0.0,0.0,0.0,4.0611,4.0555,0.0,0.0,0.0,4.0951,4.116,4.162,4.156,0.0,0.0,0.0,0.0,0.0,0.0,0.0,4.3714,4.4232,4.4849,4.5465,4.5206,4.4949,4.4951,4.557,4.6061,4.6061,0.0,4.7144,4.7144,4.7309,4.7737,4.8563,4.8795,4.9193,5.0055,5.022,5.022,5.022,5.022,5.022,5.022,5.022,5.022,5.022,4.873,4.757,4.744,4.744,4.7375,4.7276,4.721,4.7243,4.9613,4.9479,4.8635,4.8125,4.7864,4.7717,4.7668,4.7738,4.8256,4.8417,4.8312,4.8154,4.8047,4.783,4.7386,0.0,4.7216,4.6903,4.6819,4.6989,4.6955,4.7022,4.7158,4.7158,4.7158,4.7158,4.7158,4.7496,4.8173,4.8206,4.8849,5.0101,4.8173,4.7124,4.7192,4.7834,4.8173,4.8206,4.9492,5.0168,5.0168,5.0845,5.1217,5.1217,5.0541,5.0168,5.0135,4.8849,4.8105,4.8071,4.7327,4.6887,4.6853,0.0,0.0,0.0,0.0,0.0,0.0,0.0,0.0,0.0,0.0,0.0,0.0,0.0,0.0,4.1304,4.1782,0.0,4.3942,4.3944,0.0,0.0,0.0,4.449,4.4388,4.4552,4.4683,4.475,0.0,0.0,4.7167,4.743,4.6941,4.5669,4.6748,4.7701,4.7734,4.8921,4.9879,4.9747,5.0017,5.0187,5.0187,5.0386,5.0618,5.0783,5.0551,5.0717,5.075,5.0717,5.0618,5.075,5.0585,5.0651,5.0585,5.0618,5.0551,5.0551,5.0286,5.0121,4.992,4.9887,4.9854,5.287,5.2834,5.2604,5.1043,4.8714,4.8579,4.8529,4.8514,4.8502,4.8417,4.8312,4.8154,4.7939,4.77,4.7329,4.7216,4.7216,4.6903,4.7394,4.8443,4.8477,4.9086,5.0135,5.0168,5.0168,5.0168,5.0168,5.027,5.0439,5.0439,5.0608,5.0913,5.0405,5.0168,5.0168,5.0338,5.0439,5.0439,5.0777,5.0947,5.0947,5.1116,5.1217,5.1217,5.1048,5.0947,5.0913,5.0067,4.9593,4.9526,4.8342,4.7665,4.7631,4.6921,0.0,0.0,0.0,0.0,0.0,0.0,0.0,0.0,0.0,4.2212,4.2212,0.0,4.3806,0.0,4.4158,4.4589,4.4949,4.4853,0.0,0.0,4.4787,4.4721,4.4655,4.5659,4.6374,4.651,4.7554,4.8404,4.8973,4.9177,4.9115,4.8787,4.9118,4.9316,4.9349,4.975,5.0152,5.0185,5.0251,5.0419,5.1015,5.1976,5.2804,5.34,5.3467,5.35,5.35,5.35,5.35,5.35,5.35,5.35,5.3434,5.35,5.3467,5.3334,5.1777,5.022,5.022,5.0253,5.0253,5.3975,5.3975,5.3922,5.282,5.1102,5.0998,5.0894,5.0841,5.0646,5.0484,5.034,5.0154,4.9872,4.9584,4.935,4.9172,4.9112,4.887,4.9187,4.9965,4.9999,5.0439,5.1217,5.1217,5.1217,5.1217,5.1217,5.1217,5.1217,5.1217,5.1386,5.1691,5.1725,5.186,5.2198,5.1555,5.1217,5.1217,5.1522,5.186,5.2232,5.2232,5.2232,5.2232,5.1894,5.1691,5.1691,5.098,5.0608,5.0574,4.983,4.9221,4.8883,4.8146,4.7511,0.0,0.0,0.0,0.0,0.0,0.0,0.0,0.0,0.0,0.0,0.0,4.5185,4.5061,4.5332,4.5567,4.5863,4.6094,4.629,4.6584,4.681,4.6939,4.6939,4.7623,4.8111,4.8282,4.8968,4.9758,5.0594,5.0796,5.1201,5.1795,5.1966,5.1735,5.1173,5.1343,5.1744,5.2075,5.2142,5.2241,5.2672,5.3367,5.4063,5.4427,5.4527,5.4527,5.4527,5.4527,5.4527,5.4527,5.4527,5.4527,5.4527,5.4527,5.4527,5.4328,5.3268,5.2274,5.2142,5.2142,5.2142,5.4581,5.4581,5.442,5.4366,5.4311,5.4201,5.3879,5.3415,5.3247,5.3041,5.2869,5.2577,5.2313,5.1974,5.1788,5.16,5.1473,5.1282,5.1251,5.1352,5.1352,5.142,5.1522,5.1522,5.1555,5.1657,5.1657,5.1725,5.1792,5.1792,5.2131,5.2706,5.2739,5.3078,5.3687,5.2469,5.1758,5.1657,5.2367,5.3078,5.3754,5.3788,5.3754,5.3619,5.2976,5.2536,5.2435,5.1758,5.1352,5.1288,5.122,5.0848,5.0207,4.9472,4.8769,0.0,4.7306,0.0,0.0,0.0,0.0,0.0,0.0,0.0,0.0,4.598,4.6146,4.6344,4.6251,4.6451,4.6979,4.7505,4.8062,4.8584,4.9206,4.9599,4.9567,4.973,4.9894,4.9965,5.0096,5.0791,5.2191,5.2389,5.299,5.4022,5.4262,5.3897,5.3102,5.3202,5.3665,5.4427,5.4527,5.4229,5.446,5.4593,5.4692,5.4792,5.4891,5.4792,5.4891,5.4858,5.4825,5.4858,5.4891,5.4858,5.4792,5.4825,5.4825,5.4891,5.4759,5.4593,5.4361,5.4262,5.4527,5.7619,5.7619,5.7504,5.7329,5.7211,5.7211,5.5706,5.3359,5.3098,5.2811,5.2518,5.2339,5.2157,5.1974,5.1788,5.1663,5.1473,5.1282,5.1522,5.2097,5.2097,5.2435,5.3044,5.3078,5.3382,5.3923,5.3957,5.4262,5.4871,5.4871,5.4938,5.5074,5.5074,5.5141,5.5277,0.0,0.0,0.0,5.4702,5.5141,5.531,5.531,5.5006,5.4397,5.4228,0.0,5.3281,5.2503,5.2031,5.1932,5.136,0.0,0.0,0.0,0.0,0.0,0.0,0.0,0.0,0.0,0.0,0.0,4.9359,4.8365,4.6079,4.6908,4.8067,4.926,4.9325,4.9358,4.9523,4.9486,4.948,4.9612,4.9604,4.9599,4.9632,5.0648,5.1441,5.1658,5.2646,5.3437,5.3923,5.4022,5.4121,5.4527,5.4527,5.4692,5.4957,5.456,5.4394,5.4494,5.4626,5.4792,5.5322,5.5421,5.5587,5.6084,5.6282,5.6249,5.6183,5.6216,5.6249,5.6249,5.6282,5.6249,5.6282,5.6282,5.6282,5.6282,5.6282,5.5918,5.4792,5.4527,5.4527,5.8485,5.8391,5.8213,5.8033,0.0,5.779,5.6851,5.5354,5.5199,5.5018,5.471,5.446,5.4205,5.4076,5.3915,5.3717,5.3584,5.345,5.3619,5.3991,5.3991,5.4194,5.46,5.46,5.4769,5.5141,5.5141,5.5344,5.5716,5.5716,5.5716,5.5716,5.5716,5.5716,5.5716,5.6089,5.5886,5.5141,5.5513,5.5716,5.5716,5.5716,5.5513,5.5141,5.5141,0.0,0.0,0.0,0.0,0.0,0.0,0.0,0.0,5.1195,0.0,5.0593,5.0358,5.029,5.0323,5.0187,5.022,5.022,5.022,4.9591,4.8067,4.8663,4.9392,5.0121,5.022,5.022,5.022,5.078,5.114,5.114,5.1663,5.202,5.2086,5.2679,5.3181,5.332,5.3882,5.4477,5.4948,5.5057,5.5222,5.5521,5.5587,5.5719,5.5984,5.5521,5.5156,5.5521,5.5587,5.5719,5.6051,5.615,5.6249,5.6614,5.668,5.668,5.668,5.668,5.6779,5.7111,5.7243,5.7309,5.7707,5.7773,5.7773,5.7773,5.7773,5.7574,5.6779,5.6117,5.5587,5.8757,5.8577,5.8421,5.8237,5.8086,5.7926,5.7736,5.7607,0.0,0.0,0.0,5.6638,5.6371,5.6167,5.6064,5.5856,5.5716,5.5716,5.5716,5.5716,5.5716,5.5716,5.5716,5.5716,5.5784,5.5919,5.5919,5.5987,5.6089,5.6089,5.6122,5.6089,5.6122,5.6089,5.6122,5.6697,5.6697,5.6122,5.6089,5.6122,5.6089,5.6089,5.6055,5.5849,5.5849,5.5711,5.5362,5.5362,5.4988,5.4171,5.4138,5.3569,5.2399,5.2091,5.1755,5.119,5.1018,5.0982,5.0982,5.0982,5.0982,5.0982,5.0982,5.0817,5.0452,5.0518,5.0651,5.0783,5.0883,5.0982,5.0982,5.2042,5.2771,5.2771,5.3831,5.4494,5.4494,5.4659,5.4692,5.4725,5.4858,5.5123,5.5719,5.5951,5.6216,5.6746,5.6978,5.7077,5.6978,5.6514,5.6316,5.6945,5.7077,5.7077,5.7077,5.7111,5.7077,5.7177,5.7177,5.7077,5.7077,5.7077,5.7309,5.7906,5.8005,5.8237,5.8734,5.88,5.8899,5.8899,5.8899,5.8899,5.88,5.7939,5.7111,5.998,5.9819,5.9628,5.9499,5.9338,5.9273,5.914,5.8666,5.7586,5.6902,5.6572,5.6505,5.6303,5.5995,5.5995,5.5856,5.5716,5.5716,5.5716,5.5716,5.5716,5.5716,5.5716,5.5716,5.6055,5.663,5.663,5.6968,5.7509,5.7543,5.7577,5.7577,5.7577,5.7577,5.7577,5.7679,5.7679,5.7577,5.7577,5.7577,5.7577,5.7577,5.72,5.6482,5.6342,5.5967,5.518,5.518,5.5007,5.4728,5.4655,5.4482,5.4137,5.4103,5.3997,5.3897,5.3897,5.3897,5.3897,5.3897,5.393,5.393,5.393,5.3135,5.1347,5.1711,5.2307,5.287,5.3434,5.3897,5.393,5.403,5.4162,5.4229,5.4394,5.4527,5.4593,5.5123,5.5487,5.5521,5.6017,5.6382,5.6614,5.7111,5.7475,5.7707,5.8038,5.8502,5.8403,5.7972,5.7839,5.8403,5.8601,5.8601,5.8436,5.8568,5.8469,5.8601,5.8502,5.8403,5.8403,5.8403,5.8502,5.8701,5.8734,5.8833,5.8999,5.8899,5.9032,5.9065,5.9098,5.9032,5.9065,5.8767,5.8601,6.0107,5.9943,5.9783,5.9586,5.9386,5.9251,5.8978,5.8702,5.8084,5.7707,5.7604,5.7465,5.7326,5.7185,5.7114,5.6972,5.69,5.69,5.69,5.69,5.69,5.69,5.69,5.6867,5.707,5.7374,5.7374,5.7543,5.7848,5.7881,5.8084,5.849,5.8896,5.9099,5.9099,5.9099,5.9099,5.9066,5.8287,5.7881,5.7881,5.7808,5.7493,5.7083,5.7009,5.6727,5.617,5.617,5.5821,5.5306,5.5198,5.5032,5.456,5.4527,5.4527,5.4527,5.4527,5.4527,5.4527,5.4527,5.4527,5.4527,5.4527,5.4129,5.3135,5.3334,5.3665,5.3997,5.4328,5.4527,5.4527,5.4891,5.5123,5.5123,5.5454,5.5686,5.5719,5.5951,5.6349,5.6746,5.7077,5.7442,5.7839,5.8204,5.8403,5.8436,5.8734,5.9032,5.9429,5.9231,5.8933,5.8933,5.8899,5.8899,5.8933,5.8899,5.8899,5.8899,5.8899,5.8899,5.8899,5.8899,5.9098,5.9429,5.9496,5.9661,5.996,6.0092,6.0092,6.0092,6.0092,6.0092,6.0092,6.0092,5.9827,5.9879,5.9683,5.952,5.9319,5.9115,5.884,5.8631,5.8419,5.8385,5.8419,5.8348,5.8243,5.8171,5.8099,5.7954,5.7881,5.7881,5.7881,5.7881,5.7881,5.7881,5.7881,5.7881,5.7881,5.7983,5.8118,5.8152,5.822,5.8355,5.8389,5.8693,5.9268,5.9844,6.008,6.008,6.008,6.008,6.0013,5.8964,5.8389,5.8315,5.8167,5.8018,5.7943,5.7792,5.764,5.7409,5.7409,5.7,5.6183,5.6117,5.5786,5.5057,5.499,5.5024,5.5024,5.5024,5.5024,5.499,5.5024,5.499,5.499,5.5024,5.5024,5.5024,5.5024,5.4924,5.4825,5.4957,5.5057,5.5156,5.5521,5.5918,5.6117,5.6581,5.6978,5.7144,5.7177,5.7376,5.7939,5.8038,5.827,5.8767,5.9065,5.9231,5.9396,5.9396,5.9661,6.0125,6.0258,5.9993,5.9595,5.9396,5.9463,5.9396,5.9463,5.9463,5.9396,5.9463,5.9529,5.9529,5.9463,5.9595,6.0125,6.0258,6.0423,6.0953,6.1053,6.102,6.0953,6.092,6.102,6.0986,6.0986,6.0788,5.9652,5.9386,5.9218,5.8875,5.8665,5.8595,5.8487,5.8311,5.8205,5.8099,5.8056,5.8133,5.8133,5.7954,5.7881,5.7881,5.7881,5.7881,5.7915,5.7915,5.7881,5.7881,5.7949,5.7915,5.8254,5.8829,5.8896,5.9201,5.9742,5.9844,5.9911,6.0013,6.008,6.0148,6.0148,6.0148,6.0114,6.0114,5.9979,5.9836,5.9607,5.9607,5.9376,5.9064,5.8985,5.894,5.8681,5.8668,5.8336,5.7674,5.7574,5.7243,5.6581,5.6481,5.6481,5.6481,5.6481,5.6481,5.6481,5.6481,5.6481,5.6481,5.6481,5.6481,5.6481,5.6481,5.6216,5.5852,5.615,5.6415,5.6514,5.6581,5.6912,5.7442,5.7608,5.7939,5.8469,5.8701,5.8734,5.8767,5.88,5.8833,5.9065,5.9562,6.0158,6.0622,6.0622,6.0688,6.0821,6.0887,6.0887,6.0821,6.0854,6.0821,6.0788,6.0887,6.0688,6.0755,6.0854,6.0721,6.0655,6.0721,6.092,6.0688,6.092,6.0986,6.1053,6.1119,6.1119,6.1119,6.1119,6.1119,6.1119,6.1119,6.092,6.0704,6.0462,6.0251,5.9967,5.9643,5.9643,5.9497,5.9349,5.9349,5.9275,5.9201,5.9275,5.8801,5.7881,5.7881,5.7881,5.7915,5.8355,5.8558,5.8592,5.8998,5.9201,5.9201,5.9201,5.937,5.9641,5.9641,5.981,6.0148,6.0588,6.0791,6.0858,6.1231,6.1467,6.1467,6.1467,6.1434,6.1467,6.1467,6.1278,6.0863,6.0047,5.9533,5.9218,5.9059,5.898,5.8899,5.8899,5.8767,5.8469,5.8436,5.8303,5.8005,5.8005,5.8005,5.8005,5.8005,5.8005,5.8005,5.8005,5.8005,5.8005,5.8005,5.8005,5.8005,5.8005,5.7873,5.7608,5.7442,5.7475,5.7906,5.8005,5.8138,5.8403,5.8436,5.8568,5.8833,5.8899,5.9032,5.9429,5.9562,5.9728,6.0125,6.0456,6.0788,6.1086,6.1119,6.1119,6.1119,6.1119,6.1119,6.1119,6.1119,6.1119,6.1119,6.1119,6.1119,6.1119,6.1119,6.1119,6.1119,6.1119,6.1086,6.1119,6.1152,6.1152,6.1086,6.1119,6.1119,6.1185,6.1119,6.1119,6.1119,6.1119,6.1119,6.136,6.1146,6.093,6.0637,6.034,6.034,6.0265,6.0114,6.008,6.008,6.008,6.008,5.9539,5.8592,5.849,5.849,5.8558,5.9066,5.9336,5.937,5.9877,6.008,6.008,6.008,6.0216,6.0419,6.0452,6.052,6.0757,6.1298,6.1603,6.167,6.2144,6.2415,6.2415,6.2415,6.2415,6.2381,6.2415,6.2144,6.1656,6.0671,5.9977,5.9738,5.9577,5.9496,5.9496,5.9496,5.9396,5.9198,5.9198,5.9098,5.8899,5.8899,5.8899,5.8899,5.8899,5.8899,5.8899,5.8899,5.8899,5.8899,5.8899,5.8899,5.8899,5.8899,5.8999,5.9131,5.8734,5.8601,5.88,5.8899,5.8966,5.9164,5.9198,5.9231,5.9496,5.9496,5.9761,6.0225,6.0324,6.049,6.0953,6.1086,6.1086,6.1119,6.1119,6.1119,6.1119,6.1119,6.1119,6.1119,6.1251,6.1318,6.1185,6.1119,6.1119,6.1119,6.1119,6.1119,6.1119,6.1119,6.1119,6.1119,6.1218,6.1417,6.1616,6.155,6.1682,6.1682,6.1682,6.1682,6.1881,6.1748,6.1748,6.118,6.0998,6.0597,6.0442,6.0148,6.0182,6.0148,6.025,6.0182,6.0148,6.0216,6.0182,6.008,6.0013,6.0013,5.9979,5.9979,6.0013,6.008,6.008,6.0182,6.0114,6.008,6.0114,6.052,6.1197,6.1231,6.1569,6.2144,6.2279,6.2347,6.2347,6.2381,6.2415,6.2415,6.2415,6.2415,6.2415,6.2415,6.2223,6.179,6.1642,6.1298,6.097,6.0953,6.092,6.0953,6.0986,6.0655,5.9993,5.996,5.9661,5.9032,5.8966,5.8999,5.8966,5.8966,5.8966,5.8999,5.9032,5.9032,5.8966,5.9098,5.8966,5.9131,5.9131,5.9363,5.9893,5.986,5.9628,5.9164,5.9164,5.9363,5.986,5.996,6.0258,6.0854,6.0788,6.0986,6.102,6.0953,6.0986,6.1086,6.1119,6.1152,6.1152,6.1152,6.1218,6.1351,6.1251,6.1285,6.1417,6.1682,6.1914,6.1318,6.145,6.1384,6.1417,6.1583,6.1285,6.1152,6.1119,6.1185,6.1351,6.1815,6.2113,6.2245,6.2477,6.2808,6.2908,6.2842,6.2842,6.2643,6.3007,6.2941,6.2404,6.2029,6.18,6.1646,6.1569,6.1569,6.1569,6.1569,6.1569,6.1569,6.1569,6.1569,6.1569,6.1569,6.1569,6.1028,6.0216,6.0622,6.0892,6.0926,6.1332,6.1569,6.1569,6.1569,6.1704,6.1941,6.2009,6.2144,6.2347,6.2415,6.2415,6.2415,6.2415,6.2415,6.2415,6.2415,6.2415,6.2415,6.2415,6.2144,6.1823,6.1709,6.1499,6.1086,6.1119,6.1119,6.1119,6.1119,6.0986,6.0721,6.0721,6.0589,6.0357,6.0324,6.0324,6.0324,6.0324,6.0324,6.0291,6.0324,6.0324,6.0324,6.0324,6.0258,6.0291,6.0324,6.0423,6.0655,6.0721,6.0556,6.0423,6.0324,6.0423,6.0622,6.0721,6.0788,6.102,6.1119,6.1119,6.1119,6.1119,6.1119,6.1218,6.1119,6.1285,6.1682,6.1781,6.198,6.2378,6.2477,6.2411,6.251,6.2676,6.2775,6.2577,6.251,6.251,6.251,6.2543,6.251,6.2444,6.2312,6.2378,6.2312,6.2676,6.2908,6.304,6.3173,6.3537,6.3504,6.3471,6.3603,6.3272,6.357,6.3504,6.2923,6.2615,6.2459,6.2415,6.2415,6.2415,6.2415,6.2415,6.2415,6.2415,6.2415,6.2415,6.2415,6.2415,6.2415,6.1873,6.096,6.14,6.1637,6.1704,6.2178,6.2415,6.2415,6.2415,6.2415,6.2381,6.2415,6.2415,6.2415,6.2415,6.2415,6.2415,6.2415,6.2415,6.2415,6.2415,6.2415,6.2415,6.2618,6.2594,6.2273,6.2312,6.2282,6.1983,6.1815,6.155,6.1152,6.1119,6.1119,6.1119,6.1119,6.1119,6.1119,6.1119,6.1119,6.1119,6.1086,6.1119,6.1119,6.1119,6.1086,6.1119,6.1119,6.1119,6.1119,6.1119,6.1119,6.1119,6.1119,6.1119,6.1152,6.1285,6.1351,6.1185,6.1119,6.1119,6.1119,6.1119,6.1218,6.1483,6.1748,6.1815,6.1815,6.1848,6.208,6.2477,6.251,6.2775,6.314,6.3272,6.3272,6.3305,6.3471,6.3603,6.3637,6.3703,6.3338,6.3239,6.3173,6.3305,6.3438,6.3405,6.3405,6.3372,6.3471,6.367,6.3835,6.3935,6.3935,6.3902,6.4167,6.4399,6.42,6.41,6.4013,6.2615,6.2381,6.2415,6.2415,6.2415,6.2415,6.2415,6.2415,6.2415,6.2415,6.2415,6.2415,6.2415,6.2415,6.2415,6.2347,6.2212,6.2245,6.2279,6.2313,6.2381,6.2415,6.2415,6.2415,6.2415,6.2415,6.2415,6.2415,6.2415,6.2415,6.2415,6.2415,6.2482,6.255,6.2448,6.2584,6.255,6.2685,6.3226,6.3451,6.3276,6.35,6.3635,6.3448,6.3192,6.251,6.1285,6.1251,6.1318,6.1251,6.1185,6.1119,6.1119,6.1119,6.1119,6.1119,6.1119,6.1119,6.1119,6.1119,6.1119,6.1119,6.1119,6.1152,6.1251,6.1218,6.1251,6.1384,6.1351,6.1251,6.1384,6.1815,6.1914,6.1285,6.1318,6.1384,6.1285,6.1185,6.1417,6.208,6.2643,6.3173,6.3206,6.304,6.304,6.3206,6.3272,6.3372,6.357,6.3637,6.3405,6.3537,6.3968,6.4365,6.463,6.4796,6.4233,6.3802,6.3703,6.3703,6.3835,6.3868,6.3935,6.3968,6.42,6.4399,6.4664,6.4763,6.4862,6.4895,6.5127,6.5005,6.484,6.4652,6.4817,6.2459,6.2381,6.2415,6.2415,6.2415,6.2415,6.2415,6.2415,6.2415,6.2415,6.2415,6.2415,6.2415,6.2415,6.2415,6.2415,6.2415,6.2415,6.2415,6.2415,6.2415,6.2415,6.2415,6.2415,6.2415,6.2415,6.2415,6.2415,6.2415,6.2415,6.2415,6.2482,6.2922,6.3159,6.3193,6.3632,6.3903,6.3937,6.414,6.416,6.3949,6.3869,6.3869,6.3615,6.3444,6.3007,6.2643,6.261,6.261,6.2577,6.2113,6.1616,6.1251,6.1119,6.1119,6.1119,6.1119,6.1119,6.1119,6.1152,6.1185,6.1152,6.1152,6.1384,6.1781,6.1848,6.2047,6.2444,6.261,6.261,6.2643,6.2775,6.261,6.1914,6.2278,6.251,6.2477,6.2543,6.2709,6.2875,6.314,6.3272,6.3305,6.3305,6.357,6.3968,6.4001,6.41,6.4564,6.4597,6.4763,6.4796,6.5061,6.4995,6.5094,6.5127,6.4862,6.4531,6.4432,6.4299,6.4365,6.4432,6.4498,6.4564,6.4829,6.5028,6.5293,6.5425,6.5425,6.5459,6.5336,6.5303,6.5156,6.5231,6.5337,6.2415,6.2415,6.2415,6.2415,6.2415,6.2415,6.2415,6.2415,6.2415,6.2415,6.2415,6.2415,6.2415,6.2415,6.2415,6.2415,6.2415,6.2415,6.2415,6.2415,6.2415,6.2415,6.2415,6.2415,6.2415,6.2415,6.2415,6.255,6.2821,6.2821,6.2956,6.3294,6.37,6.3903,6.3937,6.4343,6.4613,6.4613,6.485,6.4904,6.4806,6.4757,6.4638,6.45,6.4241,6.4067,6.4067,6.4067,6.3835,6.3338,6.2808,6.2345,6.1947,6.1947,6.1914,6.1914,6.1914,6.1947,6.1914,6.198,6.1914,6.1914,6.1914,6.2113,6.251,6.2577,6.2842,6.3173,6.3239,6.3272,6.3272,6.357,6.3438,6.3073,6.3107,6.3272,6.3305,6.3537,6.367,6.3736,6.3935,6.4034,6.4067,6.41,6.4233,6.4664,6.473,6.4796,6.5293,6.5359,6.5425,6.5425,6.5326,6.5293,6.5359,6.5392,6.5392,6.5293,6.5194,6.5094,6.5061,6.5061,6.5094,6.5061,6.5227,6.5194,6.5425,6.5425,6.5425,6.5435,6.5676,6.5816,6.5831,6.5903,6.5975,6.2415,6.2415,6.2415,6.2415,6.2415,6.2415,6.2415,6.2415,6.2415,6.2415,6.2415,6.2415,6.2415,6.2415,6.2415,6.2415,6.2415,6.255,6.2584,6.2584,6.2618,6.2685,6.2584,6.2584,6.2651,6.2719,6.2685,6.2956,6.3531,6.3565,6.3903,6.4377,6.4546,6.4647,6.4715,6.4715,6.4918,6.5019,6.5459,6.5764,6.5764,6.5883,6.5995,6.5962,6.5492,6.5227,6.5194,6.516,6.4664,6.357,6.3372,6.3272,6.3239,6.3272,6.3107,6.3073,6.3239,6.314,6.3206,6.304,6.3073,6.304,6.304,6.3305,6.3305,6.3338,6.3438,6.3603,6.3603,6.3537,6.367,6.4034,6.4365,6.4332,6.3935,6.3637,6.3504,6.4067,6.4365,6.4531,6.4995,6.5359,6.5194,6.5227,6.526,6.5293,6.5293,6.5326,6.5425,6.5492,6.5492,6.5591,6.579,6.6022,6.622,6.622,6.6254,6.6254,6.6121,6.5955,6.5856,6.5823,6.5955,6.5889,6.5724,6.5624,6.569,6.5832,6.594,6.6113,6.6351,6.6429,6.6434,6.6406,6.6282,6.2415,6.2415,6.2415,6.2415,6.2415,6.2415,6.2415,6.2415,6.2415,6.2415,6.2415,6.2415,6.2448,6.2415,6.2448,6.2415,6.2584,6.299,6.3226,6.3294,6.3802,6.3666,6.3294,6.3226,6.3497,6.3869,6.3869,6.414,6.4309,6.4309,6.4444,6.4613,6.5189,6.5425,6.5459,6.5899,6.6237,6.6237,6.6373,6.6508,6.6424,6.622,6.6095,6.6095,6.5658,6.5425,6.5425,6.5425,6.5028,6.42,6.41,6.3802,6.3405,6.3372,6.3405,6.3405,6.3338,6.3305,6.3305,6.3338,6.3305,6.3272,6.3405,6.3504,6.4034,6.41,6.4332,6.4664,6.4862,6.4796,6.4829,6.4995,6.5127,6.5127,6.4862,6.4763,6.4796,6.4995,6.516,6.5194,6.5293,6.5392,6.5492,6.5492,6.5492,6.5525,6.5558,6.5558,6.5757,6.6022,6.622,6.6452,6.6651,6.6949,6.7115,6.7115,6.7148,6.7181,6.7082,6.6883,6.6784,6.6717,6.6949,6.7115,6.6784,6.6651,6.6792,6.6931,6.7004,6.6752,6.6729,6.6799,6.6576,6.6513,6.629,6.2189,6.2144,6.2144,6.211,6.2189,6.2189,6.2268,6.2381,6.2415,6.2584,6.2821,6.2854,6.3024,6.3294,6.3328,6.3328,6.3396,6.3768,6.3971,6.4038,6.4377,6.4309,6.4038,6.3971,6.4208,6.4546,6.4613,6.4749,6.4986,6.5053,6.5222,6.5595,6.5933,6.617,6.617,6.6542,6.6812,6.6812,6.6812,6.6812,6.6728,6.6354,6.6095,6.6009,6.5658,6.5425,6.5425,6.5425,6.5194,6.4895,6.4796,6.4597,6.4233,6.4167,6.42,6.4167,6.4167,6.42,6.4167,6.4167,6.4167,6.42,6.4167,6.4365,6.473,6.4829,6.5061,6.5293,6.5392,6.5425,6.5425,6.5425,6.5425,6.5425,6.569,6.5724,6.5492,6.5359,6.5392,6.5425,6.5425,6.5558,6.5823,6.5856,6.6055,6.6287,6.6485,6.6485,6.6519,6.6784,6.7016,6.7181,6.7314,6.7479,6.7579,6.7612,6.7678,6.7744,6.7976,6.7777,6.7612,6.7512,6.7546,6.7678,6.7678,6.7586,6.7592,6.7471,6.7311,6.7123,6.7096,6.7133,6.7037,6.6777,6.6645,6.1837,6.1709,6.1709,6.179,6.203,6.2064,6.2392,6.255,6.2719,6.3057,6.3531,6.3632,6.3903,6.4613,6.4309,6.4512,6.4512,6.4613,6.4816,6.4884,6.5019,6.4952,6.4986,6.4749,6.4884,6.5019,6.4884,6.5256,6.5696,6.5797,6.6136,6.6474,6.6711,6.6779,6.6677,6.6812,6.6812,6.6812,6.6812,6.6812,6.6796,6.6522,6.6363,6.6276,6.6157,6.5889,6.5856,6.579,6.5724,6.5657,6.5525,6.5326,6.5326,6.5359,6.5326,6.526,6.5194,6.5227,6.5359,6.5194,6.5293,6.5227,6.526,6.5425,6.5326,6.5293,6.5326,6.5392,6.5492,6.569,6.5856,6.5757,6.5823,6.5989,6.6353,6.6254,6.5823,6.5657,6.5657,6.5624,6.569,6.5989,6.6386,6.6684,6.685,6.6949,6.7115,6.7082,6.7214,6.7479,6.7645,6.7777,6.7877,6.7943,6.8009,6.8009,6.8109,6.8208,6.8639,6.8639,6.8374,6.8208,6.795,6.7983,6.822,6.8126,6.7772,6.771,6.7552,6.7523,6.759,6.7685,6.7677,6.7351,6.7085,6.1709,6.1709,6.1709,6.187,6.2098,6.2636,6.31,6.3328,6.3869,6.4106,6.4343,6.4377,6.4478,6.4647,6.4749,6.4613,6.4816,6.5222,6.573,6.6305,6.6339,6.6339,6.617,6.573,6.5797,6.6102,6.6305,6.6406,6.6508,6.6508,6.6643,6.6779,6.6812,6.6812,6.6812,6.688,6.6812,6.6812,6.6846,6.6948,6.6998,6.7026,6.6966,6.6945,6.6965,6.7082,6.7148,6.7148,6.7148,6.6883,6.6154,6.5591,6.5591,6.5558,6.5558,6.5591,6.5525,6.5492,6.5459,6.5558,6.5459,6.5558,6.5624,6.5425,6.5425,6.5492,6.5492,6.5525,6.5922,6.6485,6.6883,6.7115,6.7016,6.7016,6.7214,6.7314,6.7181,6.7082,6.7016,6.7049,6.7049,6.7214,6.7347,6.738,6.7512,6.7645,6.7678,6.7645,6.791,6.8241,6.8341,6.8473,6.8672,6.8771,6.8771,6.8771,6.8771,6.8771,6.9103,6.924,6.8942,6.8876,6.8743,6.8847,6.9082,6.8726,6.8205,6.8209,6.8112,6.811,6.8009,6.7806,6.7631,6.7593,6.7285,6.1465,6.145,6.175,6.213,6.2508,6.318,6.368,6.4025,6.441,6.4816,6.5053,6.5121,6.529,6.5628,6.5628,6.5662,6.5696,6.6,6.6406,6.6745,6.6779,6.6812,6.6779,6.6474,6.6474,6.6812,6.6812,6.6812,6.6812,6.6812,6.6779,6.6812,6.6846,6.6812,6.6914,6.7151,6.732,6.7455,6.7726,6.7895,6.7911,6.7766,6.7558,6.7412,6.7505,6.7612,6.7579,6.7612,6.7612,6.7446,6.6883,6.6452,6.6452,6.6452,6.6452,6.6452,6.6452,6.6452,6.6452,6.6452,6.6485,6.6419,6.6452,6.6452,6.6452,6.6452,6.6452,6.6519,6.6817,6.7247,6.7579,6.7612,6.7645,6.7711,6.7943,6.8109,6.8076,6.7844,6.7612,6.7612,6.7546,6.7777,6.7943,6.8109,6.8407,6.8639,6.8804,6.8771,6.8837,6.9136,6.9136,6.9268,6.95,6.9633,6.9633,6.9599,6.9533,6.95,6.95,6.9537,6.931,6.9376,6.9379,6.9349,6.922,6.9026,6.8601,6.8666,6.8401,6.8104,6.7802,6.7663,6.7388,6.7213,6.6901,6.1418,6.1318,6.2047,6.2565,6.3082,6.3752,6.4337,6.4783,6.4884,6.5392,6.5764,6.5865,6.617,6.6643,6.6711,6.6779,6.6779,6.6745,6.6779,6.6812,6.6812,6.6812,6.6779,6.6745,6.6745,6.6812,6.6812,6.6812,6.6812,6.6846,6.6914,6.6981,6.7015,6.7218,6.7354,6.7726,6.8098,6.8166,6.8571,6.8876,6.889,6.864,6.8359,6.8168,6.8109,6.8175,6.8175,6.8142,6.8042,6.7943,6.7943,6.7943,6.791,6.7678,6.7612,6.7546,6.7446,6.738,6.7347,6.7446,6.7479,6.7612,6.7579,6.7579,6.7512,6.7413,6.738,6.7512,6.7645,6.7877,6.7943,6.8142,6.8109,6.8142,6.8572,6.8804,6.8771,6.8307,6.8175,6.8109,6.8341,6.8572,6.8738,6.8871,6.9268,6.9599,6.9732,6.9798,6.9798,6.9765,6.9666,6.9633,6.9732,6.9765,6.9798,6.9798,6.9798,6.9798,6.9798,6.9607,6.9511,6.9382,6.9285,6.9188,6.8994,6.8797,6.86,6.8401,6.8101,6.7797,6.7491,6.7317,6.7005,6.6691,6.6406,6.2098,6.208,6.2775,6.333,6.3819,6.4522,6.5077,6.5628,6.6102,6.6474,6.6576,6.6609,6.6643,6.6812,6.6812,6.6812,6.6812,6.6812,6.6812,6.6846,6.688,6.6914,6.6948,6.7083,6.6981,6.6812,6.6914,6.7015,6.688,6.6846,6.732,6.7624,6.7726,6.7963,6.8436,6.8876,6.8876,6.891,6.918,6.9316,6.933,6.9278,6.9203,6.923,6.9169,6.9235,6.9301,6.9368,6.9434,6.9434,6.9434,6.9368,6.9103,6.8307,6.7844,6.7811,6.7844,6.791,6.7877,6.7744,6.7678,6.7612,6.7777,6.7744,6.7711,6.7711,6.791,6.7943,6.8307,6.8738,6.9368,6.9235,6.9368,6.9434,6.9401,6.9533,6.95,6.9368,6.9202,6.9103,6.9268,6.9301,6.9334,6.9368,6.9533,6.9699,6.9732,6.9798,6.9798,6.9798,6.9765,6.9732,6.9765,6.9798,6.9798,6.9798,6.9798,6.9798,6.9703,6.9607,6.9382,6.9188,6.8994,6.8797,6.86,6.8501,6.8201,6.8101,6.7797,6.7491,6.7109,6.6828,6.6586,6.6268,6.5933,6.2378,6.2808,6.3677,6.4148,6.4622,6.5377,6.5935,6.6305,6.6677,6.6812,6.6812,6.6812,6.6812,6.6812,6.6812,6.6812,6.6812,6.6812,6.6812,6.6846,6.7151,6.7387,6.7489,6.776,6.7963,6.803,6.7996,6.7726,6.7455,6.7861,6.8132,6.8402,6.8504,6.8741,6.9113,6.9451,6.962,6.9722,6.9992,7.0195,7.0107,7.0119,6.9936,6.9855,6.9798,6.9798,6.9798,6.9798,6.9765,6.9765,6.9765,6.9798,6.9566,6.9235,6.8738,6.8705,6.8672,6.8705,6.8738,6.8771,6.8804,6.8771,6.8705,6.8738,6.8738,6.8804,6.8672,6.8804,6.8937,6.9401,6.9699,6.9798,6.9798,6.9798,6.9798,6.9798,6.9798,6.9798,6.9798,6.9798,6.9699,6.9633,6.9666,6.9699,6.9765,6.9798,6.9798,6.9831,6.9864,6.9898,6.9964,7.0063,7.0129,7.0129,7.0129,7.0163,7.0163,7.0001,6.9968,6.9775,6.9516,6.9288,6.8763,6.8301,6.8101,6.8359,6.8032,6.7829,6.742,6.7173,6.6923,6.6669,6.6192,6.587,6.5654,6.2941,6.3657,6.4527,6.5053,6.5325,6.6152,6.6558,6.6728,6.6812,6.6812,6.6812,6.6812,6.6812,6.6812,6.6812,6.6812,6.6846,6.6948,6.7083,6.7252,6.7793,6.8132,6.8335,6.8673,6.8944,6.8842,6.9147,6.891,6.8368,6.8639,6.9045,6.9282,6.9316,6.9451,6.9722,7.0195,7.0364,7.0601,7.0939,7.1312,7.1131,7.0733,7.033,6.9893,6.9798,6.9798,6.9798,6.9798,6.9798,6.9798,6.9798,6.9798,6.9798,6.9798,6.9798,6.9798,6.9798,6.9798,6.9765,6.9699,6.9566,6.9533,6.9732,6.9765,6.9699,6.9566,6.9666,6.9798,6.9765,6.9732,6.9798,6.9798,6.9798,6.9798,6.9798,6.9798,6.9798,6.9798,6.9798,6.9831,6.9898,6.9931,6.9964,6.9798,6.9798,6.9798,6.9798,7.0096,7.0129,7.0196,7.0295,7.0428,7.0527,7.0527,7.0593,7.0693,7.0629,7.0598,7.0468,7.037,6.9911,6.9516,6.8986,6.8646,6.8505,6.8563,6.8075,6.7676,6.7546,6.7324,6.6953,6.6695,6.6371,6.6133,6.5923,6.4133,6.4332,6.5259,6.5821,6.5962,6.6354,6.6592,6.6812,6.6812,6.6812,6.6812,6.6812,6.6846,6.688,6.688,6.6846,6.7083,6.7523,6.7793,6.7929,6.8571,6.8944,6.8977,6.9011,6.935,6.9485,6.9857,6.9586,6.9248,6.9248,6.9519,6.9958,7.0128,7.0331,7.0737,7.0906,7.1176,7.1176,7.1244,7.1222,7.0916,7.0608,7.0363,7.0176,6.9893,6.9798,6.9798,6.9798,6.9798,6.9798,6.9798,6.9798,6.9798,6.9798,6.9798,6.9798,6.9798,6.9798,6.9798,6.9798,6.9798,6.9798,6.9798,6.9798,6.9798,6.9798,6.9798,6.9798,6.9798,6.9864,6.9898,6.9864,6.9831,6.9964,7.0129,7.003,6.9964,7.0394,7.0328,7.0361,7.0593,7.0328,7.0196,6.9964,6.9798,6.9798,6.9898,7.0262,7.056,7.0693,7.0825,7.1024,7.1123,7.1123,7.0993,7.1189,7.1061,7.1095,7.0897,7.0798,7.0368,6.9899,6.9853,6.9575,6.923,6.8818,6.8415,6.8107,6.7913,6.7557,6.7167,6.6976,6.6756,6.6528,6.5971,6.4962,6.4995,6.5734,6.6009,6.6182,6.6473,6.6728,6.6812,6.6812,6.6812,6.6812,6.6812,6.7015,6.7354,6.7421,6.7726,6.8098,6.8436,6.8571,6.8741,6.9316,6.9722,6.9823,7.0128,7.0364,7.0331,7.0601,7.0737,7.0364,7.0331,7.0567,7.0703,7.0804,7.0906,7.1312,7.1312,7.1312,7.1278,7.1312,7.1131,7.0916,7.0608,7.0456,7.0209,7.0021,6.9864,6.9864,6.9798,6.9798,6.9798,6.9798,6.9798,6.9798,6.9798,6.9798,6.9831,7.0229,7.0229,6.9898,6.9831,6.9898,6.9831,6.9831,6.9798,6.9798,6.9864,6.9864,6.9798,6.9798,6.9997,7.0328,7.0394,7.0693,7.0825,7.0825,7.0891,7.0891,7.1024,7.1223,7.1223,7.1256,7.109,7.1024,7.1123,7.0991,7.0858,7.0924,7.1189,7.1388,7.1488,7.162,7.1753,7.1819,7.1819,7.1655,7.1655,7.1458,7.1457,7.1058,7.0855,7.0685,7.0512,7.0357,6.9872,6.9159,6.8806,6.8608,6.8327,6.8014,6.7634,6.7311,6.7156,6.6821,6.6345,6.6083,6.5514,6.5514,6.5922,6.6095,6.6182,6.6643,6.6812,6.6812,6.6812,6.6812,6.688,6.7049,6.7523,6.8064,6.8233,6.847,6.9045,6.9282,6.9383,6.962,7.006,7.0432,7.0601,7.1007,7.121,7.1312,7.1142,7.1176,7.121,7.121,7.1176,7.1312,7.121,7.1278,7.1278,7.1312,7.1312,7.1312,7.1312,7.1222,7.1041,7.0968,7.0724,7.0637,7.042,7.0361,7.0361,7.0394,7.0428,7.0428,7.0494,7.056,7.0527,7.056,7.056,7.0659,7.0991,7.0991,7.0693,7.0527,7.0361,7.0328,7.0328,7.056,7.0494,7.0361,7.0361,7.0527,7.0527,7.0759,7.0991,7.1156,7.1355,7.162,7.1819,7.1951,7.2018,7.1885,7.1786,7.172,7.1852,7.2183,7.2216,7.2448,7.2349,7.2018,7.2018,7.2117,7.225,7.2316,7.2581,7.2746,7.278,7.2713,7.2547,7.2348,7.2116,7.1817,7.1411,7.12,7.1155,7.0906,7.0717,7.0064,6.9237,6.9083,6.9207,6.8638,6.8102,6.8106,6.7896,6.7365,6.6838,6.6391,6.6247,6.578,6.578,6.6042,6.6215,6.6507,6.6728,6.6812,6.6812,6.6812,6.6846,6.7015,6.7523,6.8267,6.8842,6.9011,6.9079,6.9214,6.9823,7.006,7.0364,7.0804,7.1041,7.1176,7.121,7.1312,7.1312,7.1312,7.1312,7.1312,7.1312,7.1312,7.1312,7.1312,7.1312,7.1379,7.1447,7.1481,7.1515,7.1582,7.1582,7.1536,7.1497,7.1459,7.1532,7.1712,7.1852,7.1819,7.1653,7.1554,7.1554,7.1521,7.1521,7.1455,7.1488,7.1455,7.1521,7.1753,7.1786,7.1686,7.1554,7.172,7.1786,7.172,7.1521,7.1455,7.172,7.1786,7.1587,7.1421,7.1653,7.1819,7.1951,7.2051,7.2349,7.2581,7.2548,7.2548,7.2415,7.2316,7.2216,7.2448,7.2879,7.3078,7.3243,7.3111,7.278,7.268,7.2746,7.3078,7.3243,7.3608,7.3807,7.3873,7.3805,7.3635,7.3266,7.27,7.2429,7.2151,7.1999,7.1907,7.1585,7.0863,7.0599,6.9888,6.9816,6.9485,6.8758,6.8374,6.8636,6.8408,6.76,6.7183,6.6794,6.6764,6.5955,6.6249,6.6302,6.6421,6.6507,6.6728,6.6812,6.6812,6.6812,6.7083,6.7557,6.8301,6.9079,6.962,6.9823,7.006,7.0432,7.0703,7.0838,7.0939,7.1176,7.1312,7.1312,7.1312,7.1312,7.1312,7.1312,7.1312,7.1312,7.1379,7.1312,7.1312,7.1447,7.1312,7.1379,7.1785,7.1954,7.2124,7.236,7.2631,7.2607,7.2371,7.229,7.2262,7.2011,7.1985,7.1985,7.1985,7.2018,7.2051,7.2084,7.2117,7.215,7.215,7.215,7.2216,7.2448,7.2647,7.2581,7.2316,7.2018,7.2018,7.1985,7.2051,7.2183,7.2051,7.2018,7.1985,7.2117,7.2283,7.2647,7.2713,7.2846,7.3177,7.3276,7.3177,7.3144,7.3011,7.3045,7.3045,7.331,7.3707,7.384,7.3939,7.374,7.3508,7.3442,7.3409,7.3674,7.3873,7.4072,7.407,7.407,7.3899,7.3694,7.3454,7.3142,7.2932,7.2615,7.2294,7.197,7.136,7.0727,7.0582,7.0243,6.9641,6.9116,6.876,6.8439,6.8444,6.8148,6.7638,6.7305,6.7121,6.6999,6.6129,6.6507,6.6592,6.6592,6.6592,6.6728,6.6948,6.7117,6.7151,6.7726,6.8605,6.9214,6.9823,7.0364,7.0534,7.0737,7.1109,7.1244,7.1278,7.1278,7.1278,7.1312,7.1312,7.1312,7.1312,7.1312,7.1345,7.1345,7.1718,7.165,7.1887,7.2022,7.1921,7.1954,7.1853,7.2326,7.2732,7.2868,7.3138,7.3477,7.335,7.3211,7.306,7.3031,7.2876,7.278,7.2813,7.2879,7.2813,7.2813,7.278,7.2713,7.268,7.2647,7.2647,7.2813,7.3045,7.3376,7.3243,7.3011,7.2647,7.2846,7.2813,7.2746,7.2647,7.2647,7.2879,7.2813,7.2746,7.2846,7.3409,7.3442,7.3508,7.3773,7.3807,7.3773,7.3807,7.3773,7.384,7.3906,7.4105,7.4072,7.4072,7.4105,7.4005,7.384,7.3807,7.3773,7.3906,7.4038,7.4003,7.407,7.3899,7.3797,7.3591,7.3247,7.2932,7.2615,7.2294,7.2079,7.1644,7.106,7.0501,7.0275,6.9818,6.9356,6.8828,6.8382,6.8176,6.8148,6.7699,6.7365,6.7243,6.6999,6.6999,6.6302,6.6507,6.6728,6.6812,6.6796,6.6846,6.7218,6.776,6.7963,6.8707,6.9823,7.0128,7.0534,7.1075,7.1109,7.121,7.1244,7.1312,7.1312,7.1312,7.1312,7.1312,7.1312,7.1312,7.1379,7.1345,7.1481,7.1819,7.236,7.2394,7.2699,7.3105,7.3105,7.2969,7.2496,7.3105,7.3443,7.3477,7.3578,7.3713,7.3789,7.385,7.3763,7.3833,7.3774,7.3674,7.3674,7.3674,7.3641,7.3674,7.374,7.374,7.374,7.3807,7.3807,7.3906,7.3972,7.4072,7.4072,7.4072,7.3906,7.3807,7.3608,7.3707,7.3939,7.3972,7.384,7.3575,7.3773,7.3906,7.4072,7.4105,7.4105,7.4105,7.4138,7.4171,7.4171,7.4171,7.4171,7.4171,7.4171,7.4171,7.4138,7.4171,7.4138,7.4105,7.4138,7.4171,7.4171,7.407,7.3968,7.3866,7.3694,7.3454,7.3247,7.3037,7.2688,7.2262,7.197,7.1753,7.1314,7.0838,7.0388,6.9933,6.9472,6.8889,6.8535,6.8179,6.7939,6.7699,6.7335,6.7121,6.6999,6.6999,6.6999,6.6473,6.6762,6.6728,6.7083,6.7489,6.7523,6.7692,6.8064,6.8944,6.9722,7.0229,7.0669,7.1041,7.1278,7.1312,7.1312,7.1312,7.1312,7.1312,7.1312,7.1312,7.1312,7.1345,7.1447,7.1616,7.1921,7.209,7.2428,7.3105,7.3138,7.3206,7.351,7.3984,7.3781,7.351,7.3815,7.4221,7.4356,7.4661,7.4965,7.4871,7.469,7.4567,7.4567,7.434,7.4171,7.4171,7.4171,7.4171,7.4171,7.4171,7.4171,7.4171,7.4171,7.4171,7.4171,7.4171,7.4171,7.4171,7.4138,7.4138,7.4171,7.4171,7.4171,7.4171,7.4171,7.4171,7.4171,7.4171,7.4171,7.4138,7.4138,7.4138,7.4138,7.4171,7.4171,7.4171,7.4171,7.4171,7.4171,7.4171,7.4171,7.4171,7.4171,7.4171,7.4171,7.4171,7.4171,7.4171,7.3968,7.3899,7.3661,7.3454,7.3142,7.2932,7.2688,7.2369,7.1938,7.1612,7.1314,7.0869,7.0501,7.0047,6.9588,6.9123,6.8654,6.8179,6.785,6.7487,6.7121,6.6999,6.6999,6.6999,6.6999,6.6999,6.6592,6.6846,6.7083,6.7455,6.7861,6.7895,6.8132,6.8842,6.9992,7.0567,7.0703,7.1109,7.1312,7.1312,7.1312,7.1312,7.1312,7.1312,7.1312,7.1312,7.1312,7.1481,7.1616,7.1751,7.2191,7.2597,7.2868,7.3172,7.3849,7.3883,7.4086,7.4424,7.4695,7.4695,7.4559,7.4762,7.4965,7.51,7.5337,7.554,7.5479,7.5291,7.4935,7.4837,7.4573,7.4171,7.4171,7.4171,7.4171,7.4171,7.4171,7.4171,7.4171,7.4171,7.4171,7.4171,7.4171,7.4171,7.4171,7.4171,7.4171,7.4171,7.4171,7.4171,7.4171,7.4171,7.4171,7.4171,7.4171,7.4171,7.4171,7.4171,7.4171,7.4171,7.4171,7.4171,7.4171,7.4171,7.4171,7.4171,7.4171,7.4171,7.4171,7.4171,7.4171,7.407,7.407,7.407,7.407,7.3764,7.3558,7.3454,7.3247,7.2932,7.2615,7.2401,7.2046,7.1612,7.1282,7.0869,7.0388,7.0047,6.9588,6.924,6.8889,6.8417,6.785,6.7487,6.7243,6.7121,6.6999,6.6999,6.6999,6.6999,6.6999,6.6677,6.6948,6.7624,6.7929,6.7996,6.8233,6.8944,7.0229,7.0973,7.1244,7.1278,7.1244,7.1312,7.1312,7.1312,7.1312,7.1312,7.1312,7.1413,7.1447,7.1548,7.1887,7.2259,7.2462,7.2902,7.3308,7.3612,7.3916,7.4559,7.4627,7.4965,7.5371,7.5405,7.5405,7.5405,7.5439,7.5506,7.554,7.5608,7.5676,7.5614,7.5262,7.5067,7.487,7.4473,7.4272,7.4171,7.4171,7.4171,7.4171,7.4171,7.4171,7.4171,7.4171,7.4171,7.4171,7.4171,7.4171,7.4171,7.4171,7.4171,7.4171,7.4171,7.4171,7.4171,7.4171,7.4171,7.4171,7.4171,7.4171,7.4171,7.4171,7.4171,7.4171,7.4171,7.4171,7.4171,7.4171,7.4171,7.4171,7.4171,7.4171,7.407,7.407,7.3968,7.3764,7.3661,7.3661,7.3558,7.3422,7.3247,7.3142,7.2827,7.2615,7.2294,7.2046,7.1612,7.1171,7.0838,7.0388,6.9933,6.9588,6.924,6.8889,6.8654,6.8179,6.7608,6.7243,6.7121,6.6999,6.6999,6.6999,6.6999,6.6999,6.6999,6.7032,6.759,6.7793,6.8504,6.9553,7.0094,7.0601,7.1041,7.1244,7.1312,7.1312,7.1312,7.1312,7.1312,7.1312,7.1312,7.1312,7.1379,7.1718,7.1853,7.2056,7.2563,7.2935,7.324,7.3646,7.4052,7.439,7.4627,7.5202,7.5337,7.5371,7.5642,7.5676,7.5676,7.5676,7.5676,7.5676,7.5676,7.5676,7.5676,7.5614,7.5262,7.5067,7.487,7.4473,7.4272,7.4171,7.4171,7.4171,7.4171,7.4171,7.4171,7.4171,7.4171,7.4171,7.4171,7.4171,7.4171,7.4171,7.4171,7.4171,7.4171,7.4171,7.4171,7.4171,7.4171,7.4171,7.4171,7.4171,7.4171,7.4171,7.4171,7.4171,7.4171,7.4171,7.4171,7.4171,7.4171,7.4171,7.4171,7.4171,7.407,7.3968,7.3866,7.3764,7.3525,7.3318,7.3247,7.3142,7.3037,7.29,7.2721,7.2508,7.2187,7.183,7.1612,7.1171,7.0726,7.0388,7.0047,6.9588,6.924,6.8889,6.8535,6.8179,6.7699,6.7213,6.6999,6.6999,6.6999,6.6999,6.6999,6.6999,6.6999,6.6999,6.7489,6.7963,6.8571,6.9519,7.0601,7.1109,7.1312,7.1312,7.1312,7.1312,7.1312,7.1312,7.1312,7.1312,7.1312,7.1312,7.1345,7.1718,7.2022,7.2259,7.2732,7.3308,7.3713,7.3984,7.439,7.4796,7.5067,7.5236,7.5608,7.5676,7.5676,7.5676,7.5676,7.5676,7.5676,7.5676,7.5676,7.5676,7.5676,7.5676,7.5518,7.5262,7.5067,7.487,7.4473,7.4272,7.4171,7.4171,7.4171,7.4171,7.4171,7.4171,7.4171,7.4171,7.4171,7.4171,7.4171,7.4171,7.4171,7.4171,7.4171,7.4171,7.4204,7.4171,7.4171,7.4171,7.4171,7.4171,7.4171,7.4171,7.4171,7.4171,7.4171,7.4171,7.4171,7.4171,7.4171,7.4171,7.4171,7.4171,7.407,7.3968,7.3866,7.3694,7.3558,7.3214,7.3005,7.2827,7.2721,7.2615,7.2476,7.2401,7.2079,7.1862,7.1502,7.106,7.0726,7.0275,6.9933,6.9588,6.9123,6.8802,6.8566,6.809,6.7578,6.7426,6.7331,6.7029,6.6999,6.7059,6.7148,6.7089,6.7059,6.6999,6.6999,6.7929,6.8166,6.9654,7.0601,7.1244,7.1312,7.1312,7.1312,7.1312,7.1312,7.1312,7.1312,7.1312,7.1312,7.1312,7.1447,7.165,7.2022,7.2529,7.2597,7.3308,7.3984,7.4492,7.4728,7.4999,7.5439,7.5642,7.554,7.5642,7.5676,7.5676,7.5676,7.5676,7.5676,7.5676,7.5676,7.5676,7.5676,7.5676,7.5676,7.5614,7.5359,7.5002,7.487,7.4573,7.4171,7.4171,7.4171,7.4171,7.4171,7.4171,7.4171,7.4171,7.4171,7.4171,7.427,7.4337,7.4436,7.4502,7.4602,7.4602,7.4535,7.437,7.4602,7.4734,7.4303,7.4171,7.4171,7.4171,7.4171,7.4171,7.4171,7.4171,7.4171,7.4171,7.4171,7.4171,7.4171,7.4171,7.407,7.3968,7.383,7.3952,7.3777,7.3796,7.3258,7.3111,7.2929,7.2617,7.2401,7.2175,7.2143,7.1721,7.1282,7.106,7.0613,7.0161,6.9818,6.9503,6.9123,6.8772,6.8447,6.815,6.8001,6.7847,6.7664,6.7478,6.7508,6.7567,6.7567,6.7537,6.7298,6.7178,6.7178,6.7029,6.8267,6.8944,7.0432,7.1176,7.1312,7.1312,7.1312,7.1312,7.1312,7.1312,7.1312,7.1312,7.1312,7.1312,7.1379,7.1616,7.209,7.2529,7.3138,7.368,7.4255,7.4627,7.527,7.5303,7.5506,7.5608,7.5676,7.5676,7.5676,7.5676,7.5676,7.5676,7.5676,7.5676,7.5709,7.5709,7.5811,7.5845,7.5946,7.5946,7.585,7.5426,7.5002,7.4903,7.4639,7.4438,7.4337,7.427,7.4204,7.4171,7.4171,7.4171,7.4171,7.4204,7.4204,7.427,7.4734,7.4933,7.5098,7.5297,7.5496,7.5662,7.5695,7.5761,7.5529,7.4668,7.4237,7.4237,7.4237,7.427,7.427,7.4303,7.4303,7.4303,7.4303,7.427,7.427,7.4303,7.4202,7.41,7.3965,7.3919,7.3966,7.3983,7.389,7.3868,7.3876,7.3688,7.3178,7.2764,7.1981,7.1743,7.1235,7.0838,7.0501,7.0192,6.988,6.948,6.9191,6.8864,6.8478,6.8485,6.8485,6.8298,6.8201,6.8046,6.8196,6.8495,6.8525,6.8286,6.8166,6.7986,6.7777,6.7717,6.7388,6.8876,6.9688,7.0838,7.1312,7.1312,7.1312,7.1312,7.1312,7.1312,7.1312,7.1312,7.1312,7.1312,7.1447,7.1616,7.1954,7.2563,7.3172,7.3747,7.4458,7.4965,7.527,7.5574,7.5676,7.5676,7.5676,7.5676,7.5676,7.5676,7.5676,7.5676,7.5709,7.5709,7.5743,7.5777,7.598,7.6217,7.6251,7.6454,7.6589,7.6459,7.5934,7.5471,7.5239,7.5272,7.5101,7.5132,7.5098,7.5132,7.5132,7.5198,7.5198,7.5231,7.5264,7.5198,7.5264,7.5529,7.5728,7.586,7.6092,7.639,7.6457,7.6357,7.6192,7.6125,7.5397,7.5363,7.5363,7.5363,7.5397,7.5363,7.5363,7.5397,7.5363,7.5397,7.5397,7.5294,7.519,7.519,7.5087,7.4878,7.4555,7.4463,7.4171,7.4115,7.4038,7.4139,7.3692,7.3193,7.2712,7.1995,7.1376,7.0721,7.0306,6.9933,6.9797,6.9542,6.9253,6.896,6.8939,6.8759,6.8755,6.8715,6.856,6.8525,6.8734,6.8914,6.9004,6.9004,6.8734,6.8734,6.8764,6.8495,6.8076,6.7717,6.9654,7.0398,7.1041,7.1312,7.1312,7.1312,7.1312,7.1312,7.1312,7.1312,7.1345,7.1447,7.1447,7.1684,7.2056,7.2394,7.2935,7.3815,7.4458,7.4931,7.5371,7.554,7.5608,7.5676,7.5676,7.5676,7.5676,7.5676,7.5676,7.5676,7.5709,7.5709,7.5777,7.5879,7.6082,7.6555,7.7029,7.713,7.7367,7.7773,7.7441,7.6875,7.6374,7.6207,7.6236,7.6258,7.6291,7.6291,7.6291,7.6225,7.6059,7.6026,7.6026,7.5993,7.6026,7.6092,7.6291,7.6424,7.6523,7.6722,7.6788,7.6722,7.6589,7.6556,7.6589,7.6589,7.6523,7.649,7.649,7.6258,7.6258,7.6258,7.6258,7.6258,7.6258,7.6121,7.6016,7.5911,7.5839,7.5734,7.5415,7.5017,7.482,7.449,7.4236,7.4124,7.3756,7.327,7.2832,7.2254,7.1551,7.0851,7.0245,6.9859,6.9387,6.9185,6.9043,6.8811,6.8575,6.885,6.9027,6.8689,6.85,6.877,6.8764,6.8944,6.9004,6.9004,6.9004,6.9004,6.8974,6.8884,6.8465,6.8106,6.7926,7.0398,7.1109,7.1278,7.1312,7.1312,7.1312,7.1312,7.1312,7.1312,7.1312,7.1515,7.1954,7.2191,7.2225,7.2293,7.28,7.3883,7.4593,7.5033,7.5506,7.5608,7.5642,7.5676,7.5676,7.5676,7.5676,7.5676,7.5676,7.5777,7.5743,7.5709,7.5777,7.6521,7.669,7.6792,7.7299,7.7807,7.7908,7.7976,7.8247,7.8046,7.7546,7.7145,7.6842,7.6568,7.6428,7.6291,7.6291,7.6291,7.6291,7.6424,7.649,7.6556,7.6589,7.6589,7.6788,7.6987,7.7152,7.7285,7.7583,7.7649,7.7749,7.7749,7.7782,7.7815,7.7848,7.7749,7.7616,7.7384,7.6689,7.6523,7.6556,7.6556,7.6556,7.6556,7.6281,7.6142,7.6004,7.5898,7.5513,7.5158,7.5059,7.4942,7.4622,7.4205,7.3948,7.3397,7.2875,7.2548,7.1822,7.1214,7.0458,6.979,6.9426,6.9006,6.8772,6.8627,6.8392,6.8243,6.8574,6.8539,6.8081,6.8106,6.8585,6.8824,6.8974,6.9004,6.9004,6.9004,6.9004,6.9004,6.8854,6.8465,6.8136,6.7926]},{"header":{"parameterUnit":"m.s-1","parameterCategory":1,"la1":31.0,"la2":29.5877,"lo1":-88.7671,"lo2":-86.6584,"dy":0.0162,"dx":0.0185,"nx":115,"ny":88,"refTime":"2023-10-16T00:00:00:Z","depth":0,"parameterNumber":3,"parameterNumberName":"V-component_of_WINDS"},"data":[0.0,0.0,0.0,0.0,0.0,0.0,0.0,0.0,0.0,0.0,0.0,0.0,0.0,0.0,0.0,0.0,0.0,0.0,0.0,0.0,0.0,0.0,0.0,0.0,0.0,0.0,0.0,0.0,0.0,0.0,0.0,0.0,0.0,0.0,0.0,0.0,0.0,0.0,0.0,0.0,0.0,0.0,0.0,0.0,0.0,0.0,0.0,0.0,0.0,0.0,0.0,0.0,0.0,0.0,0.0,0.0,0.0,0.0,0.0,0.0,0.0,0.0,0.0,0.0,0.0,0.0,0.0,0.0,0.0,0.0,0.0,0.0,0.0,0.0,0.0,0.0,0.0,0.0,0.0,0.0,0.0,0.0,0.0,0.0,0.0,0.0,0.0,0.0,0.0,0.0,0.0,0.0,0.0,0.0,0.0,0.0,0.0,0.0,0.0,0.0,0.0,0.0,0.0,0.0,0.0,0.0,0.0,0.0,0.0,0.0,0.0,0.0,0.0,0.0,0.0,0.0,0.0,0.0,0.0,0.0,0.0,0.0,0.0,0.0,0.0,0.0,0.0,0.0,0.0,0.0,0.0,0.0,0.0,0.0,0.0,0.0,0.0,0.0,0.0,0.0,0.0,0.0,0.0,0.0,0.0,0.0,0.0,0.0,0.0,0.0,0.0,0.0,0.0,0.0,0.0,0.0,0.0,0.0,0.0,0.0,0.0,0.0,0.0,0.0,0.0,0.0,0.0,0.0,0.0,0.0,0.0,0.0,0.0,0.0,0.0,0.0,0.0,0.0,0.0,0.0,0.0,0.0,0.0,0.0,0.0,0.0,0.0,0.0,0.0,0.0,0.0,0.0,0.0,0.0,0.0,0.0,0.0,0.0,0.0,0.0,0.0,0.0,0.0,0.0,0.0,0.0,0.0,0.0,0.0,0.0,0.0,0.0,0.0,0.0,0.0,0.0,0.0,0.0,0.0,0.0,0.0,0.0,0.0,0.0,0.0,0.0,0.0,0.0,0.0,0.0,0.0,0.0,0.0,0.0,0.0,0.0,0.0,0.0,0.0,0.0,0.0,0.0,0.0,0.0,0.0,0.0,0.0,0.0,0.0,0.0,0.0,0.0,0.0,0.0,0.0,0.0,0.0,0.0,0.0,0.0,0.0,0.0,0.0,0.0,0.0,0.0,0.0,0.0,0.0,0.0,0.0,0.0,0.0,0.0,0.0,0.0,0.0,0.0,0.0,0.0,0.0,0.0,0.0,0.0,0.0,0.0,0.0,0.0,0.0,0.0,0.0,0.0,0.0,0.0,0.0,0.0,0.0,0.0,0.0,0.0,0.0,0.0,0.0,0.0,0.0,0.0,0.0,0.0,0.0,0.0,0.0,0.0,0.0,0.0,0.0,0.0,0.0,0.0,0.0,0.0,0.0,0.0,0.0,0.0,0.0,0.0,0.0,0.0,0.0,0.0,0.0,0.0,0.0,0.0,0.0,0.0,0.0,0.0,0.0,0.0,0.0,0.0,0.0,0.0,0.0,0.0,0.0,0.0,0.0,0.0,0.0,0.0,0.0,0.0,0.0,0.0,0.0,0.0,0.0,0.0,0.0,0.0,0.0,0.0,0.0,0.0,0.0,0.0,0.0,0.0,0.0,0.0,0.0,0.0,0.0,0.0,0.0,0.0,0.0,0.0,0.0,0.0,0.0,0.0,0.0,0.0,0.0,0.0,0.0,0.0,0.0,0.0,0.0,0.0,0.0,0.0,0.0,0.0,0.0,0.0,0.0,0.0,0.0,0.0,0.0,0.0,0.0,0.0,0.0,0.0,0.0,0.0,0.0,0.0,0.0,0.0,0.0,0.0,0.0,0.0,0.0,0.0,0.0,0.0,0.0,0.0,0.0,0.0,0.0,0.0,0.0,0.0,0.0,0.0,0.0,0.0,0.0,0.0,0.0,0.0,0.0,0.0,0.0,0.0,0.0,0.0,0.0,0.0,0.0,0.0,0.0,0.0,0.0,0.0,0.0,0.0,0.0,0.0,0.0,0.0,0.0,0.0,0.0,0.0,0.0,0.0,0.0,0.0,0.0,0.0,0.0,0.0,0.0,0.0,0.0,0.0,0.0,0.0,0.0,0.0,0.0,0.0,0.0,0.0,0.0,0.0,0.0,0.0,0.0,0.0,0.0,0.0,0.0,0.0,0.0,0.0,0.0,0.0,0.0,0.0,0.0,0.0,0.0,0.0,0.0,0.0,0.0,0.0,0.0,0.0,0.0,0.0,0.0,0.0,0.0,0.0,0.0,0.0,0.0,0.0,0.0,0.0,0.0,0.0,0.0,0.0,0.0,0.0,0.0,0.0,0.0,0.0,0.0,0.0,0.0,0.0,0.0,0.0,0.0,0.0,0.0,0.0,0.0,0.0,0.0,0.0,0.0,0.0,0.0,0.0,0.0,0.0,0.0,0.0,0.0,0.0,0.0,0.0,0.0,0.0,0.0,0.0,0.0,0.0,0.0,0.0,0.0,0.0,0.0,0.0,0.0,0.0,0.0,0.0,0.0,0.0,0.0,0.0,0.0,0.0,0.0,0.0,0.0,0.0,0.0,0.0,0.0,0.0,0.0,0.0,0.0,0.0,0.0,0.0,0.0,0.0,0.0,0.0,0.0,0.0,0.0,0.0,0.0,0.0,0.0,0.0,0.0,0.0,0.0,0.0,0.0,0.0,0.0,0.0,0.0,0.0,0.0,0.0,0.0,0.0,0.0,0.0,0.0,0.0,0.0,0.0,0.0,0.0,0.0,0.0,0.0,0.0,0.0,0.0,0.0,0.0,0.0,0.0,0.0,0.0,0.0,0.0,0.0,0.0,0.0,0.0,0.0,0.0,0.0,0.0,0.0,0.0,0.0,0.0,0.0,0.0,0.0,0.0,0.0,0.0,0.0,0.0,0.0,0.0,0.0,0.0,0.0,0.0,0.0,0.0,0.0,0.0,0.0,0.0,0.0,0.0,0.0,0.0,0.0,0.0,0.0,0.0,0.0,0.0,0.0,0.0,0.0,0.0,0.0,0.0,0.0,0.0,0.0,0.0,0.0,0.0,0.0,0.0,0.0,0.0,0.0,0.0,0.0,0.0,0.0,0.0,0.0,0.0,0.0,0.0,0.0,0.0,0.0,0.0,0.0,0.0,0.0,0.0,0.0,0.0,0.0,0.0,0.0,0.0,0.0,0.0,0.0,0.0,0.0,0.0,0.0,0.0,0.0,0.0,0.0,0.0,0.0,0.0,0.0,0.0,0.0,0.0,0.0,0.0,0.0,0.0,0.0,0.0,0.0,0.0,0.0,0.0,0.0,0.0,0.0,0.0,0.0,0.0,0.0,0.0,0.0,0.0,0.0,0.0,0.0,0.0,0.0,0.0,0.0,0.0,0.0,0.0,0.0,0.0,0.0,0.0,0.0,0.0,0.0,0.0,0.0,0.0,0.0,0.0,0.0,0.0,0.0,0.0,0.0,0.0,0.0,0.0,0.0,0.0,0.0,0.0,0.0,0.0,0.0,0.0,0.0,0.0,0.0,0.0,0.0,0.0,0.0,0.0,0.0,0.0,0.0,0.0,0.0,0.0,0.0,0.0,0.0,0.0,0.0,0.0,0.0,0.0,0.0,0.0,0.0,0.0,0.0,0.0,0.0,0.0,0.0,0.0,0.0,0.0,0.0,0.0,0.0,0.0,0.0,0.0,0.0,0.0,0.0,0.0,0.0,0.0,0.0,0.0,0.0,0.0,0.0,0.0,0.0,0.0,0.0,0.0,0.0,0.0,0.0,0.0,0.0,0.0,0.0,0.0,0.0,0.0,0.0,0.0,0.0,0.0,0.0,0.0,0.0,0.0,0.0,0.0,0.0,0.0,0.0,0.0,0.0,0.0,0.0,0.0,0.0,0.0,0.0,0.0,0.0,0.0,0.0,0.0,0.0,0.0,0.0,0.0,0.0,0.0,0.0,0.0,0.0,0.0,0.0,0.0,0.0,0.0,0.0,0.0,0.0,0.0,0.0,0.0,0.0,0.0,0.0,0.0,0.0,0.0,0.0,0.0,0.0,0.0,0.0,0.0,0.0,0.0,0.0,0.0,0.0,0.0,0.0,0.0,0.0,0.0,0.0,0.0,0.0,0.0,0.0,0.0,0.0,0.0,0.0,0.0,0.0,0.0,0.0,0.0,0.0,0.0,0.0,0.0,0.0,0.0,0.0,0.0,0.0,0.0,0.0,0.0,0.0,0.0,0.0,0.0,0.0,0.0,-1.9811,0.0,0.0,0.0,0.0,0.0,0.0,0.0,0.0,0.0,0.0,0.0,0.0,0.0,0.0,0.0,0.0,0.0,0.0,0.0,0.0,0.0,0.0,0.0,0.0,0.0,0.0,0.0,0.0,0.0,0.0,0.0,0.0,0.0,0.0,0.0,0.0,0.0,0.0,0.0,0.0,0.0,0.0,0.0,0.0,0.0,0.0,0.0,0.0,0.0,0.0,0.0,0.0,0.0,0.0,0.0,0.0,0.0,0.0,0.0,0.0,0.0,0.0,0.0,0.0,0.0,0.0,0.0,0.0,0.0,0.0,0.0,0.0,0.0,0.0,0.0,0.0,0.0,0.0,0.0,0.0,0.0,0.0,0.0,0.0,0.0,0.0,0.0,0.0,0.0,0.0,0.0,0.0,0.0,0.0,0.0,0.0,0.0,0.0,0.0,0.0,0.0,0.0,0.0,0.0,0.0,0.0,0.0,0.0,0.0,0.0,-1.9552,-1.9552,-1.9656,-1.9708,-1.9708,0.0,0.0,0.0,0.0,0.0,0.0,0.0,0.0,0.0,0.0,0.0,0.0,0.0,0.0,0.0,0.0,0.0,0.0,0.0,0.0,0.0,0.0,0.0,0.0,0.0,0.0,0.0,0.0,0.0,0.0,0.0,0.0,0.0,0.0,0.0,0.0,0.0,0.0,0.0,0.0,0.0,0.0,0.0,0.0,0.0,0.0,0.0,0.0,0.0,0.0,0.0,0.0,0.0,0.0,0.0,0.0,0.0,0.0,0.0,0.0,0.0,0.0,0.0,0.0,0.0,0.0,0.0,0.0,0.0,0.0,0.0,0.0,0.0,0.0,0.0,0.0,0.0,0.0,0.0,0.0,0.0,0.0,0.0,0.0,0.0,0.0,0.0,0.0,0.0,0.0,0.0,0.0,0.0,0.0,0.0,0.0,0.0,0.0,0.0,0.0,0.0,0.0,0.0,0.0,0.0,0.0,0.0,0.0,0.0,0.0,0.0,0.0,-1.9525,-1.9577,-1.9604,0.0,0.0,0.0,0.0,0.0,0.0,0.0,0.0,0.0,0.0,0.0,0.0,0.0,0.0,0.0,0.0,0.0,0.0,0.0,0.0,0.0,0.0,0.0,0.0,0.0,0.0,0.0,0.0,0.0,0.0,0.0,0.0,0.0,0.0,0.0,0.0,0.0,0.0,0.0,0.0,0.0,0.0,0.0,0.0,0.0,0.0,0.0,0.0,0.0,0.0,0.0,0.0,0.0,0.0,0.0,0.0,0.0,0.0,0.0,0.0,0.0,0.0,0.0,0.0,0.0,0.0,0.0,0.0,0.0,0.0,0.0,0.0,0.0,0.0,0.0,0.0,0.0,0.0,0.0,0.0,0.0,0.0,0.0,0.0,0.0,0.0,0.0,0.0,0.0,0.0,0.0,0.0,0.0,0.0,0.0,0.0,0.0,0.0,0.0,0.0,0.0,0.0,0.0,0.0,0.0,0.0,0.0,0.0,0.0,0.0,-1.942,-1.942,-1.942,0.0,-1.9604,0.0,0.0,0.0,0.0,0.0,0.0,0.0,0.0,0.0,0.0,0.0,0.0,0.0,0.0,0.0,0.0,0.0,0.0,0.0,0.0,0.0,0.0,0.0,0.0,0.0,0.0,0.0,0.0,0.0,0.0,0.0,0.0,0.0,0.0,0.0,0.0,0.0,0.0,0.0,0.0,0.0,0.0,0.0,0.0,0.0,0.0,0.0,0.0,0.0,0.0,0.0,0.0,0.0,0.0,0.0,0.0,0.0,0.0,0.0,0.0,0.0,0.0,0.0,0.0,0.0,0.0,0.0,0.0,0.0,0.0,0.0,0.0,0.0,0.0,0.0,0.0,0.0,0.0,0.0,0.0,0.0,0.0,0.0,0.0,0.0,0.0,0.0,0.0,0.0,0.0,0.0,0.0,0.0,0.0,0.0,0.0,0.0,0.0,0.0,0.0,0.0,0.0,0.0,0.0,0.0,0.0,0.0,0.0,0.0,0.0,-1.9158,-1.9158,-1.9263,-1.9368,0.0,0.0,0.0,0.0,0.0,0.0,0.0,0.0,0.0,0.0,0.0,0.0,0.0,0.0,0.0,0.0,0.0,0.0,0.0,0.0,0.0,0.0,0.0,0.0,0.0,0.0,0.0,0.0,0.0,0.0,0.0,0.0,0.0,0.0,0.0,0.0,0.0,0.0,0.0,0.0,0.0,0.0,0.0,0.0,0.0,0.0,0.0,0.0,0.0,0.0,0.0,0.0,0.0,0.0,0.0,0.0,0.0,0.0,0.0,0.0,0.0,0.0,0.0,0.0,0.0,0.0,0.0,0.0,0.0,0.0,0.0,0.0,0.0,0.0,0.0,0.0,0.0,0.0,0.0,0.0,0.0,0.0,0.0,0.0,0.0,0.0,0.0,0.0,0.0,0.0,0.0,0.0,0.0,0.0,0.0,0.0,0.0,0.0,0.0,0.0,0.0,0.0,0.0,0.0,0.0,0.0,0.0,0.0,0.0,0.0,-1.8946,-1.8893,-1.8893,-1.8999,-1.9182,-1.9263,0.0,0.0,0.0,0.0,0.0,0.0,0.0,0.0,0.0,0.0,0.0,0.0,0.0,0.0,0.0,0.0,0.0,0.0,0.0,0.0,0.0,0.0,0.0,0.0,0.0,0.0,0.0,0.0,0.0,0.0,0.0,0.0,0.0,0.0,0.0,0.0,0.0,0.0,0.0,0.0,0.0,0.0,0.0,0.0,0.0,0.0,0.0,0.0,0.0,0.0,0.0,0.0,0.0,0.0,0.0,0.0,0.0,0.0,0.0,0.0,0.0,0.0,0.0,0.0,0.0,0.0,0.0,0.0,0.0,0.0,0.0,0.0,0.0,0.0,0.0,0.0,0.0,0.0,0.0,0.0,0.0,0.0,0.0,0.0,0.0,0.0,0.0,0.0,0.0,0.0,0.0,0.0,0.0,0.0,0.0,0.0,0.0,0.0,0.0,0.0,0.0,0.0,0.0,0.0,0.0,0.0,0.0,0.0,-1.881,-1.8703,-1.8625,-1.8649,-1.8732,-1.8893,0.0,0.0,0.0,0.0,0.0,0.0,0.0,0.0,0.0,0.0,0.0,0.0,0.0,0.0,0.0,0.0,0.0,0.0,0.0,0.0,0.0,0.0,0.0,0.0,0.0,0.0,0.0,0.0,0.0,0.0,0.0,0.0,0.0,0.0,0.0,0.0,0.0,0.0,0.0,0.0,0.0,0.0,0.0,0.0,0.0,0.0,0.0,0.0,0.0,0.0,0.0,0.0,0.0,0.0,0.0,0.0,0.0,0.0,0.0,0.0,0.0,0.0,0.0,0.0,0.0,0.0,0.0,0.0,0.0,0.0,0.0,0.0,0.0,0.0,0.0,0.0,0.0,0.0,0.0,0.0,0.0,0.0,0.0,0.0,0.0,0.0,0.0,0.0,0.0,0.0,0.0,0.0,0.0,0.0,0.0,0.0,0.0,0.0,0.0,0.0,0.0,0.0,0.0,0.0,0.0,0.0,0.0,0.0,0.0,-1.9616,-1.9616,-1.9559,-1.9559,-1.9285,-1.9175,0.0,0.0,0.0,0.0,0.0,0.0,0.0,0.0,0.0,0.0,0.0,0.0,0.0,0.0,0.0,0.0,0.0,0.0,0.0,0.0,0.0,0.0,0.0,0.0,0.0,0.0,0.0,0.0,0.0,0.0,0.0,0.0,0.0,0.0,0.0,0.0,0.0,0.0,0.0,0.0,0.0,0.0,0.0,0.0,0.0,0.0,0.0,0.0,0.0,0.0,0.0,0.0,0.0,0.0,0.0,0.0,0.0,0.0,0.0,0.0,0.0,0.0,0.0,0.0,0.0,0.0,0.0,0.0,0.0,0.0,0.0,0.0,0.0,0.0,0.0,0.0,0.0,0.0,0.0,0.0,0.0,0.0,0.0,0.0,0.0,0.0,0.0,0.0,0.0,0.0,0.0,0.0,0.0,0.0,0.0,0.0,0.0,0.0,0.0,0.0,0.0,0.0,0.0,0.0,0.0,0.0,0.0,0.0,0.0,-1.9866,0.0,-1.9807,-1.9866,-1.9564,-1.9492,0.0,0.0,0.0,0.0,0.0,0.0,0.0,0.0,0.0,0.0,0.0,0.0,0.0,0.0,0.0,0.0,0.0,0.0,0.0,0.0,0.0,0.0,0.0,0.0,0.0,0.0,0.0,0.0,0.0,0.0,0.0,0.0,0.0,0.0,0.0,0.0,0.0,0.0,0.0,0.0,0.0,0.0,0.0,0.0,0.0,0.0,0.0,0.0,0.0,0.0,0.0,0.0,0.0,0.0,0.0,0.0,0.0,0.0,0.0,0.0,0.0,0.0,0.0,0.0,0.0,0.0,0.0,0.0,0.0,0.0,0.0,0.0,0.0,0.0,0.0,0.0,0.0,0.0,0.0,0.0,0.0,0.0,0.0,0.0,0.0,0.0,0.0,0.0,0.0,0.0,0.0,0.0,0.0,0.0,0.0,0.0,0.0,0.0,0.0,0.0,0.0,0.0,0.0,0.0,0.0,0.0,0.0,0.0,-1.9913,-1.9417,-1.9261,-1.9306,-1.9417,-1.9559,-1.9713,0.0,0.0,0.0,0.0,0.0,0.0,0.0,0.0,0.0,0.0,0.0,0.0,0.0,0.0,0.0,0.0,0.0,0.0,0.0,0.0,0.0,0.0,0.0,0.0,0.0,0.0,0.0,0.0,0.0,0.0,0.0,0.0,0.0,0.0,0.0,0.0,0.0,0.0,0.0,0.0,0.0,0.0,0.0,0.0,0.0,0.0,0.0,0.0,0.0,0.0,0.0,0.0,0.0,0.0,0.0,0.0,0.0,0.0,0.0,0.0,0.0,0.0,0.0,0.0,0.0,0.0,0.0,0.0,0.0,0.0,0.0,0.0,0.0,0.0,0.0,0.0,0.0,0.0,0.0,0.0,0.0,0.0,0.0,0.0,0.0,0.0,0.0,0.0,0.0,0.0,0.0,0.0,0.0,0.0,0.0,0.0,0.0,0.0,0.0,0.0,0.0,0.0,0.0,0.0,0.0,0.0,0.0,0.0,0.0,-2.0335,-2.0272,-2.0272,-2.0313,-2.012,-2.0061,0.0,0.0,0.0,0.0,0.0,0.0,0.0,0.0,0.0,0.0,0.0,0.0,0.0,0.0,0.0,0.0,0.0,0.0,0.0,0.0,0.0,0.0,0.0,0.0,0.0,0.0,0.0,0.0,0.0,0.0,0.0,0.0,0.0,0.0,0.0,0.0,0.0,0.0,0.0,0.0,0.0,0.0,0.0,0.0,0.0,0.0,0.0,0.0,0.0,0.0,0.0,0.0,0.0,0.0,0.0,0.0,0.0,0.0,0.0,0.0,0.0,0.0,0.0,0.0,0.0,0.0,0.0,0.0,0.0,0.0,0.0,0.0,0.0,0.0,0.0,0.0,0.0,0.0,0.0,0.0,0.0,0.0,0.0,0.0,0.0,0.0,0.0,0.0,0.0,0.0,0.0,0.0,0.0,0.0,0.0,0.0,0.0,0.0,0.0,0.0,0.0,0.0,0.0,0.0,0.0,0.0,0.0,0.0,0.0,-2.1019,-2.0664,-2.0529,-2.0616,-2.0366,-2.0398,-2.0563,0.0,0.0,0.0,0.0,0.0,0.0,0.0,0.0,0.0,0.0,0.0,0.0,0.0,0.0,0.0,0.0,0.0,0.0,0.0,0.0,0.0,0.0,0.0,0.0,0.0,0.0,0.0,0.0,0.0,0.0,0.0,0.0,0.0,0.0,0.0,0.0,0.0,0.0,0.0,0.0,0.0,0.0,0.0,0.0,0.0,0.0,0.0,0.0,0.0,0.0,0.0,0.0,0.0,0.0,0.0,0.0,0.0,0.0,0.0,0.0,0.0,0.0,0.0,0.0,0.0,0.0,0.0,0.0,0.0,0.0,0.0,0.0,0.0,0.0,0.0,0.0,0.0,0.0,0.0,0.0,0.0,0.0,0.0,0.0,0.0,0.0,0.0,0.0,0.0,0.0,0.0,0.0,0.0,0.0,0.0,0.0,0.0,0.0,0.0,0.0,0.0,0.0,0.0,0.0,0.0,0.0,0.0,0.0,-2.1603,-2.0641,-2.0314,-2.051,-2.0488,-2.0596,0.0,0.0,0.0,0.0,0.0,0.0,0.0,0.0,0.0,0.0,0.0,0.0,0.0,0.0,0.0,0.0,0.0,0.0,0.0,0.0,0.0,0.0,0.0,0.0,0.0,0.0,0.0,0.0,0.0,0.0,0.0,0.0,0.0,0.0,0.0,0.0,0.0,0.0,0.0,0.0,0.0,0.0,0.0,0.0,0.0,0.0,0.0,0.0,0.0,0.0,0.0,0.0,0.0,0.0,0.0,0.0,0.0,0.0,0.0,0.0,0.0,0.0,0.0,0.0,0.0,0.0,0.0,0.0,0.0,0.0,0.0,0.0,0.0,0.0,0.0,0.0,0.0,0.0,0.0,0.0,0.0,0.0,0.0,0.0,0.0,0.0,0.0,0.0,0.0,0.0,0.0,0.0,0.0,0.0,0.0,0.0,0.0,0.0,0.0,0.0,0.0,0.0,0.0,0.0,0.0,0.0,0.0,0.0,0.0,-2.1371,-2.1133,-2.1073,-2.1279,-2.1393,-2.1284,0.0,0.0,0.0,0.0,0.0,0.0,0.0,0.0,0.0,0.0,0.0,0.0,0.0,0.0,0.0,0.0,0.0,0.0,0.0,0.0,0.0,0.0,0.0,0.0,0.0,0.0,0.0,0.0,0.0,0.0,0.0,0.0,0.0,0.0,0.0,0.0,0.0,0.0,0.0,0.0,0.0,0.0,0.0,0.0,0.0,0.0,0.0,0.0,0.0,0.0,0.0,0.0,0.0,0.0,0.0,0.0,0.0,0.0,0.0,0.0,0.0,0.0,0.0,0.0,0.0,0.0,0.0,0.0,0.0,0.0,0.0,0.0,0.0,0.0,0.0,0.0,0.0,0.0,0.0,0.0,0.0,0.0,0.0,0.0,0.0,0.0,0.0,0.0,0.0,0.0,0.0,0.0,0.0,0.0,0.0,0.0,0.0,0.0,0.0,0.0,0.0,0.0,0.0,0.0,0.0,0.0,0.0,0.0,-2.2171,-2.1883,-2.1833,-2.1833,-2.1905,-2.1707,-2.1498,0.0,0.0,0.0,0.0,0.0,0.0,0.0,0.0,0.0,0.0,0.0,0.0,0.0,0.0,0.0,0.0,0.0,0.0,0.0,0.0,0.0,0.0,0.0,0.0,0.0,0.0,0.0,0.0,0.0,0.0,0.0,0.0,0.0,0.0,0.0,0.0,0.0,0.0,0.0,0.0,0.0,0.0,0.0,0.0,0.0,0.0,0.0,0.0,0.0,0.0,0.0,0.0,0.0,0.0,0.0,0.0,0.0,0.0,0.0,0.0,0.0,0.0,0.0,0.0,0.0,0.0,0.0,0.0,0.0,0.0,0.0,0.0,0.0,0.0,0.0,0.0,0.0,0.0,0.0,0.0,0.0,0.0,0.0,0.0,0.0,0.0,0.0,0.0,0.0,0.0,0.0,0.0,0.0,0.0,0.0,0.0,0.0,0.0,0.0,0.0,0.0,0.0,0.0,0.0,0.0,0.0,0.0,0.0,-2.2961,-2.2854,-2.2627,-2.2476,-2.253,-2.1803,-2.155,0.0,0.0,0.0,0.0,0.0,0.0,0.0,0.0,0.0,0.0,0.0,0.0,0.0,0.0,0.0,0.0,0.0,0.0,0.0,0.0,0.0,0.0,0.0,0.0,0.0,0.0,0.0,0.0,0.0,0.0,0.0,0.0,0.0,0.0,0.0,0.0,0.0,0.0,0.0,0.0,0.0,0.0,0.0,0.0,0.0,0.0,0.0,0.0,0.0,0.0,0.0,0.0,0.0,0.0,0.0,0.0,0.0,0.0,0.0,0.0,0.0,0.0,0.0,0.0,0.0,0.0,0.0,0.0,0.0,0.0,0.0,0.0,0.0,0.0,0.0,0.0,0.0,0.0,0.0,0.0,0.0,0.0,0.0,0.0,0.0,0.0,0.0,0.0,0.0,0.0,0.0,0.0,0.0,0.0,0.0,0.0,0.0,0.0,0.0,0.0,0.0,0.0,0.0,0.0,0.0,0.0,0.0,0.0,-2.338,-2.3588,-2.3372,-2.3292,-2.3271,-2.2539,-2.2082,0.0,0.0,0.0,0.0,0.0,0.0,0.0,0.0,0.0,0.0,0.0,0.0,0.0,0.0,0.0,0.0,0.0,0.0,0.0,0.0,0.0,0.0,0.0,0.0,0.0,0.0,0.0,0.0,0.0,0.0,0.0,0.0,0.0,0.0,0.0,0.0,0.0,0.0,0.0,0.0,0.0,0.0,0.0,0.0,0.0,0.0,0.0,0.0,-2.3855,0.0,0.0,0.0,0.0,0.0,0.0,0.0,0.0,0.0,0.0,0.0,0.0,0.0,0.0,0.0,0.0,0.0,0.0,0.0,0.0,0.0,0.0,0.0,0.0,0.0,0.0,0.0,0.0,0.0,0.0,0.0,0.0,0.0,0.0,0.0,0.0,0.0,0.0,0.0,0.0,0.0,0.0,0.0,0.0,0.0,0.0,0.0,0.0,0.0,0.0,0.0,0.0,0.0,0.0,0.0,0.0,0.0,0.0,0.0,-2.3652,-2.3646,-2.3426,-2.3346,-2.3325,-2.2945,-2.2696,0.0,0.0,0.0,0.0,0.0,0.0,0.0,0.0,0.0,0.0,0.0,0.0,0.0,0.0,0.0,0.0,0.0,0.0,0.0,0.0,0.0,0.0,0.0,0.0,0.0,0.0,0.0,0.0,0.0,0.0,0.0,0.0,0.0,0.0,0.0,0.0,0.0,0.0,0.0,0.0,0.0,0.0,0.0,0.0,0.0,0.0,0.0,0.0,0.0,0.0,0.0,0.0,0.0,0.0,0.0,0.0,0.0,0.0,0.0,0.0,0.0,0.0,0.0,0.0,0.0,0.0,0.0,0.0,0.0,0.0,0.0,0.0,0.0,0.0,0.0,0.0,0.0,0.0,0.0,0.0,0.0,0.0,0.0,0.0,0.0,0.0,0.0,0.0,0.0,0.0,0.0,0.0,0.0,0.0,0.0,0.0,0.0,0.0,0.0,0.0,0.0,0.0,0.0,0.0,0.0,0.0,0.0,-2.3881,-2.3794,-2.3717,-2.3473,-2.3391,-2.3391,-2.3329,-2.3262,-2.3182,0.0,0.0,0.0,0.0,0.0,0.0,0.0,0.0,0.0,0.0,0.0,0.0,0.0,0.0,0.0,0.0,0.0,0.0,0.0,0.0,0.0,0.0,0.0,0.0,0.0,0.0,0.0,0.0,0.0,0.0,0.0,0.0,0.0,0.0,0.0,0.0,0.0,0.0,-2.3914,-2.4091,0.0,0.0,0.0,0.0,0.0,0.0,0.0,0.0,-2.3732,0.0,0.0,0.0,0.0,0.0,0.0,0.0,0.0,0.0,0.0,0.0,0.0,0.0,0.0,0.0,0.0,0.0,0.0,0.0,0.0,0.0,0.0,0.0,0.0,0.0,0.0,0.0,0.0,0.0,0.0,0.0,0.0,0.0,0.0,0.0,0.0,0.0,0.0,0.0,0.0,0.0,0.0,0.0,0.0,0.0,0.0,0.0,0.0,0.0,0.0,0.0,0.0,0.0,0.0,0.0,0.0,-2.4578,-2.4278,-2.4345,-2.4619,-2.4407,-2.4322,-2.4302,-2.395,-2.3826,-2.3783,0.0,0.0,0.0,0.0,0.0,0.0,0.0,0.0,0.0,0.0,0.0,0.0,0.0,0.0,0.0,0.0,0.0,0.0,0.0,0.0,0.0,0.0,0.0,0.0,0.0,0.0,0.0,0.0,0.0,0.0,0.0,0.0,0.0,0.0,0.0,0.0,0.0,0.0,0.0,-2.4676,-2.4828,0.0,0.0,0.0,0.0,0.0,0.0,0.0,0.0,-2.4614,0.0,0.0,0.0,0.0,0.0,0.0,0.0,0.0,0.0,0.0,0.0,0.0,0.0,0.0,0.0,0.0,0.0,0.0,0.0,0.0,0.0,0.0,0.0,0.0,0.0,0.0,0.0,0.0,0.0,0.0,0.0,0.0,0.0,0.0,0.0,0.0,0.0,0.0,0.0,0.0,0.0,0.0,0.0,0.0,0.0,0.0,0.0,0.0,0.0,0.0,0.0,0.0,0.0,0.0,0.0,-2.4509,-2.4746,-2.4932,-2.5055,-2.5197,-2.513,-2.4815,-2.4695,-2.4364,0.0,0.0,0.0,0.0,0.0,0.0,0.0,0.0,0.0,0.0,0.0,0.0,0.0,0.0,0.0,0.0,0.0,0.0,0.0,0.0,0.0,0.0,0.0,0.0,0.0,0.0,0.0,0.0,0.0,0.0,0.0,0.0,0.0,0.0,0.0,0.0,0.0,0.0,0.0,0.0,-2.525,-2.5373,-2.5565,0.0,0.0,0.0,0.0,0.0,0.0,-2.5452,-2.5354,0.0,0.0,0.0,0.0,0.0,0.0,0.0,0.0,0.0,0.0,0.0,0.0,0.0,0.0,0.0,0.0,0.0,0.0,0.0,0.0,0.0,0.0,0.0,0.0,0.0,0.0,0.0,0.0,0.0,0.0,0.0,0.0,0.0,0.0,0.0,0.0,0.0,0.0,0.0,0.0,0.0,0.0,0.0,0.0,0.0,0.0,0.0,0.0,0.0,0.0,0.0,0.0,0.0,0.0,0.0,-2.4493,-2.5207,-2.5451,-2.5378,-2.5599,-2.564,-2.5289,-2.5098,-2.4707,0.0,0.0,0.0,0.0,0.0,0.0,0.0,0.0,0.0,0.0,0.0,0.0,0.0,0.0,0.0,0.0,0.0,0.0,0.0,0.0,0.0,0.0,0.0,0.0,0.0,0.0,0.0,0.0,0.0,0.0,0.0,0.0,0.0,0.0,0.0,0.0,0.0,0.0,0.0,0.0,0.0,-2.5917,-2.5917,-2.6123,0.0,0.0,0.0,0.0,-2.5847,-2.5793,0.0,0.0,0.0,0.0,0.0,0.0,0.0,0.0,0.0,0.0,0.0,0.0,0.0,0.0,0.0,0.0,0.0,0.0,0.0,0.0,0.0,0.0,0.0,0.0,0.0,0.0,0.0,0.0,0.0,0.0,0.0,0.0,0.0,0.0,0.0,0.0,0.0,0.0,0.0,0.0,0.0,0.0,0.0,0.0,0.0,0.0,0.0,0.0,0.0,0.0,0.0,0.0,0.0,0.0,0.0,0.0,-2.5375,-2.5347,-2.542,-2.5792,-2.5673,-2.5513,-2.5451,-2.4905,-2.4553,0.0,0.0,0.0,0.0,0.0,0.0,0.0,0.0,0.0,0.0,0.0,0.0,0.0,0.0,0.0,0.0,0.0,0.0,0.0,0.0,0.0,0.0,0.0,0.0,0.0,0.0,0.0,0.0,0.0,0.0,0.0,0.0,0.0,0.0,0.0,0.0,0.0,0.0,0.0,0.0,0.0,-2.6439,-2.6288,-2.613,-2.5947,0.0,0.0,-2.5383,-2.5127,-2.5127,0.0,0.0,0.0,0.0,0.0,0.0,0.0,0.0,0.0,0.0,0.0,0.0,0.0,0.0,0.0,0.0,0.0,0.0,0.0,0.0,0.0,0.0,0.0,0.0,0.0,0.0,0.0,0.0,0.0,0.0,0.0,0.0,0.0,0.0,0.0,0.0,0.0,0.0,0.0,0.0,0.0,0.0,0.0,0.0,0.0,0.0,0.0,0.0,0.0,0.0,0.0,0.0,0.0,0.0,0.0,-2.4906,-2.5124,-2.555,-2.5808,-2.5808,-2.5979,-2.5906,-2.5643,-2.5349,-2.5028,0.0,0.0,0.0,0.0,0.0,0.0,0.0,0.0,0.0,0.0,0.0,0.0,0.0,0.0,0.0,0.0,0.0,0.0,0.0,0.0,0.0,0.0,0.0,0.0,0.0,0.0,0.0,0.0,0.0,0.0,0.0,0.0,0.0,0.0,0.0,0.0,0.0,0.0,0.0,0.0,0.0,0.0,-2.6574,-2.6516,0.0,0.0,0.0,-2.6004,-2.5901,0.0,0.0,0.0,0.0,0.0,0.0,0.0,0.0,0.0,0.0,0.0,0.0,0.0,0.0,0.0,0.0,0.0,0.0,0.0,0.0,0.0,0.0,0.0,0.0,0.0,0.0,0.0,0.0,0.0,0.0,0.0,0.0,0.0,0.0,0.0,0.0,0.0,0.0,0.0,0.0,0.0,0.0,0.0,0.0,0.0,0.0,0.0,0.0,0.0,0.0,0.0,0.0,0.0,0.0,0.0,0.0,0.0,-2.4865,-2.5727,-2.608,-2.5993,-2.622,-2.624,-2.5919,-2.5704,0.0,0.0,0.0,0.0,0.0,0.0,0.0,0.0,0.0,0.0,0.0,0.0,0.0,0.0,0.0,0.0,0.0,0.0,0.0,0.0,0.0,0.0,0.0,0.0,0.0,0.0,0.0,-2.5664,0.0,0.0,0.0,0.0,0.0,0.0,0.0,0.0,0.0,0.0,0.0,0.0,0.0,0.0,-2.7056,-2.6794,-2.6907,-2.7001,0.0,0.0,-2.6847,-2.6763,-2.6652,-2.6585,0.0,0.0,0.0,0.0,0.0,0.0,0.0,0.0,0.0,0.0,0.0,0.0,0.0,0.0,0.0,0.0,0.0,0.0,0.0,0.0,0.0,0.0,0.0,0.0,0.0,0.0,0.0,0.0,0.0,0.0,0.0,0.0,0.0,0.0,0.0,0.0,0.0,0.0,0.0,0.0,0.0,0.0,0.0,0.0,0.0,0.0,0.0,0.0,0.0,0.0,0.0,0.0,0.0,0.0,-2.4726,-2.5148,-2.5591,-2.6034,-2.6436,-2.6284,-2.6091,-2.6051,-2.5464,-2.5134,0.0,0.0,0.0,0.0,0.0,0.0,0.0,0.0,0.0,0.0,0.0,0.0,0.0,0.0,0.0,0.0,0.0,0.0,0.0,0.0,0.0,0.0,0.0,0.0,0.0,0.0,0.0,0.0,0.0,0.0,0.0,0.0,0.0,0.0,0.0,0.0,0.0,0.0,0.0,0.0,0.0,-2.7139,-2.6917,-2.7099,-2.716,0.0,-2.728,-2.7502,-2.7305,-2.6846,-2.6583,-2.6583,0.0,0.0,0.0,0.0,0.0,0.0,0.0,0.0,0.0,0.0,0.0,0.0,0.0,0.0,0.0,0.0,0.0,0.0,0.0,0.0,0.0,0.0,0.0,0.0,0.0,0.0,0.0,0.0,0.0,0.0,0.0,0.0,0.0,0.0,0.0,0.0,0.0,0.0,0.0,0.0,0.0,0.0,0.0,0.0,0.0,0.0,0.0,0.0,0.0,0.0,0.0,0.0,0.0,-2.5057,-2.5292,-2.5729,-2.6048,-2.6014,-2.5917,-2.582,-2.582,-2.5566,-2.5352,0.0,0.0,0.0,0.0,0.0,0.0,0.0,0.0,0.0,0.0,0.0,0.0,0.0,0.0,0.0,0.0,0.0,0.0,0.0,0.0,0.0,0.0,0.0,0.0,0.0,0.0,0.0,0.0,-2.7039,-2.716,-2.716,0.0,0.0,0.0,0.0,0.0,0.0,0.0,0.0,0.0,0.0,-2.7584,-2.7356,-2.7446,0.0,0.0,-2.748,-2.7414,-2.7326,-2.7173,-2.6976,-2.691,-2.6649,0.0,0.0,0.0,0.0,0.0,0.0,0.0,0.0,0.0,0.0,0.0,0.0,0.0,0.0,0.0,0.0,0.0,0.0,0.0,0.0,0.0,0.0,0.0,0.0,0.0,0.0,0.0,0.0,0.0,0.0,0.0,0.0,0.0,0.0,0.0,0.0,0.0,0.0,0.0,0.0,0.0,0.0,0.0,0.0,0.0,0.0,0.0,0.0,0.0,0.0,0.0,0.0,-2.5232,-2.5342,-2.5777,-2.5976,-2.5918,-2.5801,-2.5801,-2.5918,-2.5801,-2.5586,0.0,0.0,0.0,0.0,0.0,0.0,0.0,0.0,0.0,0.0,0.0,0.0,0.0,0.0,0.0,0.0,0.0,0.0,0.0,0.0,0.0,0.0,0.0,0.0,0.0,0.0,0.0,0.0,-2.7143,-2.7239,-2.7186,0.0,0.0,0.0,0.0,0.0,0.0,0.0,0.0,0.0,0.0,-2.7833,-2.7707,-2.7678,-2.7833,-2.7811,-2.7743,-2.7741,-2.7651,-2.7542,-2.7366,-2.7119,0.0,0.0,0.0,0.0,0.0,0.0,0.0,0.0,0.0,0.0,0.0,0.0,0.0,0.0,0.0,0.0,0.0,0.0,0.0,0.0,0.0,0.0,0.0,0.0,0.0,0.0,0.0,-1.8748,0.0,0.0,-1.9658,0.0,0.0,0.0,0.0,0.0,0.0,0.0,0.0,0.0,0.0,0.0,0.0,0.0,0.0,0.0,0.0,0.0,0.0,0.0,0.0,0.0,0.0,-2.5153,-2.5078,-2.5547,-2.5957,-2.6348,-2.5957,-2.5957,-2.6348,-2.5977,-2.5742,-2.5723,0.0,0.0,0.0,0.0,0.0,0.0,0.0,0.0,0.0,0.0,0.0,0.0,0.0,0.0,0.0,0.0,0.0,0.0,0.0,0.0,0.0,0.0,0.0,0.0,0.0,0.0,-2.7105,-2.7767,-2.8051,0.0,0.0,0.0,0.0,0.0,0.0,0.0,0.0,0.0,-2.792,-2.7951,-2.7919,-2.7766,-2.7898,-2.8025,-2.8025,-2.8418,-2.8631,-2.8445,-2.7985,-2.757,0.0,0.0,0.0,0.0,0.0,0.0,0.0,0.0,0.0,0.0,0.0,0.0,0.0,0.0,0.0,0.0,0.0,0.0,0.0,0.0,0.0,0.0,0.0,0.0,0.0,0.0,0.0,-1.9956,-2.0117,0.0,0.0,0.0,0.0,0.0,0.0,0.0,0.0,0.0,0.0,0.0,-2.3769,-2.3769,0.0,0.0,0.0,0.0,0.0,0.0,0.0,0.0,0.0,0.0,0.0,0.0,-2.5352,-2.5918,-2.6094,-2.6367,-2.6797,-2.666,-2.666,-2.6797,-2.666,-2.6465,-2.6172,0.0,0.0,0.0,0.0,0.0,0.0,0.0,0.0,0.0,0.0,0.0,0.0,0.0,0.0,0.0,0.0,0.0,0.0,0.0,0.0,0.0,0.0,0.0,0.0,0.0,-2.7622,0.0,0.0,0.0,0.0,0.0,0.0,0.0,0.0,0.0,0.0,0.0,-2.8408,-2.8064,-2.8143,-2.8277,-2.8187,-2.8404,-2.8528,0.0,0.0,0.0,0.0,0.0,0.0,0.0,0.0,0.0,0.0,0.0,0.0,0.0,0.0,-2.801,-2.7029,-2.6883,-2.6993,-2.7171,0.0,0.0,0.0,0.0,0.0,0.0,0.0,0.0,0.0,0.0,0.0,0.0,0.0,0.0,-2.0771,0.0,-2.0924,0.0,0.0,0.0,0.0,0.0,0.0,0.0,0.0,-2.3887,-2.416,-2.4414,-2.4414,-2.4492,0.0,-2.4648,-2.4805,0.0,0.0,0.0,0.0,0.0,0.0,0.0,0.0,-2.582,-2.6367,-2.6523,-2.6816,-2.7207,-2.709,-2.709,-2.7226,-2.709,-2.6875,-2.6621,-2.5918,-2.5527,0.0,0.0,0.0,0.0,0.0,0.0,0.0,0.0,0.0,0.0,0.0,0.0,0.0,0.0,0.0,0.0,0.0,0.0,0.0,0.0,0.0,0.0,0.0,-2.8008,0.0,0.0,0.0,0.0,0.0,0.0,0.0,0.0,0.0,-2.8202,-2.8505,-2.8562,-2.821,-2.861,-2.8848,-2.8848,0.0,0.0,0.0,0.0,0.0,0.0,0.0,-2.8768,-2.8885,-2.8828,-2.8828,-2.8607,-2.8607,-2.8628,-2.8828,0.0,0.0,-2.7713,-2.7594,-2.7594,-2.78,-2.78,-2.7893,-2.8055,-2.8034,-2.8034,0.0,0.0,0.0,0.0,0.0,0.0,0.0,0.0,-2.0801,-2.114,0.0,-2.132,0.0,0.0,0.0,0.0,0.0,-2.419,0.0,0.0,-2.4473,-2.4473,-2.4512,-2.4531,-2.4727,-2.5117,-2.5156,-2.5586,-2.6289,-2.5137,0.0,0.0,0.0,0.0,0.0,0.0,-2.6406,-2.6445,-2.6836,-2.7246,-2.7656,-2.7285,-2.7266,-2.7656,-2.7266,-2.7031,-2.7012,-2.6621,-2.6406,-2.6406,-2.5586,0.0,0.0,0.0,0.0,0.0,0.0,0.0,0.0,0.0,0.0,0.0,0.0,0.0,0.0,0.0,0.0,0.0,0.0,0.0,0.0,-2.776,0.0,0.0,0.0,0.0,0.0,0.0,0.0,0.0,0.0,0.0,-2.8779,-2.8722,-2.8633,-2.8519,0.0,0.0,0.0,0.0,-2.9817,-2.9817,-2.9522,-2.9324,-2.909,-2.909,-2.899,-2.8731,0.0,0.0,-2.8731,-2.8731,-2.8752,-2.8711,-2.8794,-2.889,-2.931,-2.9282,-2.9218,-2.9338,-2.9296,-2.9381,-2.9381,-2.921,-2.9253,-2.1875,0.0,0.0,0.0,0.0,-2.1596,-2.1596,-2.1596,-2.1702,-2.1755,-2.1848,-2.2035,0.0,0.0,0.0,0.0,0.0,0.0,-2.4766,-2.5352,-2.5352,-2.5684,-2.6269,-2.6269,-2.6328,-2.6445,-2.6465,-2.6582,-2.6816,-2.6445,-2.6328,-2.6445,0.0,0.0,0.0,0.0,-2.6992,-2.7285,-2.7422,-2.7695,-2.8105,-2.7988,-2.7988,-2.8105,-2.7715,-2.748,-2.748,-2.707,-2.6836,-2.6836,-2.6309,0.0,0.0,0.0,0.0,0.0,0.0,0.0,0.0,0.0,0.0,0.0,0.0,0.0,0.0,0.0,0.0,0.0,0.0,0.0,-2.7741,-2.7875,-2.8051,0.0,0.0,0.0,0.0,0.0,0.0,0.0,0.0,0.0,-3.0063,-2.9769,-2.9604,0.0,0.0,-2.984,-2.9721,-2.9633,-2.9522,-2.9522,-2.9324,0.0,-2.9908,-2.9807,-2.9933,-3.047,-3.0574,-3.0594,-3.0594,-3.0594,-3.0574,-3.0574,-3.0594,-3.0701,-3.0724,-2.9682,-2.899,-2.9027,-2.9126,-2.9225,-2.9324,-2.9402,-2.9423,-2.2199,-2.1812,-2.1761,-2.1892,-2.2189,-2.2287,-2.2287,-2.2403,-2.2641,-2.281,-2.2909,-2.3206,-2.3305,-2.3502,-2.411,0.0,0.0,0.0,-2.5723,-2.623,-2.625,-2.6523,-2.6992,-2.7012,-2.7012,-2.7012,-2.7012,-2.7109,-2.7266,-2.7266,-2.7441,-2.7734,0.0,0.0,-2.7031,-2.7187,-2.7402,-2.7676,-2.8008,-2.8281,-2.8535,-2.8711,-2.8789,-2.8789,-2.8379,-2.8164,-2.8144,-2.7598,-2.7266,-2.7266,-2.6875,-2.6523,0.0,0.0,0.0,0.0,0.0,0.0,0.0,0.0,0.0,0.0,0.0,-2.5748,-2.5836,0.0,0.0,0.0,-2.7233,-2.7763,-2.8338,-2.8564,0.0,0.0,0.0,0.0,0.0,0.0,0.0,-3.0326,-3.04,-3.0536,-3.0811,-3.0636,-3.0319,-3.0035,-3.0162,-3.0199,-3.0199,0.0,-3.0324,-3.0324,-3.0139,-3.012,-3.0641,-3.0639,-3.0739,-3.1278,-3.1381,-3.1381,-3.1381,-3.1381,-3.1381,-3.1381,-3.1381,-3.1381,-3.1381,-3.045,-2.9725,-2.9932,-2.9932,-3.0036,-3.0118,-3.0221,-3.0242,-2.2349,-2.2549,-2.2421,-2.2314,-2.2319,-2.2632,-2.2736,-2.277,-2.3406,-2.3877,-2.4088,-2.4403,-2.4613,-2.5032,-2.5863,0.0,-2.6172,-2.6807,-2.7031,-2.7129,-2.7109,-2.7148,-2.7226,-2.7226,-2.7226,-2.7226,-2.7226,-2.7422,-2.7812,-2.7832,-2.8203,-2.8926,-2.7812,-2.7207,-2.7246,-2.7617,-2.7812,-2.7832,-2.8574,-2.8965,-2.8965,-2.9355,-2.957,-2.957,-2.918,-2.8965,-2.8945,-2.8203,-2.7773,-2.7754,-2.7324,-2.707,-2.7051,0.0,0.0,0.0,0.0,0.0,0.0,0.0,0.0,0.0,0.0,0.0,0.0,0.0,0.0,-2.6695,-2.7393,0.0,-2.9084,-2.9363,0.0,0.0,0.0,-3.0577,-3.0793,-3.0763,-3.071,-3.0612,0.0,0.0,-3.1219,-3.1245,-3.0922,-3.0084,-3.0504,-3.083,-3.0851,-3.1316,-3.1776,-3.1692,-3.1558,-3.136,-3.136,-3.1485,-3.1629,-3.1733,-3.1588,-3.1692,-3.1712,-3.1692,-3.1629,-3.1712,-3.1609,-3.165,-3.1609,-3.1629,-3.1588,-3.1588,-3.1422,-3.1319,-3.1345,-3.1324,-3.1304,-2.3677,-2.3662,-2.3696,-2.3262,-2.2716,-2.2911,-2.3017,-2.314,-2.3525,-2.3877,-2.4088,-2.4403,-2.4823,-2.5362,-2.5966,-2.6172,-2.6172,-2.6807,-2.7363,-2.7969,-2.7988,-2.834,-2.8945,-2.8965,-2.8965,-2.8965,-2.8965,-2.9023,-2.9121,-2.9121,-2.9219,-2.9394,-2.9101,-2.8965,-2.8965,-2.9062,-2.9121,-2.9121,-2.9316,-2.9414,-2.9414,-2.9512,-2.957,-2.957,-2.9473,-2.9414,-2.9394,-2.8906,-2.8633,-2.8594,-2.791,-2.7519,-2.75,-2.709,0.0,0.0,0.0,0.0,0.0,0.0,0.0,0.0,0.0,-2.6505,-2.6505,0.0,-2.7639,0.0,-2.854,-2.9095,-2.933,-2.9547,0.0,0.0,-3.0209,-3.0307,-3.0405,-3.0943,-3.128,-3.1077,-3.1625,-3.2038,-3.1955,-3.1784,-3.1592,-3.1381,-3.1443,-3.1569,-3.159,-3.1542,-3.1491,-3.1511,-3.1553,-3.1505,-3.1878,-3.2478,-3.2996,-3.3368,-3.341,-3.343,-3.343,-3.343,-3.343,-3.343,-3.343,-3.343,-3.3389,-3.343,-3.341,-3.3327,-3.2354,-3.1381,-3.1381,-3.1402,-3.1402,-2.4172,-2.4172,-2.429,-2.4072,-2.3694,-2.3917,-2.4139,-2.425,-2.4565,-2.4896,-2.5099,-2.5555,-2.61,-2.6643,-2.7074,-2.7397,-2.7504,-2.7931,-2.8398,-2.8848,-2.8867,-2.9121,-2.957,-2.957,-2.957,-2.957,-2.957,-2.957,-2.957,-2.957,-2.9668,-2.9844,-2.9863,-2.9941,-3.0137,-2.9766,-2.957,-2.957,-2.9746,-2.9941,-3.0156,-3.0156,-3.0156,-3.0156,-2.9961,-2.9844,-2.9844,-2.9434,-2.9219,-2.9199,-2.8769,-2.8418,-2.8223,-2.7937,-2.7708,0.0,0.0,0.0,0.0,0.0,0.0,0.0,0.0,0.0,0.0,0.0,-2.8235,-2.8432,-2.888,-2.931,-2.95,-2.9934,-3.0349,-3.0542,-3.0837,-3.1068,-3.1068,-3.1521,-3.1844,-3.1655,-3.2105,-3.2468,-3.2543,-3.2517,-3.2462,-3.2839,-3.2788,-3.2642,-3.2288,-3.2238,-3.2333,-3.254,-3.2582,-3.2644,-3.2913,-3.3348,-3.3782,-3.401,-3.4072,-3.4072,-3.4072,-3.4072,-3.4072,-3.4072,-3.4072,-3.4072,-3.4072,-3.4072,-3.4072,-3.3948,-3.3285,-3.2664,-3.2582,-3.2582,-3.2582,-2.4444,-2.4444,-2.4801,-2.4919,-2.5038,-2.5274,-2.5411,-2.5477,-2.5827,-2.6157,-2.6504,-2.7079,-2.7669,-2.8219,-2.8559,-2.8897,-2.9122,-2.9458,-2.959,-2.9648,-2.9648,-2.9687,-2.9746,-2.9746,-2.9766,-2.9824,-2.9824,-2.9863,-2.9902,-2.9902,-3.0098,-3.043,-3.0449,-3.0644,-3.0996,-3.0293,-2.9883,-2.9824,-3.0234,-3.0644,-3.1035,-3.1055,-3.1035,-3.0957,-3.0586,-3.0332,-3.0273,-2.9883,-2.9648,-2.976,-2.9721,-2.9505,-2.9133,-2.8996,-2.8727,0.0,-2.8284,0.0,0.0,0.0,0.0,0.0,0.0,0.0,0.0,-2.8731,-2.8835,-2.8959,-2.9182,-2.945,-2.9929,-3.0557,-3.1063,-3.1551,-3.1955,-3.221,-3.2189,-3.2295,-3.2402,-3.2293,-3.2378,-3.267,-3.309,-3.3215,-3.3434,-3.3921,-3.3906,-3.3679,-3.3182,-3.3244,-3.3534,-3.401,-3.4072,-3.3886,-3.4031,-3.4113,-3.4176,-3.4238,-3.43,-3.4238,-3.43,-3.4279,-3.4258,-3.4279,-3.43,-3.4279,-3.4238,-3.4258,-3.4258,-3.43,-3.4217,-3.4113,-3.3969,-3.3906,-3.4072,-2.6258,-2.6258,-2.651,-2.6885,-2.7135,-2.7135,-2.6571,-2.5594,-2.6041,-2.6619,-2.7194,-2.7537,-2.7879,-2.8219,-2.8559,-2.8785,-2.9122,-2.9458,-2.9746,-3.0078,-3.0078,-3.0273,-3.0625,-3.0644,-3.082,-3.1133,-3.1152,-3.1328,-3.168,-3.168,-3.1719,-3.1797,-3.1797,-3.1836,-3.1914,0.0,0.0,0.0,-3.1582,-3.1836,-3.1934,-3.1934,-3.1758,-3.1406,-3.1309,0.0,-3.0762,-3.0312,-3.0192,-3.0438,-3.0102,0.0,0.0,0.0,0.0,0.0,0.0,0.0,0.0,0.0,0.0,0.0,-3.0843,-3.0222,-2.8794,-2.9311,-3.0036,-3.0781,-3.0971,-3.0992,-3.1096,-3.1374,-3.1674,-3.1759,-3.206,-3.221,-3.2231,-3.2891,-3.3247,-3.291,-3.3539,-3.4043,-3.3859,-3.3921,-3.3983,-3.4072,-3.4072,-3.4176,-3.4341,-3.4093,-3.3989,-3.4051,-3.4134,-3.4238,-3.4569,-3.4631,-3.4734,-3.5045,-3.5169,-3.5148,-3.5107,-3.5128,-3.5148,-3.5148,-3.5169,-3.5148,-3.5169,-3.5169,-3.5169,-3.5169,-3.5169,-3.4941,-3.4238,-3.4072,-3.4072,-2.6807,-2.6918,-2.73,-2.768,0.0,-2.8186,-2.7882,-2.7297,-2.7521,-2.7882,-2.848,-2.8957,-2.9431,-2.9667,-3.0039,-3.0392,-3.0626,-3.0859,-3.0957,-3.1172,-3.1172,-3.1289,-3.1523,-3.1523,-3.1621,-3.1836,-3.1836,-3.1953,-3.2168,-3.2168,-3.2168,-3.2168,-3.2168,-3.2168,-3.2168,-3.2383,-3.2266,-3.1836,-3.2051,-3.2168,-3.2168,-3.2168,-3.2051,-3.1836,-3.1836,0.0,0.0,0.0,0.0,0.0,0.0,0.0,0.0,-3.0913,0.0,-3.0701,-3.1011,-3.1121,-3.1141,-3.136,-3.1381,-3.1381,-3.1381,-3.0988,-3.0036,-3.0408,-3.0864,-3.1319,-3.1381,-3.1381,-3.1381,-3.1885,-3.2267,-3.2267,-3.2755,-3.314,-3.3182,-3.356,-3.3717,-3.3643,-3.3997,-3.4372,-3.4503,-3.4403,-3.4507,-3.4693,-3.4734,-3.4817,-3.4983,-3.4693,-3.4465,-3.4693,-3.4734,-3.4817,-3.5024,-3.5086,-3.5148,-3.5376,-3.5418,-3.5418,-3.5418,-3.5418,-3.548,-3.5687,-3.5769,-3.5811,-3.6059,-3.6101,-3.6101,-3.6101,-3.6101,-3.5976,-3.548,-3.5066,-3.4734,-2.7243,-2.7627,-2.7865,-2.8247,-2.8645,-2.8881,-2.9259,-2.9511,0.0,0.0,0.0,-3.0433,-3.0926,-3.1294,-3.1558,-3.1924,-3.2168,-3.2168,-3.2168,-3.2168,-3.2168,-3.2168,-3.2168,-3.2168,-3.2207,-3.2285,-3.2285,-3.2324,-3.2383,-3.2383,-3.2402,-3.2383,-3.2402,-3.2383,-3.2402,-3.2734,-3.2734,-3.2402,-3.2383,-3.2402,-3.2383,-3.2383,-3.2363,-3.2407,-3.2407,-3.2489,-3.2774,-3.2774,-3.2715,-3.271,-3.269,-3.2347,-3.164,-3.1921,-3.1871,-3.1523,-3.1725,-3.1857,-3.1857,-3.1857,-3.1857,-3.1857,-3.1857,-3.1754,-3.1526,-3.1567,-3.165,-3.1733,-3.1795,-3.1857,-3.1857,-3.252,-3.2975,-3.2975,-3.3637,-3.4051,-3.4051,-3.4155,-3.4176,-3.4196,-3.4279,-3.4445,-3.4817,-3.4962,-3.5128,-3.5459,-3.5604,-3.5666,-3.5604,-3.5314,-3.519,-3.5583,-3.5666,-3.5666,-3.5666,-3.5687,-3.5666,-3.5728,-3.5728,-3.5666,-3.5666,-3.5666,-3.5811,-3.6183,-3.6246,-3.639,-3.6701,-3.6742,-3.6804,-3.6804,-3.6804,-3.6804,-3.6742,-3.6204,-3.5687,-2.877,-2.9014,-2.9405,-2.9665,-3.0072,-3.0201,-3.0459,-3.103,-2.9978,-2.9937,-3.0556,-3.068,-3.1049,-3.168,-3.168,-3.1924,-3.2168,-3.2168,-3.2168,-3.2168,-3.2168,-3.2168,-3.2168,-3.2168,-3.2363,-3.2695,-3.2695,-3.2891,-3.3203,-3.3223,-3.3242,-3.3242,-3.3242,-3.3242,-3.3242,-3.3301,-3.3301,-3.3242,-3.3242,-3.3242,-3.3242,-3.3242,-3.3191,-3.3105,-3.3188,-3.3132,-3.3155,-3.3155,-3.3215,-3.3374,-3.3493,-3.3551,-3.3664,-3.3644,-3.3741,-3.3679,-3.3679,-3.3679,-3.3679,-3.3679,-3.3699,-3.3699,-3.3699,-3.3203,-3.2085,-3.2313,-3.2685,-3.3037,-3.3389,-3.3679,-3.3699,-3.3762,-3.3844,-3.3886,-3.3989,-3.4072,-3.4113,-3.4445,-3.4672,-3.4693,-3.5004,-3.5231,-3.5376,-3.5687,-3.5914,-3.6059,-3.6266,-3.6556,-3.6494,-3.6225,-3.6142,-3.6494,-3.6618,-3.6618,-3.6515,-3.6597,-3.6535,-3.6618,-3.6556,-3.6494,-3.6494,-3.6494,-3.6556,-3.668,-3.6701,-3.6763,-3.6867,-3.6804,-3.6887,-3.6908,-3.6929,-3.6887,-3.6908,-3.6722,-3.6618,-2.9316,-2.9561,-2.997,-3.0361,-3.075,-3.1009,-3.1525,-3.1873,-3.1373,-3.1332,-3.1602,-3.1853,-3.2104,-3.2354,-3.2478,-3.2727,-3.2851,-3.2851,-3.2851,-3.2851,-3.2851,-3.2851,-3.2851,-3.2832,-3.2949,-3.3125,-3.3125,-3.3223,-3.3398,-3.3418,-3.3535,-3.3769,-3.4004,-3.4121,-3.4121,-3.4121,-3.4121,-3.4101,-3.3652,-3.3418,-3.3418,-3.3544,-3.3697,-3.3624,-3.3749,-3.3917,-3.4085,-3.4085,-3.4207,-3.4224,-3.4324,-3.4221,-3.4093,-3.4072,-3.4072,-3.4072,-3.4072,-3.4072,-3.4072,-3.4072,-3.4072,-3.4072,-3.4072,-3.3824,-3.3203,-3.3327,-3.3534,-3.3741,-3.3948,-3.4072,-3.4072,-3.43,-3.4445,-3.4445,-3.4652,-3.4797,-3.4817,-3.4962,-3.5211,-3.5459,-3.5666,-3.5894,-3.6142,-3.637,-3.6494,-3.6515,-3.6701,-3.6887,-3.7136,-3.7011,-3.6825,-3.6825,-3.6804,-3.6804,-3.6825,-3.6804,-3.6804,-3.6804,-3.6804,-3.6804,-3.6804,-3.6804,-3.6929,-3.7136,-3.7177,-3.7281,-3.7467,-3.755,-3.755,-3.755,-3.755,-3.755,-3.755,-3.755,-3.7384,-2.9691,-3.0083,-3.049,-3.0879,-3.1267,-3.1782,-3.2166,-3.2549,-3.253,-3.2549,-3.2676,-3.2785,-3.2912,-3.3038,-3.3292,-3.3418,-3.3418,-3.3418,-3.3418,-3.3418,-3.3418,-3.3418,-3.3418,-3.3418,-3.3476,-3.3555,-3.3574,-3.3613,-3.3691,-3.3711,-3.3887,-3.4219,-3.4551,-3.4687,-3.4687,-3.4687,-3.4687,-3.4648,-3.4043,-3.3711,-3.3838,-3.4092,-3.4346,-3.4472,-3.4725,-3.4977,-3.5353,-3.5353,-3.5273,-3.5107,-3.5066,-3.4859,-3.4403,-3.4362,-3.4383,-3.4383,-3.4383,-3.4383,-3.4362,-3.4383,-3.4362,-3.4362,-3.4383,-3.4383,-3.4383,-3.4383,-3.432,-3.4258,-3.4341,-3.4403,-3.4465,-3.4693,-3.4941,-3.5066,-3.5355,-3.5604,-3.5707,-3.5728,-3.5852,-3.6204,-3.6266,-3.6411,-3.6722,-3.6908,-3.7011,-3.7115,-3.7115,-3.7281,-3.757,-3.7653,-3.7488,-3.7239,-3.7115,-3.7156,-3.7115,-3.7156,-3.7156,-3.7115,-3.7156,-3.7198,-3.7198,-3.7156,-3.7239,-3.757,-3.7653,-3.7757,-3.8088,-3.815,-3.8129,-3.8088,-3.8067,-3.8129,-3.8109,-3.8109,-3.7984,-3.023,-3.075,-3.1156,-3.1635,-3.2185,-3.2313,-3.2587,-3.2823,-3.2931,-3.3038,-3.335,-3.3058,-3.3058,-3.3292,-3.3418,-3.3418,-3.3418,-3.3418,-3.3437,-3.3437,-3.3418,-3.3418,-3.3457,-3.3437,-3.3633,-3.3965,-3.4004,-3.418,-3.4492,-3.4551,-3.459,-3.4648,-3.4687,-3.4726,-3.4726,-3.4726,-3.4707,-3.4707,-3.4629,-3.472,-3.5111,-3.5111,-3.5501,-3.6017,-3.6146,-3.6295,-3.649,-3.666,-3.6453,-3.6039,-3.5976,-3.5769,-3.5355,-3.5293,-3.5293,-3.5293,-3.5293,-3.5293,-3.5293,-3.5293,-3.5293,-3.5293,-3.5293,-3.5293,-3.5293,-3.5293,-3.5128,-3.49,-3.5086,-3.5252,-3.5314,-3.5355,-3.5562,-3.5894,-3.5997,-3.6204,-3.6535,-3.668,-3.6701,-3.6722,-3.6742,-3.6763,-3.6908,-3.7218,-3.7591,-3.7881,-3.7881,-3.7922,-3.8005,-3.8046,-3.8046,-3.8005,-3.8026,-3.8005,-3.7984,-3.8046,-3.7922,-3.7964,-3.8026,-3.7943,-3.7902,-3.7943,-3.8067,-3.7922,-3.8067,-3.8109,-3.815,-3.8191,-3.8191,-3.8191,-3.8191,-3.8191,-3.8191,-3.8191,-3.8067,-3.1432,-3.1979,-3.2374,-3.2899,-3.3402,-3.3402,-3.3662,-3.3921,-3.3921,-3.405,-3.418,-3.405,-3.3778,-3.3418,-3.3418,-3.3418,-3.3437,-3.3691,-3.3809,-3.3828,-3.4062,-3.418,-3.418,-3.418,-3.4277,-3.4434,-3.4434,-3.4531,-3.4726,-3.498,-3.5098,-3.5137,-3.5351,-3.5488,-3.5488,-3.5488,-3.5469,-3.5488,-3.5488,-3.5736,-3.621,-3.5902,-3.5771,-3.6289,-3.6547,-3.6676,-3.6804,-3.6804,-3.6722,-3.6535,-3.6515,-3.6432,-3.6246,-3.6246,-3.6246,-3.6246,-3.6246,-3.6246,-3.6246,-3.6246,-3.6246,-3.6246,-3.6246,-3.6246,-3.6246,-3.6246,-3.6163,-3.5997,-3.5894,-3.5914,-3.6183,-3.6246,-3.6328,-3.6494,-3.6515,-3.6597,-3.6763,-3.6804,-3.6887,-3.7136,-3.7218,-3.7322,-3.757,-3.7777,-3.7984,-3.8171,-3.8191,-3.8191,-3.8191,-3.8191,-3.8191,-3.8191,-3.8191,-3.8191,-3.8191,-3.8191,-3.8191,-3.8191,-3.8191,-3.8191,-3.8191,-3.8191,-3.8171,-3.8191,-3.8212,-3.8212,-3.8171,-3.8191,-3.8191,-3.8233,-3.8191,-3.8191,-3.8191,-3.8191,-3.8191,-3.2454,-3.2855,-3.3254,-3.3785,-3.4313,-3.4313,-3.4444,-3.4707,-3.4687,-3.4687,-3.4687,-3.4687,-3.4375,-3.3828,-3.3769,-3.3769,-3.3809,-3.4101,-3.4258,-3.4277,-3.457,-3.4687,-3.4687,-3.4687,-3.4766,-3.4883,-3.4902,-3.4941,-3.5078,-3.5391,-3.5566,-3.5605,-3.5879,-3.6035,-3.6035,-3.6035,-3.6035,-3.6016,-3.6035,-3.6423,-3.6864,-3.6455,-3.6395,-3.6787,-3.7047,-3.7177,-3.7177,-3.7177,-3.7115,-3.6991,-3.6991,-3.6929,-3.6804,-3.6804,-3.6804,-3.6804,-3.6804,-3.6804,-3.6804,-3.6804,-3.6804,-3.6804,-3.6804,-3.6804,-3.6804,-3.6804,-3.6867,-3.6949,-3.6701,-3.6618,-3.6742,-3.6804,-3.6846,-3.697,-3.6991,-3.7011,-3.7177,-3.7177,-3.7343,-3.7632,-3.7695,-3.7798,-3.8088,-3.8171,-3.8171,-3.8191,-3.8191,-3.8191,-3.8191,-3.8191,-3.8191,-3.8191,-3.8274,-3.8316,-3.8233,-3.8191,-3.8191,-3.8191,-3.8191,-3.8191,-3.8191,-3.8191,-3.8191,-3.8191,-3.8253,-3.8378,-3.8502,-3.846,-3.8543,-3.8543,-3.8543,-3.8543,-3.8667,-3.8585,-3.8585,-3.2873,-3.3292,-3.3936,-3.4371,-3.4726,-3.4746,-3.4726,-3.4785,-3.4746,-3.4726,-3.4766,-3.4746,-3.4687,-3.4648,-3.4648,-3.4629,-3.4629,-3.4648,-3.4687,-3.4687,-3.4746,-3.4707,-3.4687,-3.4707,-3.4941,-3.5332,-3.5351,-3.5547,-3.5879,-3.5957,-3.5996,-3.5996,-3.6016,-3.6035,-3.6035,-3.6035,-3.6035,-3.6035,-3.6035,-3.6287,-3.6944,-3.7038,-3.738,-3.7914,-3.8088,-3.8067,-3.8088,-3.8109,-3.7902,-3.7488,-3.7467,-3.7281,-3.6887,-3.6846,-3.6867,-3.6846,-3.6846,-3.6846,-3.6867,-3.6887,-3.6887,-3.6846,-3.6929,-3.6846,-3.6949,-3.6949,-3.7094,-3.7425,-3.7405,-3.726,-3.697,-3.697,-3.7094,-3.7405,-3.7467,-3.7653,-3.8026,-3.7984,-3.8109,-3.8129,-3.8088,-3.8109,-3.8171,-3.8191,-3.8212,-3.8212,-3.8212,-3.8253,-3.8336,-3.8274,-3.8295,-3.8378,-3.8543,-3.8688,-3.8316,-3.8398,-3.8357,-3.8378,-3.8481,-3.8295,-3.8212,-3.8191,-3.8233,-3.8336,-3.8626,-3.8812,-3.8895,-3.904,-3.9247,-3.9309,-3.9268,-3.9268,-3.9144,-3.9371,-3.933,-3.4059,-3.4738,-3.5143,-3.5412,-3.5547,-3.5547,-3.5547,-3.5547,-3.5547,-3.5547,-3.5547,-3.5547,-3.5547,-3.5547,-3.5547,-3.5234,-3.4766,-3.5,-3.5156,-3.5176,-3.541,-3.5547,-3.5547,-3.5547,-3.5625,-3.5762,-3.5801,-3.5879,-3.5996,-3.6035,-3.6035,-3.6035,-3.6035,-3.6035,-3.6035,-3.6035,-3.6035,-3.6035,-3.6035,-3.6423,-3.6964,-3.7079,-3.7502,-3.8171,-3.8191,-3.8191,-3.8191,-3.8191,-3.8109,-3.7943,-3.7943,-3.786,-3.7715,-3.7695,-3.7695,-3.7695,-3.7695,-3.7695,-3.7674,-3.7695,-3.7695,-3.7695,-3.7695,-3.7653,-3.7674,-3.7695,-3.7757,-3.7902,-3.7943,-3.7839,-3.7757,-3.7695,-3.7757,-3.7881,-3.7943,-3.7984,-3.8129,-3.8191,-3.8191,-3.8191,-3.8191,-3.8191,-3.8253,-3.8191,-3.8295,-3.8543,-3.8605,-3.873,-3.8978,-3.904,-3.8999,-3.9061,-3.9164,-3.9226,-3.9102,-3.9061,-3.9061,-3.9061,-3.9081,-3.9061,-3.9019,-3.8937,-3.8978,-3.8937,-3.9164,-3.9309,-3.9392,-3.9475,-3.9702,-3.9682,-3.9661,-3.9744,-3.9537,-3.9723,-3.9682,-3.5059,-3.5606,-3.5879,-3.6035,-3.6035,-3.6035,-3.6035,-3.6035,-3.6035,-3.6035,-3.6035,-3.6035,-3.6035,-3.6035,-3.6035,-3.5723,-3.5195,-3.5449,-3.5586,-3.5625,-3.5898,-3.6035,-3.6035,-3.6035,-3.6035,-3.6016,-3.6035,-3.6035,-3.6035,-3.6035,-3.6035,-3.6035,-3.6035,-3.6035,-3.6035,-3.6035,-3.6035,-3.6035,-3.6152,-3.6504,-3.7049,-3.7441,-3.7793,-3.8356,-3.8626,-3.846,-3.8212,-3.8191,-3.8191,-3.8191,-3.8191,-3.8191,-3.8191,-3.8191,-3.8191,-3.8191,-3.8171,-3.8191,-3.8191,-3.8191,-3.8171,-3.8191,-3.8191,-3.8191,-3.8191,-3.8191,-3.8191,-3.8191,-3.8191,-3.8191,-3.8212,-3.8295,-3.8336,-3.8233,-3.8191,-3.8191,-3.8191,-3.8191,-3.8253,-3.8419,-3.8585,-3.8626,-3.8626,-3.8647,-3.8792,-3.904,-3.9061,-3.9226,-3.9454,-3.9537,-3.9537,-3.9558,-3.9661,-3.9744,-3.9765,-3.9806,-3.9578,-3.9516,-3.9475,-3.9558,-3.964,-3.962,-3.962,-3.9599,-3.9661,-3.9785,-3.9889,-3.9951,-3.9951,-3.993,-4.0096,-4.0241,-4.0116,-4.0054,-4.0194,-3.5606,-3.6016,-3.6035,-3.6035,-3.6035,-3.6035,-3.6035,-3.6035,-3.6035,-3.6035,-3.6035,-3.6035,-3.6035,-3.6035,-3.6035,-3.5996,-3.5918,-3.5937,-3.5957,-3.5976,-3.6016,-3.6035,-3.6035,-3.6035,-3.6035,-3.6035,-3.6035,-3.6035,-3.6035,-3.6035,-3.6035,-3.6035,-3.6074,-3.6113,-3.6055,-3.6133,-3.6113,-3.6191,-3.6504,-3.6818,-3.7272,-3.7966,-3.8425,-3.8881,-3.9296,-3.9061,-3.8295,-3.8274,-3.8316,-3.8274,-3.8233,-3.8191,-3.8191,-3.8191,-3.8191,-3.8191,-3.8191,-3.8191,-3.8191,-3.8191,-3.8191,-3.8191,-3.8191,-3.8212,-3.8274,-3.8253,-3.8274,-3.8357,-3.8336,-3.8274,-3.8357,-3.8626,-3.8688,-3.8295,-3.8316,-3.8357,-3.8295,-3.8233,-3.8378,-3.8792,-3.9144,-3.9475,-3.9495,-3.9392,-3.9392,-3.9495,-3.9537,-3.9599,-3.9723,-3.9765,-3.962,-3.9702,-3.9972,-4.022,-4.0386,-4.0489,-4.0137,-3.9868,-3.9806,-3.9806,-3.9889,-3.9909,-3.9951,-3.9972,-4.0116,-4.0241,-4.0406,-4.0468,-4.053,-4.0551,-4.0696,-4.0817,-4.0713,-4.0792,-4.0896,-3.5879,-3.6016,-3.6035,-3.6035,-3.6035,-3.6035,-3.6035,-3.6035,-3.6035,-3.6035,-3.6035,-3.6035,-3.6035,-3.6035,-3.6035,-3.6035,-3.6035,-3.6035,-3.6035,-3.6035,-3.6035,-3.6035,-3.6035,-3.6035,-3.6035,-3.6035,-3.6035,-3.6035,-3.6035,-3.6035,-3.6035,-3.6074,-3.6328,-3.6465,-3.6484,-3.6738,-3.6894,-3.6914,-3.7031,-3.723,-3.7669,-3.8187,-3.8566,-3.8983,-3.926,-3.9371,-3.9144,-3.9123,-3.9123,-3.9102,-3.8812,-3.8502,-3.8274,-3.8191,-3.8191,-3.8191,-3.8191,-3.8191,-3.8191,-3.8212,-3.8233,-3.8212,-3.8212,-3.8357,-3.8605,-3.8647,-3.8771,-3.9019,-3.9123,-3.9123,-3.9144,-3.9226,-3.9123,-3.8688,-3.8916,-3.9061,-3.904,-3.9081,-3.9185,-3.9288,-3.9454,-3.9537,-3.9558,-3.9558,-3.9723,-3.9972,-3.9992,-4.0054,-4.0344,-4.0365,-4.0468,-4.0489,-4.0655,-4.0613,-4.0675,-4.0696,-4.053,-4.0323,-4.0261,-4.0179,-4.022,-4.0261,-4.0303,-4.0344,-4.051,-4.0634,-4.08,-4.0882,-4.0882,-4.0903,-4.1025,-4.1004,-4.131,-4.1557,-4.1825,-3.6035,-3.6035,-3.6035,-3.6035,-3.6035,-3.6035,-3.6035,-3.6035,-3.6035,-3.6035,-3.6035,-3.6035,-3.6035,-3.6035,-3.6035,-3.6035,-3.6035,-3.6035,-3.6035,-3.6035,-3.6035,-3.6035,-3.6035,-3.6035,-3.6035,-3.6035,-3.6035,-3.6113,-3.6269,-3.6269,-3.6348,-3.6543,-3.6777,-3.6894,-3.6914,-3.7148,-3.7305,-3.7305,-3.7441,-3.7661,-3.7983,-3.8527,-3.903,-3.9332,-3.9754,-4.0034,-4.0034,-4.0034,-3.9889,-3.9578,-3.9247,-3.8957,-3.8709,-3.8709,-3.8688,-3.8688,-3.8688,-3.8709,-3.8688,-3.873,-3.8688,-3.8688,-3.8688,-3.8812,-3.9061,-3.9102,-3.9268,-3.9475,-3.9516,-3.9537,-3.9537,-3.9723,-3.964,-3.9413,-3.9433,-3.9537,-3.9558,-3.9702,-3.9785,-3.9827,-3.9951,-4.0013,-4.0034,-4.0054,-4.0137,-4.0406,-4.0448,-4.0489,-4.08,-4.0841,-4.0882,-4.0882,-4.082,-4.08,-4.0841,-4.0862,-4.0862,-4.08,-4.0737,-4.0675,-4.0655,-4.0655,-4.0675,-4.0655,-4.0758,-4.0737,-4.0882,-4.0882,-4.0882,-4.1087,-4.1438,-4.1728,-4.2141,-4.239,-4.264,-3.6035,-3.6035,-3.6035,-3.6035,-3.6035,-3.6035,-3.6035,-3.6035,-3.6035,-3.6035,-3.6035,-3.6035,-3.6035,-3.6035,-3.6035,-3.6035,-3.6035,-3.6113,-3.6133,-3.6133,-3.6152,-3.6191,-3.6133,-3.6133,-3.6172,-3.6211,-3.6191,-3.6348,-3.668,-3.6699,-3.6894,-3.7168,-3.7266,-3.7324,-3.7363,-3.7363,-3.748,-3.7539,-3.7793,-3.7969,-3.7969,-3.9002,-3.9654,-3.9634,-4.033,-4.0758,-4.0737,-4.0717,-4.0406,-3.9723,-3.9599,-3.9537,-3.9516,-3.9537,-3.9433,-3.9413,-3.9516,-3.9454,-3.9495,-3.9392,-3.9413,-3.9392,-3.9392,-3.9558,-3.9558,-3.9578,-3.964,-3.9744,-3.9744,-3.9702,-3.9785,-4.0013,-4.022,-4.0199,-3.9951,-3.9765,-3.9682,-4.0034,-4.022,-4.0323,-4.0613,-4.0841,-4.0737,-4.0758,-4.0779,-4.08,-4.08,-4.082,-4.0882,-4.0924,-4.0924,-4.0986,-4.111,-4.1255,-4.1379,-4.1379,-4.14,-4.14,-4.1317,-4.1214,-4.1151,-4.1131,-4.1214,-4.1172,-4.1069,-4.1007,-4.1048,-4.1337,-4.1605,-4.1916,-4.227,-4.2728,-4.2937,-4.3124,-4.3456,-3.6035,-3.6035,-3.6035,-3.6035,-3.6035,-3.6035,-3.6035,-3.6035,-3.6035,-3.6035,-3.6035,-3.6035,-3.6055,-3.6035,-3.6055,-3.6035,-3.6133,-3.6367,-3.6504,-3.6543,-3.6836,-3.6758,-3.6543,-3.6504,-3.666,-3.6875,-3.6875,-3.7031,-3.7129,-3.7129,-3.7207,-3.7305,-3.7637,-3.7773,-3.7793,-3.8047,-3.8242,-3.8242,-3.832,-3.8398,-3.8543,-3.9201,-3.9714,-3.9714,-4.0433,-4.0882,-4.0882,-4.0882,-4.0634,-4.0116,-4.0054,-3.9868,-3.962,-3.9599,-3.962,-3.962,-3.9578,-3.9558,-3.9558,-3.9578,-3.9558,-3.9537,-3.962,-3.9682,-4.0013,-4.0054,-4.0199,-4.0406,-4.053,-4.0489,-4.051,-4.0613,-4.0696,-4.0696,-4.053,-4.0468,-4.0489,-4.0613,-4.0717,-4.0737,-4.08,-4.0862,-4.0924,-4.0924,-4.0924,-4.0944,-4.0965,-4.0965,-4.1089,-4.1255,-4.1379,-4.1524,-4.1648,-4.1835,-4.1938,-4.1938,-4.1959,-4.1979,-4.1917,-4.1793,-4.1731,-4.169,-4.1835,-4.1938,-4.1731,-4.1648,-4.1939,-4.223,-4.2481,-4.2731,-4.3128,-4.338,-4.3649,-4.3816,-4.4294,-3.6268,-3.6423,-3.6423,-3.6403,-3.6268,-3.6268,-3.6132,-3.6016,-3.6035,-3.6133,-3.6269,-3.6289,-3.6387,-3.6543,-3.6562,-3.6562,-3.6601,-3.6816,-3.6934,-3.6973,-3.7168,-3.7129,-3.6973,-3.6934,-3.707,-3.7266,-3.7305,-3.7383,-3.7519,-3.7559,-3.7656,-3.7871,-3.8066,-3.8203,-3.8203,-3.8418,-3.8574,-3.8574,-3.8574,-3.8574,-3.872,-3.9281,-3.9714,-3.9858,-4.0433,-4.0882,-4.0882,-4.0882,-4.0737,-4.0551,-4.0489,-4.0365,-4.0137,-4.0096,-4.0116,-4.0096,-4.0096,-4.0116,-4.0096,-4.0096,-4.0096,-4.0116,-4.0096,-4.022,-4.0448,-4.051,-4.0655,-4.08,-4.0862,-4.0882,-4.0882,-4.0882,-4.0882,-4.0882,-4.1048,-4.1069,-4.0924,-4.0841,-4.0862,-4.0882,-4.0882,-4.0965,-4.1131,-4.1151,-4.1276,-4.1421,-4.1545,-4.1545,-4.1565,-4.1731,-4.1876,-4.1979,-4.2062,-4.2166,-4.2228,-4.2249,-4.229,-4.2331,-4.2476,-4.2352,-4.2249,-4.2186,-4.2207,-4.229,-4.229,-4.2437,-4.2647,-4.2984,-4.3089,-4.3382,-4.3781,-4.4224,-4.4581,-4.483,-4.5165,-3.6789,-3.7079,-3.7079,-3.6944,-3.6539,-3.6559,-3.6386,-3.6113,-3.6211,-3.6406,-3.668,-3.6738,-3.6894,-3.7305,-3.7129,-3.7246,-3.7246,-3.7305,-3.7422,-3.7461,-3.7539,-3.75,-3.7519,-3.7383,-3.7461,-3.7539,-3.7461,-3.7676,-3.793,-3.7988,-3.8184,-3.8379,-3.8516,-3.8555,-3.8496,-3.8574,-3.8574,-3.8574,-3.8574,-3.8574,-3.8759,-3.938,-3.9875,-4.002,-4.074,-4.1172,-4.1151,-4.111,-4.1069,-4.1027,-4.0944,-4.082,-4.082,-4.0841,-4.082,-4.0779,-4.0737,-4.0758,-4.0841,-4.0737,-4.08,-4.0758,-4.0779,-4.0882,-4.082,-4.08,-4.082,-4.0862,-4.0924,-4.1048,-4.1151,-4.1089,-4.1131,-4.1234,-4.1462,-4.14,-4.1131,-4.1027,-4.1027,-4.1007,-4.1048,-4.1234,-4.1483,-4.1669,-4.1772,-4.1835,-4.1938,-4.1917,-4.2,-4.2166,-4.2269,-4.2352,-4.2414,-4.2456,-4.2497,-4.2497,-4.2559,-4.2621,-4.289,-4.289,-4.2725,-4.2621,-4.2666,-4.2687,-4.3043,-4.3192,-4.3384,-4.3553,-4.3869,-4.427,-4.4737,-4.544,-4.608,-4.6073,-4.6322,-3.7079,-3.7079,-3.7079,-3.6809,-3.6578,-3.6896,-3.6799,-3.6562,-3.6875,-3.7012,-3.7148,-3.7168,-3.7226,-3.7324,-3.7383,-3.7305,-3.7422,-3.7656,-3.7949,-3.8281,-3.8301,-3.8301,-3.8203,-3.7949,-3.7988,-3.8164,-3.8281,-3.834,-3.8398,-3.8398,-3.8476,-3.8555,-3.8574,-3.8574,-3.8574,-3.8613,-3.8574,-3.8574,-3.8594,-3.8652,-3.8877,-3.9679,-4.0237,-4.0424,-4.1439,-4.1917,-4.1959,-4.1959,-4.1959,-4.1793,-4.1338,-4.0986,-4.0986,-4.0965,-4.0965,-4.0986,-4.0944,-4.0924,-4.0903,-4.0965,-4.0903,-4.0965,-4.1007,-4.0882,-4.0882,-4.0924,-4.0924,-4.0944,-4.1193,-4.1545,-4.1793,-4.1938,-4.1876,-4.1876,-4.2,-4.2062,-4.1979,-4.1917,-4.1876,-4.1897,-4.1897,-4.2,-4.2083,-4.2104,-4.2186,-4.2269,-4.229,-4.2269,-4.2435,-4.2642,-4.2704,-4.2787,-4.2911,-4.2973,-4.2973,-4.2973,-4.2973,-4.2973,-4.318,-4.3476,-4.3289,-4.3248,-4.3165,-4.3439,-4.3799,-4.3994,-4.4082,-4.4507,-4.4869,-4.5295,-4.5657,-4.6167,-4.6699,-4.6891,-4.7332,-3.7482,-3.7657,-3.784,-3.7516,-3.7188,-3.7588,-3.751,-3.7151,-3.7187,-3.7422,-3.7559,-3.7598,-3.7695,-3.7891,-3.7891,-3.791,-3.793,-3.8105,-3.834,-3.8535,-3.8555,-3.8574,-3.8555,-3.8379,-3.8379,-3.8574,-3.8574,-3.8574,-3.8574,-3.8574,-3.8555,-3.8574,-3.8594,-3.8574,-3.8633,-3.8769,-3.8867,-3.8945,-3.9101,-3.9199,-3.9406,-4.0116,-4.0995,-4.131,-4.1977,-4.2249,-4.2228,-4.2249,-4.2249,-4.2145,-4.1793,-4.1524,-4.1524,-4.1524,-4.1524,-4.1524,-4.1524,-4.1524,-4.1524,-4.1524,-4.1545,-4.1503,-4.1524,-4.1524,-4.1524,-4.1524,-4.1524,-4.1565,-4.1752,-4.2021,-4.2228,-4.2249,-4.2269,-4.2311,-4.2456,-4.2559,-4.2538,-4.2393,-4.2249,-4.2249,-4.2207,-4.2352,-4.2456,-4.2559,-4.2745,-4.289,-4.2994,-4.2973,-4.3014,-4.3201,-4.3201,-4.3284,-4.3428,-4.3511,-4.3511,-4.3491,-4.3449,-4.3428,-4.3428,-4.3663,-4.3731,-4.3773,-4.3987,-4.418,-4.431,-4.4612,-4.4763,-4.5234,-4.5704,-4.5937,-4.6381,-4.6721,-4.7186,-4.7502,-4.7941,-3.8007,-3.8316,-3.8771,-3.8528,-3.7903,-3.8306,-3.8087,-3.7402,-3.7461,-3.7754,-3.7969,-3.8027,-3.8203,-3.8476,-3.8516,-3.8555,-3.8555,-3.8535,-3.8555,-3.8574,-3.8574,-3.8574,-3.8555,-3.8535,-3.8535,-3.8574,-3.8574,-3.8574,-3.8574,-3.8594,-3.8633,-3.8672,-3.8691,-3.8809,-3.8887,-3.9101,-3.9316,-3.9355,-3.959,-3.9766,-3.9975,-4.0634,-4.1481,-4.239,-4.2559,-4.26,-4.26,-4.258,-4.2518,-4.2456,-4.2456,-4.2456,-4.2435,-4.229,-4.2249,-4.2207,-4.2145,-4.2104,-4.2083,-4.2145,-4.2166,-4.2249,-4.2228,-4.2228,-4.2186,-4.2124,-4.2104,-4.2186,-4.2269,-4.2414,-4.2456,-4.258,-4.2559,-4.258,-4.2849,-4.2994,-4.2973,-4.2683,-4.26,-4.2559,-4.2704,-4.2849,-4.2952,-4.3035,-4.3284,-4.3491,-4.3573,-4.3615,-4.3615,-4.3594,-4.3532,-4.3511,-4.3573,-4.3594,-4.3615,-4.3615,-4.3615,-4.3615,-4.3615,-4.3919,-4.4071,-4.4201,-4.4352,-4.4504,-4.4805,-4.5106,-4.5405,-4.5704,-4.6151,-4.6596,-4.7038,-4.7355,-4.7794,-4.8232,-4.8691,-3.8615,-3.8792,-3.9226,-3.8999,-3.8346,-3.8769,-3.8525,-3.7891,-3.8164,-3.8379,-3.8437,-3.8457,-3.8476,-3.8574,-3.8574,-3.8574,-3.8574,-3.8574,-3.8574,-3.8594,-3.8613,-3.8633,-3.8652,-3.873,-3.8672,-3.8574,-3.8633,-3.8691,-3.8613,-3.8594,-3.8867,-3.9043,-3.9101,-3.9238,-3.9512,-3.9766,-3.9766,-3.9785,-3.9941,-4.0019,-4.0229,-4.1012,-4.22,-4.305,-4.3221,-4.3263,-4.3304,-4.3346,-4.3387,-4.3387,-4.3387,-4.3346,-4.318,-4.2683,-4.2393,-4.2373,-4.2393,-4.2435,-4.2414,-4.2331,-4.229,-4.2249,-4.2352,-4.2331,-4.2311,-4.2311,-4.2435,-4.2456,-4.2683,-4.2952,-4.3346,-4.3263,-4.3346,-4.3387,-4.3366,-4.3449,-4.3428,-4.3346,-4.3242,-4.318,-4.3284,-4.3304,-4.3325,-4.3346,-4.3449,-4.3553,-4.3573,-4.3615,-4.3615,-4.3615,-4.3594,-4.3573,-4.3594,-4.3615,-4.3615,-4.3615,-4.3615,-4.3615,-4.3767,-4.3919,-4.4201,-4.4504,-4.4805,-4.5106,-4.5405,-4.5555,-4.6002,-4.6151,-4.6596,-4.7038,-4.7648,-4.8109,-4.8377,-4.8812,-4.9459,-3.8978,-3.9247,-3.9404,-3.931,-3.8829,-3.9089,-3.8838,-3.8281,-3.8496,-3.8574,-3.8574,-3.8574,-3.8574,-3.8574,-3.8574,-3.8574,-3.8574,-3.8574,-3.8574,-3.8594,-3.8769,-3.8906,-3.8965,-3.9121,-3.9238,-3.9277,-3.9258,-3.9101,-3.8945,-3.918,-3.9336,-3.9492,-3.9551,-3.9687,-3.9902,-4.0098,-4.0195,-4.0254,-4.041,-4.0527,-4.068,-4.1509,-4.2647,-4.3228,-4.3615,-4.3615,-4.3615,-4.3615,-4.3594,-4.3594,-4.3594,-4.3615,-4.347,-4.3263,-4.2952,-4.2932,-4.2911,-4.2932,-4.2952,-4.2973,-4.2994,-4.2973,-4.2932,-4.2952,-4.2952,-4.2994,-4.2911,-4.2994,-4.3077,-4.3366,-4.3553,-4.3615,-4.3615,-4.3615,-4.3615,-4.3615,-4.3615,-4.3615,-4.3615,-4.3615,-4.3553,-4.3511,-4.3532,-4.3553,-4.3594,-4.3615,-4.3615,-4.3635,-4.3656,-4.3677,-4.3718,-4.378,-4.3822,-4.3822,-4.3822,-4.3842,-4.3842,-4.3954,-4.3933,-4.4238,-4.45,-4.4996,-4.5513,-4.5853,-4.6151,-4.6326,-4.6321,-4.6618,-4.7208,-4.7693,-4.8178,-4.8661,-4.898,-4.9412,-5.0151,-3.933,-3.9584,-3.9736,-3.9475,-3.9251,-3.9161,-3.9011,-3.872,-3.8574,-3.8574,-3.8574,-3.8574,-3.8574,-3.8574,-3.8574,-3.8574,-3.8594,-3.8652,-3.873,-3.8828,-3.9141,-3.9336,-3.9453,-3.9648,-3.9805,-3.9746,-3.9922,-3.9785,-3.9473,-3.9629,-3.9863,-4.0,-4.0019,-4.0098,-4.0254,-4.0527,-4.0625,-4.0762,-4.0957,-4.1172,-4.1483,-4.2082,-4.2677,-4.3462,-4.3615,-4.3615,-4.3615,-4.3615,-4.3615,-4.3615,-4.3615,-4.3615,-4.3615,-4.3615,-4.3615,-4.3615,-4.3615,-4.3615,-4.3594,-4.3553,-4.347,-4.3449,-4.3573,-4.3594,-4.3553,-4.347,-4.3532,-4.3615,-4.3594,-4.3573,-4.3615,-4.3615,-4.3615,-4.3615,-4.3615,-4.3615,-4.3615,-4.3615,-4.3615,-4.3635,-4.3677,-4.3698,-4.3718,-4.3615,-4.3615,-4.3615,-4.3615,-4.3801,-4.3822,-4.3863,-4.3925,-4.4008,-4.407,-4.407,-4.4112,-4.4174,-4.4349,-4.4544,-4.4677,-4.4831,-4.5184,-4.5577,-4.6095,-4.6739,-4.7082,-4.7343,-4.7225,-4.7387,-4.818,-4.869,-4.8868,-4.9352,-5.0241,-5.0746,-5.1274,-4.0075,-4.0199,-4.0187,-3.9941,-3.9634,-3.9281,-3.903,-3.8574,-3.8574,-3.8574,-3.8574,-3.8574,-3.8594,-3.8613,-3.8613,-3.8594,-3.873,-3.8984,-3.9141,-3.9219,-3.959,-3.9805,-3.9824,-3.9844,-4.0039,-4.0117,-4.0332,-4.0176,-3.998,-3.998,-4.0137,-4.0391,-4.0488,-4.0605,-4.084,-4.0937,-4.1094,-4.1094,-4.1133,-4.1327,-4.1773,-4.2216,-4.2697,-4.3004,-4.3462,-4.3615,-4.3615,-4.3615,-4.3615,-4.3615,-4.3615,-4.3615,-4.3615,-4.3615,-4.3615,-4.3615,-4.3615,-4.3615,-4.3615,-4.3615,-4.3615,-4.3615,-4.3615,-4.3615,-4.3615,-4.3615,-4.3615,-4.3615,-4.3615,-4.3656,-4.3677,-4.3656,-4.3635,-4.3718,-4.3822,-4.376,-4.3718,-4.3987,-4.3946,-4.3967,-4.4112,-4.3946,-4.3863,-4.3718,-4.3615,-4.3615,-4.3677,-4.3905,-4.4091,-4.4174,-4.4256,-4.4381,-4.4443,-4.4443,-4.4577,-4.4484,-4.4836,-4.5075,-4.5384,-4.5539,-4.5916,-4.6485,-4.7116,-4.7594,-4.8027,-4.8411,-4.8575,-4.8805,-4.9342,-4.9762,-5.0156,-5.093,-5.1921,-5.2212,-5.2476,-4.0593,-4.0613,-4.0085,-3.9858,-3.957,-3.9156,-3.872,-3.8574,-3.8574,-3.8574,-3.8574,-3.8574,-3.8691,-3.8887,-3.8926,-3.9101,-3.9316,-3.9512,-3.959,-3.9687,-4.0019,-4.0254,-4.0312,-4.0488,-4.0625,-4.0605,-4.0762,-4.084,-4.0625,-4.0605,-4.0742,-4.082,-4.0879,-4.0937,-4.1172,-4.1172,-4.1172,-4.1152,-4.1172,-4.1483,-4.1773,-4.2216,-4.2544,-4.3024,-4.333,-4.3656,-4.3656,-4.3615,-4.3615,-4.3615,-4.3615,-4.3615,-4.3615,-4.3615,-4.3615,-4.3635,-4.3884,-4.3884,-4.3677,-4.3635,-4.3677,-4.3635,-4.3635,-4.3615,-4.3615,-4.3656,-4.3656,-4.3615,-4.3615,-4.3739,-4.3946,-4.3987,-4.4174,-4.4256,-4.4256,-4.4298,-4.4298,-4.4381,-4.4505,-4.4505,-4.4526,-4.4422,-4.4381,-4.4443,-4.436,-4.4277,-4.4319,-4.4484,-4.4608,-4.467,-4.4753,-4.4836,-4.4877,-4.4877,-4.4992,-4.4992,-4.5305,-4.5523,-4.6145,-4.6455,-4.6785,-4.7115,-4.7904,-4.8472,-4.8877,-4.9306,-4.9847,-5.01,-5.0327,-5.0966,-5.1649,-5.2233,-5.2914,-5.301,-5.3274,-4.074,-4.074,-4.0002,-3.9714,-3.957,-3.8865,-3.8574,-3.8574,-3.8574,-3.8574,-3.8613,-3.8711,-3.8984,-3.9297,-3.9394,-3.9531,-3.9863,-4.0,-4.0059,-4.0195,-4.0449,-4.0664,-4.0762,-4.0996,-4.1113,-4.1172,-4.1074,-4.1094,-4.1113,-4.1113,-4.1094,-4.1172,-4.1113,-4.1152,-4.1152,-4.1172,-4.1172,-4.1172,-4.1172,-4.1327,-4.1638,-4.2222,-4.2705,-4.3074,-4.3577,-4.3967,-4.3967,-4.3987,-4.4008,-4.4008,-4.4049,-4.4091,-4.407,-4.4091,-4.4091,-4.4153,-4.436,-4.436,-4.4174,-4.407,-4.3967,-4.3946,-4.3946,-4.4091,-4.4049,-4.3967,-4.3967,-4.407,-4.407,-4.4215,-4.436,-4.4463,-4.4588,-4.4753,-4.4877,-4.496,-4.5002,-4.4919,-4.4857,-4.4815,-4.4898,-4.5105,-4.5126,-4.5271,-4.5209,-4.5002,-4.5002,-4.5064,-4.5147,-4.5188,-4.5354,-4.5457,-4.5478,-4.5657,-4.5774,-4.5869,-4.5943,-4.6194,-4.6819,-4.735,-4.7769,-4.8278,-4.883,-4.9288,-4.9844,-5.0654,-5.121,-5.1255,-5.1319,-5.2024,-5.2808,-5.3107,-5.3643,-5.3763,-5.4126,-4.031,-4.031,-3.9878,-3.959,-3.9176,-3.872,-3.8574,-3.8574,-3.8574,-3.8594,-3.8691,-3.8984,-3.9414,-3.9746,-3.9844,-3.9883,-3.9961,-4.0312,-4.0449,-4.0625,-4.0879,-4.1016,-4.1094,-4.1113,-4.1172,-4.1172,-4.1172,-4.1172,-4.1172,-4.1172,-4.1172,-4.1172,-4.1172,-4.1172,-4.1211,-4.125,-4.1269,-4.1289,-4.1328,-4.1328,-4.1719,-4.2325,-4.315,-4.3407,-4.4161,-4.4898,-4.4877,-4.4774,-4.4712,-4.4712,-4.4691,-4.4691,-4.465,-4.467,-4.465,-4.4691,-4.4836,-4.4857,-4.4795,-4.4712,-4.4815,-4.4857,-4.4815,-4.4691,-4.465,-4.4815,-4.4857,-4.4733,-4.4629,-4.4774,-4.4877,-4.496,-4.5022,-4.5209,-4.5354,-4.5333,-4.5333,-4.525,-4.5188,-4.5126,-4.5271,-4.554,-4.5664,-4.5768,-4.5685,-4.5478,-4.5416,-4.5457,-4.5664,-4.5768,-4.5995,-4.6119,-4.6161,-4.6343,-4.6685,-4.6901,-4.6987,-4.7261,-4.7755,-4.8335,-4.896,-4.9429,-4.985,-5.0358,-5.101,-5.1897,-5.2599,-5.2522,-5.2702,-5.3384,-5.3929,-5.4255,-5.4647,-5.506,-5.5281,-4.0022,-3.961,-3.9445,-3.9321,-3.9176,-3.872,-3.8574,-3.8574,-3.8574,-3.873,-3.9004,-3.9434,-3.9883,-4.0195,-4.0312,-4.0449,-4.0664,-4.082,-4.0898,-4.0957,-4.1094,-4.1172,-4.1172,-4.1172,-4.1172,-4.1172,-4.1172,-4.1172,-4.1172,-4.1211,-4.1172,-4.1172,-4.125,-4.1172,-4.1211,-4.1445,-4.1543,-4.1641,-4.1777,-4.1933,-4.2131,-4.2843,-4.3436,-4.3634,-4.4345,-4.4981,-4.4981,-4.4981,-4.5002,-4.5022,-4.5043,-4.5064,-4.5084,-4.5084,-4.5084,-4.5126,-4.5271,-4.5395,-4.5354,-4.5188,-4.5002,-4.5002,-4.4981,-4.5022,-4.5105,-4.5022,-4.5002,-4.4981,-4.5064,-4.5167,-4.5395,-4.5436,-4.5519,-4.5726,-4.5788,-4.5726,-4.5705,-4.5623,-4.5643,-4.5643,-4.5809,-4.6057,-4.614,-4.6202,-4.6078,-4.5933,-4.5892,-4.5871,-4.6037,-4.6161,-4.6285,-4.6509,-4.6509,-4.6852,-4.7174,-4.7474,-4.7954,-4.8273,-4.8749,-4.9223,-4.9695,-5.0432,-5.0916,-5.1516,-5.1977,-5.2717,-5.3275,-5.348,-5.3953,-5.4199,-5.4695,-5.5263,-5.5729,-5.6072,-5.6219,-3.9734,-3.9176,-3.903,-3.903,-3.903,-3.872,-3.8652,-3.875,-3.8769,-3.9101,-3.9609,-3.9961,-4.0312,-4.0625,-4.0723,-4.084,-4.1055,-4.1133,-4.1152,-4.1152,-4.1152,-4.1172,-4.1172,-4.1172,-4.1172,-4.1172,-4.1191,-4.1191,-4.1406,-4.1367,-4.1504,-4.1582,-4.1523,-4.1543,-4.1484,-4.1758,-4.1992,-4.207,-4.2226,-4.2422,-4.2562,-4.334,-4.3899,-4.4099,-4.4878,-4.5478,-4.5498,-4.554,-4.5498,-4.5498,-4.5478,-4.5436,-4.5416,-4.5395,-4.5395,-4.5498,-4.5643,-4.585,-4.5768,-4.5623,-4.5395,-4.5519,-4.5498,-4.5457,-4.5395,-4.5395,-4.554,-4.5498,-4.5457,-4.5519,-4.5871,-4.5892,-4.5933,-4.6099,-4.6119,-4.6099,-4.6119,-4.6099,-4.614,-4.6182,-4.6306,-4.6285,-4.6285,-4.6306,-4.6244,-4.614,-4.6119,-4.6099,-4.6182,-4.6264,-4.6467,-4.6509,-4.6852,-4.7014,-4.7335,-4.7794,-4.8273,-4.8749,-4.9223,-4.9538,-5.0165,-5.0921,-5.1693,-5.2,-5.2612,-5.3219,-5.3774,-5.4151,-5.4473,-5.4695,-5.5312,-5.5779,-5.5926,-5.6219,-5.6219,-3.9445,-3.9176,-3.872,-3.8574,-3.8759,-3.8594,-3.8809,-3.9121,-3.9238,-3.9668,-4.0312,-4.0488,-4.0723,-4.1035,-4.1055,-4.1113,-4.1133,-4.1172,-4.1172,-4.1172,-4.1172,-4.1172,-4.1172,-4.1172,-4.1211,-4.1191,-4.1269,-4.1465,-4.1777,-4.1797,-4.1973,-4.2207,-4.2207,-4.2129,-4.1855,-4.2207,-4.2402,-4.2422,-4.248,-4.2558,-4.2817,-4.3718,-4.4321,-4.4583,-4.5431,-4.6037,-4.6037,-4.6037,-4.6016,-4.6037,-4.6078,-4.6078,-4.6078,-4.6119,-4.6119,-4.6182,-4.6223,-4.6285,-4.6285,-4.6285,-4.6182,-4.6119,-4.5995,-4.6057,-4.6202,-4.6223,-4.614,-4.5975,-4.6099,-4.6182,-4.6285,-4.6306,-4.6306,-4.6306,-4.6326,-4.6347,-4.6347,-4.6347,-4.6347,-4.6347,-4.6347,-4.6347,-4.6326,-4.6347,-4.6326,-4.6306,-4.6326,-4.6347,-4.6347,-4.6509,-4.667,-4.6832,-4.7174,-4.7474,-4.7794,-4.8114,-4.8569,-4.9201,-4.9695,-5.0009,-5.0633,-5.1231,-5.1847,-5.2459,-5.3068,-5.3822,-5.4272,-5.4719,-5.5016,-5.5312,-5.5754,-5.6072,-5.6219,-5.6219,-5.6219,-3.9156,-3.8739,-3.872,-3.873,-3.8965,-3.8984,-3.9082,-3.9297,-3.9805,-4.0254,-4.0547,-4.0801,-4.1016,-4.1152,-4.1172,-4.1172,-4.1172,-4.1172,-4.1172,-4.1172,-4.1172,-4.1172,-4.1191,-4.125,-4.1348,-4.1523,-4.1621,-4.1816,-4.2207,-4.2226,-4.2266,-4.2441,-4.2715,-4.2598,-4.2441,-4.2617,-4.2851,-4.293,-4.3105,-4.3281,-4.3445,-4.4216,-4.4804,-4.4804,-4.5779,-4.6347,-4.6347,-4.6347,-4.6347,-4.6347,-4.6347,-4.6347,-4.6347,-4.6347,-4.6347,-4.6347,-4.6347,-4.6347,-4.6347,-4.6326,-4.6326,-4.6347,-4.6347,-4.6347,-4.6347,-4.6347,-4.6347,-4.6347,-4.6347,-4.6347,-4.6326,-4.6326,-4.6326,-4.6326,-4.6347,-4.6347,-4.6347,-4.6347,-4.6347,-4.6347,-4.6347,-4.6347,-4.6347,-4.6347,-4.6347,-4.6347,-4.6347,-4.6347,-4.6347,-4.667,-4.6852,-4.7153,-4.7474,-4.7954,-4.8273,-4.8569,-4.9044,-4.9673,-5.0143,-5.0633,-5.1254,-5.1693,-5.2307,-5.2916,-5.3521,-5.4122,-5.4719,-5.5189,-5.5632,-5.6072,-5.6219,-5.6219,-5.6219,-5.6219,-5.6219,-3.903,-3.8594,-3.873,-3.8945,-3.918,-3.9199,-3.9336,-3.9746,-4.041,-4.0742,-4.082,-4.1055,-4.1172,-4.1172,-4.1172,-4.1172,-4.1172,-4.1172,-4.1172,-4.1172,-4.1172,-4.1269,-4.1348,-4.1426,-4.168,-4.1914,-4.207,-4.2246,-4.2637,-4.2656,-4.2773,-4.2969,-4.3125,-4.3125,-4.3047,-4.3164,-4.3281,-4.3359,-4.3496,-4.3613,-4.3797,-4.435,-4.5025,-4.5189,-4.5698,-4.6347,-4.6347,-4.6347,-4.6347,-4.6347,-4.6347,-4.6347,-4.6347,-4.6347,-4.6347,-4.6347,-4.6347,-4.6347,-4.6347,-4.6347,-4.6347,-4.6347,-4.6347,-4.6347,-4.6347,-4.6347,-4.6347,-4.6347,-4.6347,-4.6347,-4.6347,-4.6347,-4.6347,-4.6347,-4.6347,-4.6347,-4.6347,-4.6347,-4.6347,-4.6347,-4.6347,-4.6347,-4.6347,-4.6347,-4.6347,-4.6509,-4.6509,-4.6509,-4.6509,-4.6993,-4.7314,-4.7474,-4.7794,-4.8273,-4.8749,-4.9065,-4.9516,-5.0143,-5.0611,-5.1254,-5.1847,-5.2307,-5.2916,-5.337,-5.3822,-5.4421,-5.5189,-5.5632,-5.5926,-5.6072,-5.6219,-5.6219,-5.6219,-5.6219,-5.6219,-3.8885,-3.8652,-3.9043,-3.9219,-3.9258,-3.9394,-3.9805,-4.0547,-4.0976,-4.1133,-4.1152,-4.1133,-4.1172,-4.1172,-4.1172,-4.1172,-4.1172,-4.1172,-4.123,-4.125,-4.1308,-4.1504,-4.1719,-4.1836,-4.209,-4.2324,-4.25,-4.2676,-4.3047,-4.3086,-4.3281,-4.3516,-4.3535,-4.3535,-4.3535,-4.3555,-4.3594,-4.3613,-4.3652,-4.3691,-4.3876,-4.4554,-4.4882,-4.5209,-4.5861,-4.6185,-4.6347,-4.6347,-4.6347,-4.6347,-4.6347,-4.6347,-4.6347,-4.6347,-4.6347,-4.6347,-4.6347,-4.6347,-4.6347,-4.6347,-4.6347,-4.6347,-4.6347,-4.6347,-4.6347,-4.6347,-4.6347,-4.6347,-4.6347,-4.6347,-4.6347,-4.6347,-4.6347,-4.6347,-4.6347,-4.6347,-4.6347,-4.6347,-4.6347,-4.6347,-4.6347,-4.6347,-4.6509,-4.6509,-4.667,-4.6993,-4.7153,-4.7153,-4.7314,-4.7453,-4.7794,-4.7954,-4.8432,-4.8749,-4.9223,-4.9516,-5.0143,-5.0766,-5.1231,-5.1847,-5.2459,-5.2916,-5.337,-5.3822,-5.4122,-5.4719,-5.5485,-5.5926,-5.6072,-5.6219,-5.6219,-5.6219,-5.6219,-5.6219,-5.6219,-3.8896,-3.9023,-3.9141,-3.9551,-4.0156,-4.0469,-4.0762,-4.1016,-4.1133,-4.1172,-4.1172,-4.1172,-4.1172,-4.1172,-4.1172,-4.1172,-4.1172,-4.1211,-4.1406,-4.1484,-4.1601,-4.1894,-4.2109,-4.2285,-4.2519,-4.2754,-4.2949,-4.3086,-4.3418,-4.3496,-4.3516,-4.3672,-4.3691,-4.3691,-4.3691,-4.3691,-4.3691,-4.3691,-4.3691,-4.3691,-4.3876,-4.4554,-4.4882,-4.5209,-4.5861,-4.6185,-4.6347,-4.6347,-4.6347,-4.6347,-4.6347,-4.6347,-4.6347,-4.6347,-4.6347,-4.6347,-4.6347,-4.6347,-4.6347,-4.6347,-4.6347,-4.6347,-4.6347,-4.6347,-4.6347,-4.6347,-4.6347,-4.6347,-4.6347,-4.6347,-4.6347,-4.6347,-4.6347,-4.6347,-4.6347,-4.6347,-4.6347,-4.6347,-4.6347,-4.6347,-4.6347,-4.6509,-4.667,-4.6832,-4.6993,-4.7293,-4.7613,-4.7794,-4.7954,-4.8114,-4.8251,-4.8591,-4.8907,-4.9381,-4.983,-5.0143,-5.0766,-5.1385,-5.1847,-5.2307,-5.2916,-5.337,-5.3822,-5.4272,-5.4719,-5.5312,-5.5901,-5.6219,-5.6219,-5.6219,-5.6219,-5.6219,-5.6219,-5.6219,-5.6219,-3.8965,-3.9238,-3.959,-4.0137,-4.0762,-4.1055,-4.1172,-4.1172,-4.1172,-4.1172,-4.1172,-4.1172,-4.1172,-4.1172,-4.1172,-4.1172,-4.1191,-4.1406,-4.1582,-4.1719,-4.1992,-4.2324,-4.2558,-4.2715,-4.2949,-4.3183,-4.334,-4.3437,-4.3652,-4.3691,-4.3691,-4.3691,-4.3691,-4.3691,-4.3691,-4.3691,-4.3691,-4.3691,-4.3691,-4.3691,-4.4041,-4.4554,-4.4882,-4.5209,-4.5861,-4.6185,-4.6347,-4.6347,-4.6347,-4.6347,-4.6347,-4.6347,-4.6347,-4.6347,-4.6347,-4.6347,-4.6347,-4.6347,-4.6347,-4.6347,-4.6347,-4.6347,-4.6368,-4.6347,-4.6347,-4.6347,-4.6347,-4.6347,-4.6347,-4.6347,-4.6347,-4.6347,-4.6347,-4.6347,-4.6347,-4.6347,-4.6347,-4.6347,-4.6347,-4.6347,-4.6509,-4.667,-4.6832,-4.7174,-4.7314,-4.7773,-4.8092,-4.8432,-4.8591,-4.8749,-4.8886,-4.9065,-4.9538,-4.9852,-5.0299,-5.0921,-5.1385,-5.2,-5.2459,-5.2916,-5.3521,-5.3996,-5.4296,-5.4892,-5.546,-5.5829,-5.6248,-5.6244,-5.6219,-5.6269,-5.6344,-5.6294,-5.6269,-5.6219,-5.6219,-3.9219,-3.9355,-4.0215,-4.0762,-4.1133,-4.1172,-4.1172,-4.1172,-4.1172,-4.1172,-4.1172,-4.1172,-4.1172,-4.1172,-4.1172,-4.125,-4.1367,-4.1582,-4.1875,-4.1914,-4.2324,-4.2715,-4.3008,-4.3144,-4.3301,-4.3555,-4.3672,-4.3613,-4.3672,-4.3691,-4.3691,-4.3691,-4.3691,-4.3691,-4.3691,-4.3691,-4.3691,-4.3691,-4.3691,-4.3691,-4.3876,-4.439,-4.5066,-4.5209,-4.5698,-4.6347,-4.6347,-4.6347,-4.6347,-4.6347,-4.6347,-4.6347,-4.6347,-4.6347,-4.6347,-4.6409,-4.6451,-4.6513,-4.6554,-4.6616,-4.6616,-4.6575,-4.6471,-4.6616,-4.6699,-4.643,-4.6347,-4.6347,-4.6347,-4.6347,-4.6347,-4.6347,-4.6347,-4.6347,-4.6347,-4.6347,-4.6347,-4.6347,-4.6347,-4.6509,-4.667,-4.7035,-4.7568,-4.7911,-4.8382,-4.8488,-4.8851,-4.9191,-4.9443,-4.976,-4.9605,-4.9583,-4.9987,-5.0611,-5.0921,-5.1539,-5.2154,-5.2612,-5.3091,-5.3521,-5.3972,-5.4446,-5.4941,-5.5559,-5.6178,-5.6275,-5.662,-5.6646,-5.6696,-5.6696,-5.6671,-5.647,-5.6369,-5.6369,-5.6244,-3.9414,-3.9805,-4.0664,-4.1094,-4.1172,-4.1172,-4.1172,-4.1172,-4.1172,-4.1172,-4.1172,-4.1172,-4.1172,-4.1172,-4.1211,-4.1348,-4.1621,-4.1875,-4.2226,-4.2539,-4.2871,-4.3086,-4.3457,-4.3476,-4.3594,-4.3652,-4.3691,-4.3691,-4.3691,-4.3691,-4.3691,-4.3691,-4.3691,-4.3691,-4.3711,-4.3711,-4.3769,-4.3789,-4.3848,-4.3848,-4.4013,-4.4429,-4.5066,-4.5229,-4.5739,-4.6288,-4.6451,-4.6409,-4.6368,-4.6347,-4.6347,-4.6347,-4.6347,-4.6368,-4.6368,-4.6409,-4.6699,-4.6823,-4.6927,-4.7051,-4.7175,-4.7279,-4.7299,-4.7341,-4.7196,-4.6658,-4.6389,-4.6389,-4.6389,-4.6409,-4.6409,-4.643,-4.643,-4.643,-4.643,-4.6409,-4.6409,-4.643,-4.6592,-4.6754,-4.6894,-4.7546,-4.8264,-4.8737,-4.9372,-4.9825,-5.0301,-5.0645,-5.0765,-5.095,-5.0636,-5.0703,-5.0811,-5.1231,-5.1693,-5.2177,-5.2659,-5.3314,-5.3816,-5.4045,-5.447,-5.5211,-5.5955,-5.6551,-5.6974,-5.7097,-5.7223,-5.7474,-5.7499,-5.7298,-5.7198,-5.7047,-5.6872,-5.6821,-5.6545,-3.9766,-4.0234,-4.0898,-4.1172,-4.1172,-4.1172,-4.1172,-4.1172,-4.1172,-4.1172,-4.1172,-4.1172,-4.1172,-4.125,-4.1348,-4.1543,-4.1894,-4.2246,-4.2578,-4.2988,-4.3281,-4.3457,-4.3633,-4.3691,-4.3691,-4.3691,-4.3691,-4.3691,-4.3691,-4.3691,-4.3691,-4.3711,-4.3711,-4.373,-4.375,-4.3867,-4.4004,-4.4023,-4.4141,-4.4219,-4.4366,-4.4952,-4.5347,-4.5656,-4.6127,-4.6701,-4.6947,-4.6927,-4.6947,-4.6947,-4.6989,-4.6989,-4.701,-4.703,-4.6989,-4.703,-4.7196,-4.732,-4.7403,-4.7548,-4.7734,-4.7775,-4.7713,-4.761,-4.7568,-4.7113,-4.7092,-4.7092,-4.7092,-4.7113,-4.7092,-4.7092,-4.7113,-4.7092,-4.7113,-4.7113,-4.7277,-4.7442,-4.7442,-4.7605,-4.7933,-4.8648,-4.9286,-4.9794,-5.0227,-5.041,-5.0954,-5.1599,-5.1967,-5.2104,-5.1829,-5.162,-5.1855,-5.2024,-5.2459,-5.2835,-5.3362,-5.3864,-5.4364,-5.5082,-5.568,-5.6426,-5.715,-5.7274,-5.7499,-5.7675,-5.7826,-5.7901,-5.7901,-5.7675,-5.7675,-5.77,-5.7474,-5.7123,-5.6821,-4.0215,-4.0644,-4.1016,-4.1172,-4.1172,-4.1172,-4.1172,-4.1172,-4.1172,-4.1172,-4.1191,-4.125,-4.125,-4.1387,-4.1601,-4.1797,-4.2109,-4.2617,-4.2988,-4.3262,-4.3516,-4.3613,-4.3652,-4.3691,-4.3691,-4.3691,-4.3691,-4.3691,-4.3691,-4.3691,-4.3711,-4.3711,-4.375,-4.3808,-4.3926,-4.4199,-4.4473,-4.4531,-4.4668,-4.4902,-4.5162,-4.5509,-4.5664,-4.6244,-4.6946,-4.7651,-4.7672,-4.7672,-4.7672,-4.7631,-4.7527,-4.7506,-4.7506,-4.7486,-4.7506,-4.7548,-4.7672,-4.7755,-4.7817,-4.7941,-4.7982,-4.7941,-4.7858,-4.7838,-4.7858,-4.7858,-4.7817,-4.7796,-4.7796,-4.7651,-4.7651,-4.7651,-4.7651,-4.7651,-4.7651,-4.7797,-4.7963,-4.8128,-4.8315,-4.848,-4.8975,-4.9653,-5.023,-5.0718,-5.1021,-5.1183,-5.1644,-5.2263,-5.2673,-5.2737,-5.2704,-5.2666,-5.2694,-5.2882,-5.3243,-5.3569,-5.3942,-5.449,-5.5037,-5.6002,-5.6649,-5.6875,-5.7224,-5.745,-5.77,-5.7851,-5.7901,-5.7901,-5.7901,-5.7901,-5.7876,-5.7801,-5.7449,-5.7148,-5.6997,-4.0644,-4.1055,-4.1152,-4.1172,-4.1172,-4.1172,-4.1172,-4.1172,-4.1172,-4.1172,-4.1289,-4.1543,-4.168,-4.1699,-4.1738,-4.2031,-4.2656,-4.3066,-4.332,-4.3594,-4.3652,-4.3672,-4.3691,-4.3691,-4.3691,-4.3691,-4.3691,-4.3691,-4.375,-4.373,-4.3711,-4.375,-4.418,-4.4277,-4.4336,-4.4629,-4.4922,-4.498,-4.5019,-4.5176,-4.5287,-4.5678,-4.6125,-4.6629,-4.7151,-4.7526,-4.7672,-4.7672,-4.7672,-4.7672,-4.7755,-4.7796,-4.7838,-4.7858,-4.7858,-4.7982,-4.8107,-4.821,-4.8293,-4.8479,-4.8521,-4.8583,-4.8583,-4.8603,-4.8624,-4.8645,-4.8583,-4.85,-4.8355,-4.792,-4.7817,-4.7838,-4.7838,-4.7838,-4.7838,-4.8129,-4.8275,-4.842,-4.8586,-4.9039,-4.951,-5.0153,-5.1026,-5.1286,-5.1478,-5.1779,-5.2354,-5.2946,-5.3195,-5.3389,-5.342,-5.3578,-5.3552,-5.3513,-5.3672,-5.3972,-5.4345,-5.489,-5.5509,-5.6277,-5.6751,-5.6874,-5.7148,-5.7549,-5.775,-5.7876,-5.7901,-5.7901,-5.7901,-5.7901,-5.7901,-5.7775,-5.7449,-5.7173,-5.6997]}]]